<?xml version="1.0" encoding="UTF-8" standalone="no" ?>
<gpx xmlns="http://www.topografix.com/GPX/1/1" xmlns:xsi="http://www.w3.org/2001/XMLSchema-instance" xsi:schemaLocation="http://www.topografix.com/GPX/1/1 http://www.topografix.com/GPX/1/1/gpx.xsd" version="1.1" creator="VisuGPX - https://www.visugpx.com">
  <metadata>
    <name>CDS j13</name>
    <desc><![CDATA[Chemin du soleil]]></desc>
  </metadata>
  <trk>
    <name><![CDATA[ACTIVE LOG071306]]></name>
    <trkseg>
      <trkpt lat="43.85783" lon="6.91489">
        <ele>619</ele>
        <time>2011-08-21T05:13:05Z</time>
      </trkpt>
      <trkpt lat="43.85783" lon="6.9149">
        <ele>619</ele>
        <time>2011-08-21T05:13:07Z</time>
      </trkpt>
      <trkpt lat="43.85781" lon="6.91494">
        <ele>619</ele>
        <time>2011-08-21T05:13:17Z</time>
      </trkpt>
      <trkpt lat="43.85777" lon="6.91495">
        <ele>618</ele>
        <time>2011-08-21T05:13:29Z</time>
      </trkpt>
      <trkpt lat="43.85772" lon="6.91487">
        <ele>617</ele>
        <time>2011-08-21T05:13:45Z</time>
      </trkpt>
      <trkpt lat="43.8577" lon="6.91473">
        <ele>616</ele>
        <time>2011-08-21T05:13:56Z</time>
      </trkpt>
      <trkpt lat="43.85764" lon="6.91473">
        <ele>616</ele>
        <time>2011-08-21T05:14:11Z</time>
      </trkpt>
      <trkpt lat="43.85765" lon="6.91476">
        <ele>616</ele>
        <time>2011-08-21T05:14:13Z</time>
      </trkpt>
      <trkpt lat="43.85737" lon="6.91526">
        <ele>613</ele>
        <time>2011-08-21T05:14:32Z</time>
      </trkpt>
      <trkpt lat="43.85738" lon="6.91528">
        <ele>613</ele>
        <time>2011-08-21T05:15:06Z</time>
      </trkpt>
      <trkpt lat="43.85701" lon="6.91552">
        <ele>609</ele>
        <time>2011-08-21T05:15:22Z</time>
      </trkpt>
      <trkpt lat="43.85689" lon="6.91565">
        <ele>608</ele>
        <time>2011-08-21T05:15:26Z</time>
      </trkpt>
      <trkpt lat="43.85669" lon="6.91631">
        <ele>628</ele>
        <time>2011-08-21T05:15:37Z</time>
      </trkpt>
      <trkpt lat="43.85649" lon="6.91654">
        <ele>611</ele>
        <time>2011-08-21T05:15:42Z</time>
      </trkpt>
      <trkpt lat="43.8562" lon="6.91666">
        <ele>602</ele>
        <time>2011-08-21T05:15:47Z</time>
      </trkpt>
      <trkpt lat="43.85603" lon="6.91703">
        <ele>612</ele>
        <time>2011-08-21T05:15:54Z</time>
      </trkpt>
      <trkpt lat="43.856" lon="6.91751">
        <ele>618</ele>
        <time>2011-08-21T05:16:00Z</time>
      </trkpt>
      <trkpt lat="43.85579" lon="6.91789">
        <ele>600</ele>
        <time>2011-08-21T05:16:06Z</time>
      </trkpt>
      <trkpt lat="43.85545" lon="6.91819">
        <ele>596</ele>
        <time>2011-08-21T05:16:13Z</time>
      </trkpt>
      <trkpt lat="43.85523" lon="6.91851">
        <ele>604</ele>
        <time>2011-08-21T05:16:19Z</time>
      </trkpt>
      <trkpt lat="43.85501" lon="6.91905">
        <ele>609</ele>
        <time>2011-08-21T05:16:27Z</time>
      </trkpt>
      <trkpt lat="43.85458" lon="6.91935">
        <ele>593</ele>
        <time>2011-08-21T05:16:37Z</time>
      </trkpt>
      <trkpt lat="43.8543" lon="6.91953">
        <ele>589</ele>
        <time>2011-08-21T05:16:46Z</time>
      </trkpt>
      <trkpt lat="43.85422" lon="6.91994">
        <ele>586</ele>
        <time>2011-08-21T05:16:53Z</time>
      </trkpt>
      <trkpt lat="43.85434" lon="6.92025">
        <ele>583</ele>
        <time>2011-08-21T05:16:59Z</time>
      </trkpt>
      <trkpt lat="43.85471" lon="6.92027">
        <ele>588</ele>
        <time>2011-08-21T05:17:06Z</time>
      </trkpt>
      <trkpt lat="43.85502" lon="6.92044">
        <ele>603</ele>
        <time>2011-08-21T05:17:11Z</time>
      </trkpt>
      <trkpt lat="43.85517" lon="6.9206">
        <ele>600</ele>
        <time>2011-08-21T05:17:14Z</time>
      </trkpt>
      <trkpt lat="43.85546" lon="6.9208">
        <ele>605</ele>
        <time>2011-08-21T05:17:19Z</time>
      </trkpt>
      <trkpt lat="43.85585" lon="6.92123">
        <ele>609</ele>
        <time>2011-08-21T05:17:26Z</time>
      </trkpt>
      <trkpt lat="43.85593" lon="6.92182">
        <ele>599</ele>
        <time>2011-08-21T05:17:34Z</time>
      </trkpt>
      <trkpt lat="43.85529" lon="6.92286">
        <ele>584</ele>
        <time>2011-08-21T05:17:50Z</time>
      </trkpt>
      <trkpt lat="43.8552" lon="6.92304">
        <ele>584</ele>
        <time>2011-08-21T05:17:59Z</time>
      </trkpt>
      <trkpt lat="43.85516" lon="6.92302">
        <ele>583</ele>
        <time>2011-08-21T05:18:31Z</time>
      </trkpt>
      <trkpt lat="43.8551" lon="6.92319">
        <ele>581</ele>
        <time>2011-08-21T05:18:54Z</time>
      </trkpt>
      <trkpt lat="43.85496" lon="6.92349">
        <ele>572</ele>
        <time>2011-08-21T05:19:11Z</time>
      </trkpt>
      <trkpt lat="43.85485" lon="6.92376">
        <ele>573</ele>
        <time>2011-08-21T05:19:25Z</time>
      </trkpt>
      <trkpt lat="43.85473" lon="6.92397">
        <ele>575</ele>
        <time>2011-08-21T05:19:37Z</time>
      </trkpt>
      <trkpt lat="43.8547" lon="6.92442">
        <ele>583</ele>
        <time>2011-08-21T05:19:55Z</time>
      </trkpt>
      <trkpt lat="43.85471" lon="6.92447">
        <ele>583</ele>
        <time>2011-08-21T05:19:57Z</time>
      </trkpt>
      <trkpt lat="43.85469" lon="6.92483">
        <ele>584</ele>
        <time>2011-08-21T05:20:08Z</time>
      </trkpt>
      <trkpt lat="43.85465" lon="6.92498">
        <ele>584</ele>
        <time>2011-08-21T05:20:14Z</time>
      </trkpt>
      <trkpt lat="43.85457" lon="6.92517">
        <ele>581</ele>
        <time>2011-08-21T05:20:23Z</time>
      </trkpt>
      <trkpt lat="43.85474" lon="6.92537">
        <ele>584</ele>
        <time>2011-08-21T05:20:32Z</time>
      </trkpt>
      <trkpt lat="43.8548" lon="6.92557">
        <ele>585</ele>
        <time>2011-08-21T05:20:36Z</time>
      </trkpt>
      <trkpt lat="43.85481" lon="6.92574">
        <ele>586</ele>
        <time>2011-08-21T05:20:39Z</time>
      </trkpt>
      <trkpt lat="43.85478" lon="6.9262">
        <ele>583</ele>
        <time>2011-08-21T05:20:52Z</time>
      </trkpt>
      <trkpt lat="43.85477" lon="6.92629">
        <ele>583</ele>
        <time>2011-08-21T05:20:55Z</time>
      </trkpt>
      <trkpt lat="43.85475" lon="6.92659">
        <ele>585</ele>
        <time>2011-08-21T05:21:09Z</time>
      </trkpt>
      <trkpt lat="43.85468" lon="6.92696">
        <ele>583</ele>
        <time>2011-08-21T05:21:23Z</time>
      </trkpt>
      <trkpt lat="43.85467" lon="6.92742">
        <ele>583</ele>
        <time>2011-08-21T05:21:39Z</time>
      </trkpt>
      <trkpt lat="43.85475" lon="6.9277">
        <ele>576</ele>
        <time>2011-08-21T05:21:50Z</time>
      </trkpt>
      <trkpt lat="43.85498" lon="6.92779">
        <ele>578</ele>
        <time>2011-08-21T05:22:05Z</time>
      </trkpt>
      <trkpt lat="43.85525" lon="6.92779">
        <ele>595</ele>
        <time>2011-08-21T05:22:16Z</time>
      </trkpt>
      <trkpt lat="43.85563" lon="6.928">
        <ele>595</ele>
        <time>2011-08-21T05:22:28Z</time>
      </trkpt>
      <trkpt lat="43.85598" lon="6.92837">
        <ele>583</ele>
        <time>2011-08-21T05:22:42Z</time>
      </trkpt>
      <trkpt lat="43.85641" lon="6.92869">
        <ele>580</ele>
        <time>2011-08-21T05:22:56Z</time>
      </trkpt>
      <trkpt lat="43.8567" lon="6.92869">
        <ele>600</ele>
        <time>2011-08-21T05:23:05Z</time>
      </trkpt>
      <trkpt lat="43.85691" lon="6.92892">
        <ele>595</ele>
        <time>2011-08-21T05:23:15Z</time>
      </trkpt>
      <trkpt lat="43.8571" lon="6.92916">
        <ele>596</ele>
        <time>2011-08-21T05:23:23Z</time>
      </trkpt>
      <trkpt lat="43.85728" lon="6.92961">
        <ele>573</ele>
        <time>2011-08-21T05:23:35Z</time>
      </trkpt>
      <trkpt lat="43.85733" lon="6.92998">
        <ele>570</ele>
        <time>2011-08-21T05:23:43Z</time>
      </trkpt>
      <trkpt lat="43.85757" lon="6.93024">
        <ele>571</ele>
        <time>2011-08-21T05:23:56Z</time>
      </trkpt>
      <trkpt lat="43.85788" lon="6.93042">
        <ele>571</ele>
        <time>2011-08-21T05:24:07Z</time>
      </trkpt>
      <trkpt lat="43.85805" lon="6.93045">
        <ele>573</ele>
        <time>2011-08-21T05:24:14Z</time>
      </trkpt>
      <trkpt lat="43.85825" lon="6.9305">
        <ele>574</ele>
        <time>2011-08-21T05:24:24Z</time>
      </trkpt>
      <trkpt lat="43.8583" lon="6.9306">
        <ele>573</ele>
        <time>2011-08-21T05:24:28Z</time>
      </trkpt>
      <trkpt lat="43.8584" lon="6.93103">
        <ele>576</ele>
        <time>2011-08-21T05:24:40Z</time>
      </trkpt>
      <trkpt lat="43.8584" lon="6.93115">
        <ele>577</ele>
        <time>2011-08-21T05:24:56Z</time>
      </trkpt>
      <trkpt lat="43.85844" lon="6.93154">
        <ele>569</ele>
        <time>2011-08-21T05:25:10Z</time>
      </trkpt>
      <trkpt lat="43.85856" lon="6.93189">
        <ele>563</ele>
        <time>2011-08-21T05:25:23Z</time>
      </trkpt>
      <trkpt lat="43.85882" lon="6.93226">
        <ele>564</ele>
        <time>2011-08-21T05:25:36Z</time>
      </trkpt>
      <trkpt lat="43.85894" lon="6.93246">
        <ele>566</ele>
        <time>2011-08-21T05:25:46Z</time>
      </trkpt>
      <trkpt lat="43.85917" lon="6.93291">
        <ele>555</ele>
        <time>2011-08-21T05:26:00Z</time>
      </trkpt>
      <trkpt lat="43.85922" lon="6.93301">
        <ele>553</ele>
        <time>2011-08-21T05:26:03Z</time>
      </trkpt>
      <trkpt lat="43.85952" lon="6.93323">
        <ele>551</ele>
        <time>2011-08-21T05:26:15Z</time>
      </trkpt>
      <trkpt lat="43.85984" lon="6.93324">
        <ele>550</ele>
        <time>2011-08-21T05:26:27Z</time>
      </trkpt>
      <trkpt lat="43.85987" lon="6.93313">
        <ele>551</ele>
        <time>2011-08-21T05:26:30Z</time>
      </trkpt>
      <trkpt lat="43.85998" lon="6.93304">
        <ele>553</ele>
        <time>2011-08-21T05:26:40Z</time>
      </trkpt>
      <trkpt lat="43.86" lon="6.93305">
        <ele>555</ele>
        <time>2011-08-21T05:26:48Z</time>
      </trkpt>
      <trkpt lat="43.86004" lon="6.93309">
        <ele>554</ele>
        <time>2011-08-21T05:26:51Z</time>
      </trkpt>
      <trkpt lat="43.86007" lon="6.93328">
        <ele>549</ele>
        <time>2011-08-21T05:26:56Z</time>
      </trkpt>
      <trkpt lat="43.86014" lon="6.93333">
        <ele>543</ele>
        <time>2011-08-21T05:27:01Z</time>
      </trkpt>
      <trkpt lat="43.86034" lon="6.93334">
        <ele>544</ele>
        <time>2011-08-21T05:27:07Z</time>
      </trkpt>
      <trkpt lat="43.86061" lon="6.93356">
        <ele>545</ele>
        <time>2011-08-21T05:27:17Z</time>
      </trkpt>
      <trkpt lat="43.86084" lon="6.93403">
        <ele>543</ele>
        <time>2011-08-21T05:27:35Z</time>
      </trkpt>
      <trkpt lat="43.86095" lon="6.93456">
        <ele>530</ele>
        <time>2011-08-21T05:27:50Z</time>
      </trkpt>
      <trkpt lat="43.86122" lon="6.93492">
        <ele>526</ele>
        <time>2011-08-21T05:28:02Z</time>
      </trkpt>
      <trkpt lat="43.86133" lon="6.93502">
        <ele>512</ele>
        <time>2011-08-21T05:28:07Z</time>
      </trkpt>
      <trkpt lat="43.86144" lon="6.935">
        <ele>513</ele>
        <time>2011-08-21T05:28:13Z</time>
      </trkpt>
      <trkpt lat="43.86153" lon="6.93499">
        <ele>522</ele>
        <time>2011-08-21T05:28:17Z</time>
      </trkpt>
      <trkpt lat="43.86162" lon="6.93494">
        <ele>520</ele>
        <time>2011-08-21T05:28:20Z</time>
      </trkpt>
      <trkpt lat="43.86171" lon="6.93483">
        <ele>523</ele>
        <time>2011-08-21T05:28:25Z</time>
      </trkpt>
      <trkpt lat="43.86184" lon="6.93466">
        <ele>527</ele>
        <time>2011-08-21T05:28:31Z</time>
      </trkpt>
      <trkpt lat="43.86188" lon="6.93462">
        <ele>528</ele>
        <time>2011-08-21T05:28:44Z</time>
      </trkpt>
      <trkpt lat="43.8619" lon="6.9345">
        <ele>530</ele>
        <time>2011-08-21T05:28:59Z</time>
      </trkpt>
      <trkpt lat="43.86193" lon="6.93454">
        <ele>529</ele>
        <time>2011-08-21T05:29:08Z</time>
      </trkpt>
      <trkpt lat="43.86195" lon="6.93456">
        <ele>529</ele>
        <time>2011-08-21T05:29:10Z</time>
      </trkpt>
      <trkpt lat="43.8621" lon="6.93446">
        <ele>530</ele>
        <time>2011-08-21T05:29:19Z</time>
      </trkpt>
      <trkpt lat="43.8622" lon="6.93448">
        <ele>530</ele>
        <time>2011-08-21T05:29:26Z</time>
      </trkpt>
      <trkpt lat="43.8625" lon="6.93488">
        <ele>522</ele>
        <time>2011-08-21T05:29:39Z</time>
      </trkpt>
      <trkpt lat="43.86255" lon="6.93505">
        <ele>520</ele>
        <time>2011-08-21T05:29:49Z</time>
      </trkpt>
      <trkpt lat="43.86267" lon="6.93537">
        <ele>521</ele>
        <time>2011-08-21T05:29:59Z</time>
      </trkpt>
      <trkpt lat="43.86291" lon="6.93571">
        <ele>522</ele>
        <time>2011-08-21T05:30:12Z</time>
      </trkpt>
      <trkpt lat="43.86296" lon="6.93574">
        <ele>523</ele>
        <time>2011-08-21T05:30:14Z</time>
      </trkpt>
      <trkpt lat="43.86305" lon="6.93573">
        <ele>525</ele>
        <time>2011-08-21T05:30:24Z</time>
      </trkpt>
      <trkpt lat="43.86307" lon="6.93579">
        <ele>526</ele>
        <time>2011-08-21T05:30:35Z</time>
      </trkpt>
      <trkpt lat="43.86312" lon="6.93617">
        <ele>516</ele>
        <time>2011-08-21T05:30:47Z</time>
      </trkpt>
      <trkpt lat="43.86311" lon="6.93642">
        <ele>514</ele>
        <time>2011-08-21T05:30:56Z</time>
      </trkpt>
      <trkpt lat="43.863" lon="6.93667">
        <ele>507</ele>
        <time>2011-08-21T05:31:05Z</time>
      </trkpt>
      <trkpt lat="43.86296" lon="6.93674">
        <ele>506</ele>
        <time>2011-08-21T05:31:09Z</time>
      </trkpt>
      <trkpt lat="43.86268" lon="6.93705">
        <ele>500</ele>
        <time>2011-08-21T05:31:25Z</time>
      </trkpt>
      <trkpt lat="43.86276" lon="6.9374">
        <ele>499</ele>
        <time>2011-08-21T05:31:35Z</time>
      </trkpt>
      <trkpt lat="43.86292" lon="6.93772">
        <ele>496</ele>
        <time>2011-08-21T05:31:48Z</time>
      </trkpt>
      <trkpt lat="43.86298" lon="6.9379">
        <ele>495</ele>
        <time>2011-08-21T05:31:53Z</time>
      </trkpt>
      <trkpt lat="43.86302" lon="6.93818">
        <ele>494</ele>
        <time>2011-08-21T05:32:02Z</time>
      </trkpt>
      <trkpt lat="43.86307" lon="6.93846">
        <ele>485</ele>
        <time>2011-08-21T05:32:12Z</time>
      </trkpt>
      <trkpt lat="43.86309" lon="6.93854">
        <ele>484</ele>
        <time>2011-08-21T05:32:17Z</time>
      </trkpt>
      <trkpt lat="43.86319" lon="6.93854">
        <ele>486</ele>
        <time>2011-08-21T05:32:22Z</time>
      </trkpt>
      <trkpt lat="43.86328" lon="6.93855">
        <ele>487</ele>
        <time>2011-08-21T05:32:25Z</time>
      </trkpt>
      <trkpt lat="43.86334" lon="6.93849">
        <ele>498</ele>
        <time>2011-08-21T05:32:35Z</time>
      </trkpt>
      <trkpt lat="43.86334" lon="6.93849">
        <ele>498</ele>
        <time>2011-08-21T05:32:38Z</time>
      </trkpt>
      <trkpt lat="43.86337" lon="6.93859">
        <ele>498</ele>
        <time>2011-08-21T05:32:43Z</time>
      </trkpt>
      <trkpt lat="43.86338" lon="6.93891">
        <ele>493</ele>
        <time>2011-08-21T05:32:52Z</time>
      </trkpt>
      <trkpt lat="43.86334" lon="6.93928">
        <ele>484</ele>
        <time>2011-08-21T05:33:01Z</time>
      </trkpt>
      <trkpt lat="43.86321" lon="6.93945">
        <ele>470</ele>
        <time>2011-08-21T05:33:07Z</time>
      </trkpt>
      <trkpt lat="43.86321" lon="6.93998">
        <ele>469</ele>
        <time>2011-08-21T05:33:18Z</time>
      </trkpt>
      <trkpt lat="43.86322" lon="6.94011">
        <ele>466</ele>
        <time>2011-08-21T05:33:20Z</time>
      </trkpt>
      <trkpt lat="43.86317" lon="6.94036">
        <ele>461</ele>
        <time>2011-08-21T05:33:24Z</time>
      </trkpt>
      <trkpt lat="43.86317" lon="6.94064">
        <ele>462</ele>
        <time>2011-08-21T05:33:28Z</time>
      </trkpt>
      <trkpt lat="43.86317" lon="6.94085">
        <ele>463</ele>
        <time>2011-08-21T05:33:31Z</time>
      </trkpt>
      <trkpt lat="43.8632" lon="6.94108">
        <ele>461</ele>
        <time>2011-08-21T05:33:35Z</time>
      </trkpt>
      <trkpt lat="43.86316" lon="6.94124">
        <ele>459</ele>
        <time>2011-08-21T05:33:39Z</time>
      </trkpt>
      <trkpt lat="43.8631" lon="6.94142">
        <ele>459</ele>
        <time>2011-08-21T05:33:56Z</time>
      </trkpt>
      <trkpt lat="43.86304" lon="6.94153">
        <ele>458</ele>
        <time>2011-08-21T05:37:59Z</time>
      </trkpt>
      <trkpt lat="43.86299" lon="6.94165">
        <ele>457</ele>
        <time>2011-08-21T05:38:02Z</time>
      </trkpt>
      <trkpt lat="43.863" lon="6.94224">
        <ele>454</ele>
        <time>2011-08-21T05:38:09Z</time>
      </trkpt>
      <trkpt lat="43.8628" lon="6.94273">
        <ele>449</ele>
        <time>2011-08-21T05:38:15Z</time>
      </trkpt>
      <trkpt lat="43.8622" lon="6.94332">
        <ele>433</ele>
        <time>2011-08-21T05:38:27Z</time>
      </trkpt>
      <trkpt lat="43.86217" lon="6.94335">
        <ele>432</ele>
        <time>2011-08-21T05:38:28Z</time>
      </trkpt>
      <trkpt lat="43.86209" lon="6.94385">
        <ele>429</ele>
        <time>2011-08-21T05:38:37Z</time>
      </trkpt>
      <trkpt lat="43.86225" lon="6.94398">
        <ele>430</ele>
        <time>2011-08-21T05:38:42Z</time>
      </trkpt>
      <trkpt lat="43.86234" lon="6.94402">
        <ele>431</ele>
        <time>2011-08-21T05:38:44Z</time>
      </trkpt>
      <trkpt lat="43.86256" lon="6.94408">
        <ele>435</ele>
        <time>2011-08-21T05:38:48Z</time>
      </trkpt>
      <trkpt lat="43.86298" lon="6.94435">
        <ele>426</ele>
        <time>2011-08-21T05:38:56Z</time>
      </trkpt>
      <trkpt lat="43.86326" lon="6.94432">
        <ele>426</ele>
        <time>2011-08-21T05:39:01Z</time>
      </trkpt>
      <trkpt lat="43.86344" lon="6.94418">
        <ele>425</ele>
        <time>2011-08-21T05:39:04Z</time>
      </trkpt>
      <trkpt lat="43.86374" lon="6.94378">
        <ele>433</ele>
        <time>2011-08-21T05:39:09Z</time>
      </trkpt>
      <trkpt lat="43.86385" lon="6.94348">
        <ele>435</ele>
        <time>2011-08-21T05:39:12Z</time>
      </trkpt>
      <trkpt lat="43.86403" lon="6.94349">
        <ele>434</ele>
        <time>2011-08-21T05:39:17Z</time>
      </trkpt>
      <trkpt lat="43.86407" lon="6.94366">
        <ele>432</ele>
        <time>2011-08-21T05:39:19Z</time>
      </trkpt>
      <trkpt lat="43.86428" lon="6.94405">
        <ele>424</ele>
        <time>2011-08-21T05:39:24Z</time>
      </trkpt>
      <trkpt lat="43.86438" lon="6.94451">
        <ele>425</ele>
        <time>2011-08-21T05:39:30Z</time>
      </trkpt>
      <trkpt lat="43.86426" lon="6.94464">
        <ele>424</ele>
        <time>2011-08-21T05:39:32Z</time>
      </trkpt>
      <trkpt lat="43.86413" lon="6.94474">
        <ele>417</ele>
        <time>2011-08-21T05:39:34Z</time>
      </trkpt>
      <trkpt lat="43.86385" lon="6.94515">
        <ele>410</ele>
        <time>2011-08-21T05:39:40Z</time>
      </trkpt>
      <trkpt lat="43.86392" lon="6.94547">
        <ele>407</ele>
        <time>2011-08-21T05:39:48Z</time>
      </trkpt>
      <trkpt lat="43.86401" lon="6.94552">
        <ele>407</ele>
        <time>2011-08-21T05:39:53Z</time>
      </trkpt>
      <trkpt lat="43.86403" lon="6.94553">
        <ele>407</ele>
        <time>2011-08-21T05:40:16Z</time>
      </trkpt>
      <trkpt lat="43.86424" lon="6.94555">
        <ele>418</ele>
        <time>2011-08-21T05:41:57Z</time>
      </trkpt>
      <trkpt lat="43.86449" lon="6.94574">
        <ele>420</ele>
        <time>2011-08-21T05:42:04Z</time>
      </trkpt>
      <trkpt lat="43.86462" lon="6.94599">
        <ele>414</ele>
        <time>2011-08-21T05:42:09Z</time>
      </trkpt>
      <trkpt lat="43.86499" lon="6.94706">
        <ele>402</ele>
        <time>2011-08-21T05:42:28Z</time>
      </trkpt>
      <trkpt lat="43.86502" lon="6.94718">
        <ele>422</ele>
        <time>2011-08-21T05:42:30Z</time>
      </trkpt>
      <trkpt lat="43.86503" lon="6.94746">
        <ele>407</ele>
        <time>2011-08-21T05:42:34Z</time>
      </trkpt>
      <trkpt lat="43.865" lon="6.94769">
        <ele>396</ele>
        <time>2011-08-21T05:42:37Z</time>
      </trkpt>
      <trkpt lat="43.86513" lon="6.94884">
        <ele>401</ele>
        <time>2011-08-21T05:42:53Z</time>
      </trkpt>
      <trkpt lat="43.86521" lon="6.94923">
        <ele>393</ele>
        <time>2011-08-21T05:43:04Z</time>
      </trkpt>
      <trkpt lat="43.86525" lon="6.9494">
        <ele>394</ele>
        <time>2011-08-21T05:43:15Z</time>
      </trkpt>
      <trkpt lat="43.86526" lon="6.9497">
        <ele>393</ele>
        <time>2011-08-21T05:43:26Z</time>
      </trkpt>
      <trkpt lat="43.86521" lon="6.94979">
        <ele>391</ele>
        <time>2011-08-21T05:43:31Z</time>
      </trkpt>
      <trkpt lat="43.86526" lon="6.95013">
        <ele>386</ele>
        <time>2011-08-21T05:43:40Z</time>
      </trkpt>
      <trkpt lat="43.86536" lon="6.9502">
        <ele>387</ele>
        <time>2011-08-21T05:43:49Z</time>
      </trkpt>
      <trkpt lat="43.86533" lon="6.95026">
        <ele>387</ele>
        <time>2011-08-21T05:43:51Z</time>
      </trkpt>
      <trkpt lat="43.86536" lon="6.9506">
        <ele>386</ele>
        <time>2011-08-21T05:44:03Z</time>
      </trkpt>
      <trkpt lat="43.86534" lon="6.95086">
        <ele>384</ele>
        <time>2011-08-21T05:44:19Z</time>
      </trkpt>
      <trkpt lat="43.86551" lon="6.95142">
        <ele>388</ele>
        <time>2011-08-21T05:44:33Z</time>
      </trkpt>
      <trkpt lat="43.8658" lon="6.95206">
        <ele>390</ele>
        <time>2011-08-21T05:44:50Z</time>
      </trkpt>
      <trkpt lat="43.86604" lon="6.95258">
        <ele>398</ele>
        <time>2011-08-21T05:45:05Z</time>
      </trkpt>
      <trkpt lat="43.86614" lon="6.95315">
        <ele>397</ele>
        <time>2011-08-21T05:45:14Z</time>
      </trkpt>
      <trkpt lat="43.8661" lon="6.95394">
        <ele>388</ele>
        <time>2011-08-21T05:45:23Z</time>
      </trkpt>
      <trkpt lat="43.86617" lon="6.9544">
        <ele>386</ele>
        <time>2011-08-21T05:45:29Z</time>
      </trkpt>
      <trkpt lat="43.8662" lon="6.95463">
        <ele>386</ele>
        <time>2011-08-21T05:45:32Z</time>
      </trkpt>
      <trkpt lat="43.86617" lon="6.95515">
        <ele>385</ele>
        <time>2011-08-21T05:45:39Z</time>
      </trkpt>
      <trkpt lat="43.86591" lon="6.95583">
        <ele>381</ele>
        <time>2011-08-21T05:45:50Z</time>
      </trkpt>
      <trkpt lat="43.86567" lon="6.95617">
        <ele>379</ele>
        <time>2011-08-21T05:45:57Z</time>
      </trkpt>
      <trkpt lat="43.86514" lon="6.95642">
        <ele>378</ele>
        <time>2011-08-21T05:46:10Z</time>
      </trkpt>
      <trkpt lat="43.86505" lon="6.95665">
        <ele>376</ele>
        <time>2011-08-21T05:46:17Z</time>
      </trkpt>
      <trkpt lat="43.86535" lon="6.95778">
        <ele>378</ele>
        <time>2011-08-21T05:46:35Z</time>
      </trkpt>
      <trkpt lat="43.86545" lon="6.9585">
        <ele>381</ele>
        <time>2011-08-21T05:46:46Z</time>
      </trkpt>
      <trkpt lat="43.86562" lon="6.95917">
        <ele>384</ele>
        <time>2011-08-21T05:46:57Z</time>
      </trkpt>
      <trkpt lat="43.86562" lon="6.95979">
        <ele>381</ele>
        <time>2011-08-21T05:47:09Z</time>
      </trkpt>
      <trkpt lat="43.8654" lon="6.95988">
        <ele>380</ele>
        <time>2011-08-21T05:47:15Z</time>
      </trkpt>
      <trkpt lat="43.86527" lon="6.95994">
        <ele>380</ele>
        <time>2011-08-21T05:47:18Z</time>
      </trkpt>
      <trkpt lat="43.86525" lon="6.96018">
        <ele>380</ele>
        <time>2011-08-21T05:47:23Z</time>
      </trkpt>
      <trkpt lat="43.86533" lon="6.96077">
        <ele>382</ele>
        <time>2011-08-21T05:47:35Z</time>
      </trkpt>
      <trkpt lat="43.86541" lon="6.96096">
        <ele>383</ele>
        <time>2011-08-21T05:47:41Z</time>
      </trkpt>
      <trkpt lat="43.8655" lon="6.96101">
        <ele>382</ele>
        <time>2011-08-21T05:47:47Z</time>
      </trkpt>
      <trkpt lat="43.86545" lon="6.96106">
        <ele>383</ele>
        <time>2011-08-21T05:47:56Z</time>
      </trkpt>
      <trkpt lat="43.86546" lon="6.96115">
        <ele>383</ele>
        <time>2011-08-21T05:48:08Z</time>
      </trkpt>
      <trkpt lat="43.86552" lon="6.96135">
        <ele>383</ele>
        <time>2011-08-21T05:48:36Z</time>
      </trkpt>
      <trkpt lat="43.86552" lon="6.96139">
        <ele>383</ele>
        <time>2011-08-21T05:48:46Z</time>
      </trkpt>
      <trkpt lat="43.86545" lon="6.9618">
        <ele>386</ele>
        <time>2011-08-21T05:49:02Z</time>
      </trkpt>
      <trkpt lat="43.86519" lon="6.96209">
        <ele>389</ele>
        <time>2011-08-21T05:49:21Z</time>
      </trkpt>
      <trkpt lat="43.86503" lon="6.96223">
        <ele>392</ele>
        <time>2011-08-21T05:49:35Z</time>
      </trkpt>
      <trkpt lat="43.86496" lon="6.96232">
        <ele>401</ele>
        <time>2011-08-21T05:49:48Z</time>
      </trkpt>
      <trkpt lat="43.86487" lon="6.96241">
        <ele>401</ele>
        <time>2011-08-21T05:50:03Z</time>
      </trkpt>
      <trkpt lat="43.86479" lon="6.96251">
        <ele>407</ele>
        <time>2011-08-21T05:50:21Z</time>
      </trkpt>
      <trkpt lat="43.86471" lon="6.96262">
        <ele>409</ele>
        <time>2011-08-21T05:50:44Z</time>
      </trkpt>
      <trkpt lat="43.86461" lon="6.96273">
        <ele>411</ele>
        <time>2011-08-21T05:51:02Z</time>
      </trkpt>
      <trkpt lat="43.86453" lon="6.96279">
        <ele>412</ele>
        <time>2011-08-21T05:51:17Z</time>
      </trkpt>
      <trkpt lat="43.8644" lon="6.9628">
        <ele>413</ele>
        <time>2011-08-21T05:51:36Z</time>
      </trkpt>
      <trkpt lat="43.86429" lon="6.96281">
        <ele>414</ele>
        <time>2011-08-21T05:51:57Z</time>
      </trkpt>
      <trkpt lat="43.86422" lon="6.96293">
        <ele>416</ele>
        <time>2011-08-21T05:52:13Z</time>
      </trkpt>
      <trkpt lat="43.86426" lon="6.96305">
        <ele>417</ele>
        <time>2011-08-21T05:52:29Z</time>
      </trkpt>
      <trkpt lat="43.86415" lon="6.96316">
        <ele>427</ele>
        <time>2011-08-21T05:52:48Z</time>
      </trkpt>
      <trkpt lat="43.86404" lon="6.96329">
        <ele>428</ele>
        <time>2011-08-21T05:53:07Z</time>
      </trkpt>
      <trkpt lat="43.86388" lon="6.96337">
        <ele>436</ele>
        <time>2011-08-21T05:53:26Z</time>
      </trkpt>
      <trkpt lat="43.86377" lon="6.96348">
        <ele>439</ele>
        <time>2011-08-21T05:53:44Z</time>
      </trkpt>
      <trkpt lat="43.86363" lon="6.96355">
        <ele>440</ele>
        <time>2011-08-21T05:54:03Z</time>
      </trkpt>
      <trkpt lat="43.86344" lon="6.96356">
        <ele>442</ele>
        <time>2011-08-21T05:54:24Z</time>
      </trkpt>
      <trkpt lat="43.86332" lon="6.96345">
        <ele>454</ele>
        <time>2011-08-21T05:54:42Z</time>
      </trkpt>
      <trkpt lat="43.86324" lon="6.96349">
        <ele>459</ele>
        <time>2011-08-21T05:54:57Z</time>
      </trkpt>
      <trkpt lat="43.86324" lon="6.96352">
        <ele>460</ele>
        <time>2011-08-21T05:55:00Z</time>
      </trkpt>
      <trkpt lat="43.86323" lon="6.96367">
        <ele>465</ele>
        <time>2011-08-21T05:55:15Z</time>
      </trkpt>
      <trkpt lat="43.86323" lon="6.96376">
        <ele>466</ele>
        <time>2011-08-21T05:55:20Z</time>
      </trkpt>
      <trkpt lat="43.8632" lon="6.96383">
        <ele>467</ele>
        <time>2011-08-21T05:55:24Z</time>
      </trkpt>
      <trkpt lat="43.86318" lon="6.96399">
        <ele>466</ele>
        <time>2011-08-21T05:55:33Z</time>
      </trkpt>
      <trkpt lat="43.86318" lon="6.96416">
        <ele>464</ele>
        <time>2011-08-21T05:55:41Z</time>
      </trkpt>
      <trkpt lat="43.86326" lon="6.96454">
        <ele>472</ele>
        <time>2011-08-21T05:55:55Z</time>
      </trkpt>
      <trkpt lat="43.86326" lon="6.9649">
        <ele>468</ele>
        <time>2011-08-21T05:56:07Z</time>
      </trkpt>
      <trkpt lat="43.86314" lon="6.96524">
        <ele>477</ele>
        <time>2011-08-21T05:56:18Z</time>
      </trkpt>
      <trkpt lat="43.86299" lon="6.96543">
        <ele>482</ele>
        <time>2011-08-21T05:56:28Z</time>
      </trkpt>
      <trkpt lat="43.86299" lon="6.96558">
        <ele>482</ele>
        <time>2011-08-21T05:56:33Z</time>
      </trkpt>
      <trkpt lat="43.86304" lon="6.96567">
        <ele>480</ele>
        <time>2011-08-21T05:56:38Z</time>
      </trkpt>
      <trkpt lat="43.86311" lon="6.96584">
        <ele>479</ele>
        <time>2011-08-21T05:56:46Z</time>
      </trkpt>
      <trkpt lat="43.86313" lon="6.96586">
        <ele>478</ele>
        <time>2011-08-21T05:56:48Z</time>
      </trkpt>
      <trkpt lat="43.86314" lon="6.96607">
        <ele>481</ele>
        <time>2011-08-21T05:56:58Z</time>
      </trkpt>
      <trkpt lat="43.86312" lon="6.96612">
        <ele>482</ele>
        <time>2011-08-21T05:57:01Z</time>
      </trkpt>
      <trkpt lat="43.8631" lon="6.96619">
        <ele>483</ele>
        <time>2011-08-21T05:57:04Z</time>
      </trkpt>
      <trkpt lat="43.86296" lon="6.96655">
        <ele>487</ele>
        <time>2011-08-21T05:57:13Z</time>
      </trkpt>
      <trkpt lat="43.86302" lon="6.96663">
        <ele>485</ele>
        <time>2011-08-21T05:57:17Z</time>
      </trkpt>
      <trkpt lat="43.86318" lon="6.96676">
        <ele>483</ele>
        <time>2011-08-21T05:57:28Z</time>
      </trkpt>
      <trkpt lat="43.86324" lon="6.96692">
        <ele>487</ele>
        <time>2011-08-21T05:57:35Z</time>
      </trkpt>
      <trkpt lat="43.86328" lon="6.9671">
        <ele>490</ele>
        <time>2011-08-21T05:57:45Z</time>
      </trkpt>
      <trkpt lat="43.86333" lon="6.96748">
        <ele>482</ele>
        <time>2011-08-21T05:57:59Z</time>
      </trkpt>
      <trkpt lat="43.86339" lon="6.96789">
        <ele>468</ele>
        <time>2011-08-21T05:58:12Z</time>
      </trkpt>
      <trkpt lat="43.86338" lon="6.96837">
        <ele>484</ele>
        <time>2011-08-21T05:58:25Z</time>
      </trkpt>
      <trkpt lat="43.86329" lon="6.9686">
        <ele>508</ele>
        <time>2011-08-21T05:58:33Z</time>
      </trkpt>
      <trkpt lat="43.8633" lon="6.96864">
        <ele>509</ele>
        <time>2011-08-21T05:58:35Z</time>
      </trkpt>
      <trkpt lat="43.86343" lon="6.96874">
        <ele>474</ele>
        <time>2011-08-21T05:58:41Z</time>
      </trkpt>
      <trkpt lat="43.86354" lon="6.96893">
        <ele>474</ele>
        <time>2011-08-21T05:58:50Z</time>
      </trkpt>
      <trkpt lat="43.8636" lon="6.9692">
        <ele>476</ele>
        <time>2011-08-21T05:59:03Z</time>
      </trkpt>
      <trkpt lat="43.86358" lon="6.9694">
        <ele>474</ele>
        <time>2011-08-21T05:59:14Z</time>
      </trkpt>
      <trkpt lat="43.86348" lon="6.96992">
        <ele>481</ele>
        <time>2011-08-21T05:59:32Z</time>
      </trkpt>
      <trkpt lat="43.8634" lon="6.97012">
        <ele>485</ele>
        <time>2011-08-21T05:59:36Z</time>
      </trkpt>
      <trkpt lat="43.86334" lon="6.97048">
        <ele>482</ele>
        <time>2011-08-21T05:59:42Z</time>
      </trkpt>
      <trkpt lat="43.86327" lon="6.97062">
        <ele>514</ele>
        <time>2011-08-21T05:59:45Z</time>
      </trkpt>
      <trkpt lat="43.86324" lon="6.97071">
        <ele>511</ele>
        <time>2011-08-21T05:59:52Z</time>
      </trkpt>
      <trkpt lat="43.86326" lon="6.9708">
        <ele>505</ele>
        <time>2011-08-21T06:00:12Z</time>
      </trkpt>
      <trkpt lat="43.86335" lon="6.97082">
        <ele>495</ele>
        <time>2011-08-21T06:00:26Z</time>
      </trkpt>
      <trkpt lat="43.86338" lon="6.97083">
        <ele>493</ele>
        <time>2011-08-21T06:00:28Z</time>
      </trkpt>
      <trkpt lat="43.86365" lon="6.97091">
        <ele>489</ele>
        <time>2011-08-21T06:00:44Z</time>
      </trkpt>
      <trkpt lat="43.86391" lon="6.97108">
        <ele>483</ele>
        <time>2011-08-21T06:01:03Z</time>
      </trkpt>
      <trkpt lat="43.86408" lon="6.97137">
        <ele>486</ele>
        <time>2011-08-21T06:01:20Z</time>
      </trkpt>
      <trkpt lat="43.86419" lon="6.97165">
        <ele>479</ele>
        <time>2011-08-21T06:01:33Z</time>
      </trkpt>
      <trkpt lat="43.86426" lon="6.97185">
        <ele>476</ele>
        <time>2011-08-21T06:01:44Z</time>
      </trkpt>
      <trkpt lat="43.86433" lon="6.9721">
        <ele>476</ele>
        <time>2011-08-21T06:01:55Z</time>
      </trkpt>
      <trkpt lat="43.86439" lon="6.9722">
        <ele>477</ele>
        <time>2011-08-21T06:02:00Z</time>
      </trkpt>
      <trkpt lat="43.86443" lon="6.97238">
        <ele>480</ele>
        <time>2011-08-21T06:02:11Z</time>
      </trkpt>
      <trkpt lat="43.86444" lon="6.97239">
        <ele>479</ele>
        <time>2011-08-21T06:02:13Z</time>
      </trkpt>
      <trkpt lat="43.86448" lon="6.97257">
        <ele>490</ele>
        <time>2011-08-21T06:02:24Z</time>
      </trkpt>
      <trkpt lat="43.86462" lon="6.97287">
        <ele>487</ele>
        <time>2011-08-21T06:02:35Z</time>
      </trkpt>
      <trkpt lat="43.86471" lon="6.97314">
        <ele>487</ele>
        <time>2011-08-21T06:02:47Z</time>
      </trkpt>
      <trkpt lat="43.86477" lon="6.97347">
        <ele>496</ele>
        <time>2011-08-21T06:03:00Z</time>
      </trkpt>
      <trkpt lat="43.86483" lon="6.97373">
        <ele>499</ele>
        <time>2011-08-21T06:03:11Z</time>
      </trkpt>
      <trkpt lat="43.86485" lon="6.97403">
        <ele>499</ele>
        <time>2011-08-21T06:03:20Z</time>
      </trkpt>
      <trkpt lat="43.86496" lon="6.97425">
        <ele>498</ele>
        <time>2011-08-21T06:03:29Z</time>
      </trkpt>
      <trkpt lat="43.865" lon="6.97439">
        <ele>503</ele>
        <time>2011-08-21T06:03:34Z</time>
      </trkpt>
      <trkpt lat="43.865" lon="6.97447">
        <ele>505</ele>
        <time>2011-08-21T06:03:36Z</time>
      </trkpt>
      <trkpt lat="43.86483" lon="6.97477">
        <ele>508</ele>
        <time>2011-08-21T06:03:49Z</time>
      </trkpt>
      <trkpt lat="43.86481" lon="6.97484">
        <ele>508</ele>
        <time>2011-08-21T06:03:52Z</time>
      </trkpt>
      <trkpt lat="43.86487" lon="6.9749">
        <ele>504</ele>
        <time>2011-08-21T06:04:00Z</time>
      </trkpt>
      <trkpt lat="43.86503" lon="6.97496">
        <ele>491</ele>
        <time>2011-08-21T06:04:11Z</time>
      </trkpt>
      <trkpt lat="43.86509" lon="6.97501">
        <ele>490</ele>
        <time>2011-08-21T06:04:14Z</time>
      </trkpt>
      <trkpt lat="43.86512" lon="6.9751">
        <ele>488</ele>
        <time>2011-08-21T06:04:17Z</time>
      </trkpt>
      <trkpt lat="43.8652" lon="6.97525">
        <ele>486</ele>
        <time>2011-08-21T06:04:22Z</time>
      </trkpt>
      <trkpt lat="43.86523" lon="6.97541">
        <ele>486</ele>
        <time>2011-08-21T06:04:26Z</time>
      </trkpt>
      <trkpt lat="43.86524" lon="6.97566">
        <ele>489</ele>
        <time>2011-08-21T06:04:31Z</time>
      </trkpt>
      <trkpt lat="43.86556" lon="6.97589">
        <ele>490</ele>
        <time>2011-08-21T06:04:44Z</time>
      </trkpt>
      <trkpt lat="43.86571" lon="6.97605">
        <ele>488</ele>
        <time>2011-08-21T06:04:53Z</time>
      </trkpt>
      <trkpt lat="43.86598" lon="6.97655">
        <ele>478</ele>
        <time>2011-08-21T06:05:08Z</time>
      </trkpt>
      <trkpt lat="43.86614" lon="6.97683">
        <ele>487</ele>
        <time>2011-08-21T06:05:17Z</time>
      </trkpt>
      <trkpt lat="43.8664" lon="6.97731">
        <ele>485</ele>
        <time>2011-08-21T06:05:28Z</time>
      </trkpt>
      <trkpt lat="43.86652" lon="6.97752">
        <ele>489</ele>
        <time>2011-08-21T06:05:32Z</time>
      </trkpt>
      <trkpt lat="43.8666" lon="6.97776">
        <ele>496</ele>
        <time>2011-08-21T06:05:36Z</time>
      </trkpt>
      <trkpt lat="43.86659" lon="6.97787">
        <ele>500</ele>
        <time>2011-08-21T06:05:38Z</time>
      </trkpt>
      <trkpt lat="43.86671" lon="6.97812">
        <ele>475</ele>
        <time>2011-08-21T06:05:44Z</time>
      </trkpt>
      <trkpt lat="43.86677" lon="6.97829">
        <ele>481</ele>
        <time>2011-08-21T06:05:47Z</time>
      </trkpt>
      <trkpt lat="43.86688" lon="6.9785">
        <ele>484</ele>
        <time>2011-08-21T06:05:52Z</time>
      </trkpt>
      <trkpt lat="43.86712" lon="6.97879">
        <ele>480</ele>
        <time>2011-08-21T06:06:01Z</time>
      </trkpt>
      <trkpt lat="43.86731" lon="6.97916">
        <ele>476</ele>
        <time>2011-08-21T06:06:11Z</time>
      </trkpt>
      <trkpt lat="43.8676" lon="6.9797">
        <ele>466</ele>
        <time>2011-08-21T06:06:23Z</time>
      </trkpt>
      <trkpt lat="43.86763" lon="6.97979">
        <ele>468</ele>
        <time>2011-08-21T06:06:25Z</time>
      </trkpt>
      <trkpt lat="43.8677" lon="6.98023">
        <ele>479</ele>
        <time>2011-08-21T06:06:34Z</time>
      </trkpt>
      <trkpt lat="43.86796" lon="6.98078">
        <ele>476</ele>
        <time>2011-08-21T06:06:49Z</time>
      </trkpt>
      <trkpt lat="43.86808" lon="6.98114">
        <ele>485</ele>
        <time>2011-08-21T06:07:01Z</time>
      </trkpt>
      <trkpt lat="43.86825" lon="6.98152">
        <ele>482</ele>
        <time>2011-08-21T06:07:12Z</time>
      </trkpt>
      <trkpt lat="43.86818" lon="6.98192">
        <ele>491</ele>
        <time>2011-08-21T06:07:24Z</time>
      </trkpt>
      <trkpt lat="43.86817" lon="6.98194">
        <ele>492</ele>
        <time>2011-08-21T06:07:25Z</time>
      </trkpt>
      <trkpt lat="43.86824" lon="6.98213">
        <ele>491</ele>
        <time>2011-08-21T06:07:31Z</time>
      </trkpt>
      <trkpt lat="43.86827" lon="6.98242">
        <ele>483</ele>
        <time>2011-08-21T06:07:38Z</time>
      </trkpt>
      <trkpt lat="43.86827" lon="6.98252">
        <ele>478</ele>
        <time>2011-08-21T06:07:40Z</time>
      </trkpt>
      <trkpt lat="43.86811" lon="6.98269">
        <ele>487</ele>
        <time>2011-08-21T06:07:50Z</time>
      </trkpt>
      <trkpt lat="43.86813" lon="6.98273">
        <ele>487</ele>
        <time>2011-08-21T06:07:59Z</time>
      </trkpt>
      <trkpt lat="43.86812" lon="6.98274">
        <ele>487</ele>
        <time>2011-08-21T06:08:14Z</time>
      </trkpt>
      <trkpt lat="43.8682" lon="6.98292">
        <ele>485</ele>
        <time>2011-08-21T06:08:21Z</time>
      </trkpt>
      <trkpt lat="43.86819" lon="6.98298">
        <ele>485</ele>
        <time>2011-08-21T06:08:23Z</time>
      </trkpt>
      <trkpt lat="43.86821" lon="6.98314">
        <ele>481</ele>
        <time>2011-08-21T06:08:27Z</time>
      </trkpt>
      <trkpt lat="43.86823" lon="6.98326">
        <ele>477</ele>
        <time>2011-08-21T06:08:30Z</time>
      </trkpt>
      <trkpt lat="43.86818" lon="6.98357">
        <ele>470</ele>
        <time>2011-08-21T06:08:35Z</time>
      </trkpt>
      <trkpt lat="43.86809" lon="6.98391">
        <ele>466</ele>
        <time>2011-08-21T06:08:42Z</time>
      </trkpt>
      <trkpt lat="43.86817" lon="6.98384">
        <ele>466</ele>
        <time>2011-08-21T06:08:49Z</time>
      </trkpt>
      <trkpt lat="43.8682" lon="6.98389">
        <ele>464</ele>
        <time>2011-08-21T06:08:53Z</time>
      </trkpt>
      <trkpt lat="43.86812" lon="6.98426">
        <ele>447</ele>
        <time>2011-08-21T06:09:03Z</time>
      </trkpt>
      <trkpt lat="43.86809" lon="6.98432">
        <ele>447</ele>
        <time>2011-08-21T06:09:05Z</time>
      </trkpt>
      <trkpt lat="43.86815" lon="6.98433">
        <ele>446</ele>
        <time>2011-08-21T06:09:10Z</time>
      </trkpt>
      <trkpt lat="43.86828" lon="6.98416">
        <ele>452</ele>
        <time>2011-08-21T06:09:16Z</time>
      </trkpt>
      <trkpt lat="43.86831" lon="6.98424">
        <ele>447</ele>
        <time>2011-08-21T06:09:20Z</time>
      </trkpt>
      <trkpt lat="43.86821" lon="6.98454">
        <ele>443</ele>
        <time>2011-08-21T06:09:26Z</time>
      </trkpt>
      <trkpt lat="43.86812" lon="6.98471">
        <ele>441</ele>
        <time>2011-08-21T06:09:31Z</time>
      </trkpt>
      <trkpt lat="43.86815" lon="6.98476">
        <ele>439</ele>
        <time>2011-08-21T06:09:36Z</time>
      </trkpt>
      <trkpt lat="43.86825" lon="6.98468">
        <ele>440</ele>
        <time>2011-08-21T06:09:39Z</time>
      </trkpt>
      <trkpt lat="43.8684" lon="6.9845">
        <ele>431</ele>
        <time>2011-08-21T06:09:45Z</time>
      </trkpt>
      <trkpt lat="43.86844" lon="6.98454">
        <ele>430</ele>
        <time>2011-08-21T06:09:49Z</time>
      </trkpt>
      <trkpt lat="43.86825" lon="6.98509">
        <ele>423</ele>
        <time>2011-08-21T06:09:59Z</time>
      </trkpt>
      <trkpt lat="43.86819" lon="6.9853">
        <ele>418</ele>
        <time>2011-08-21T06:10:06Z</time>
      </trkpt>
      <trkpt lat="43.86822" lon="6.98528">
        <ele>419</ele>
        <time>2011-08-21T06:10:08Z</time>
      </trkpt>
      <trkpt lat="43.86853" lon="6.98501">
        <ele>417</ele>
        <time>2011-08-21T06:10:19Z</time>
      </trkpt>
      <trkpt lat="43.86864" lon="6.9849">
        <ele>424</ele>
        <time>2011-08-21T06:10:23Z</time>
      </trkpt>
      <trkpt lat="43.86867" lon="6.98489">
        <ele>424</ele>
        <time>2011-08-21T06:10:26Z</time>
      </trkpt>
      <trkpt lat="43.8686" lon="6.98514">
        <ele>413</ele>
        <time>2011-08-21T06:10:34Z</time>
      </trkpt>
      <trkpt lat="43.86868" lon="6.98517">
        <ele>411</ele>
        <time>2011-08-21T06:10:39Z</time>
      </trkpt>
      <trkpt lat="43.86878" lon="6.98514">
        <ele>410</ele>
        <time>2011-08-21T06:10:45Z</time>
      </trkpt>
      <trkpt lat="43.8688" lon="6.98522">
        <ele>409</ele>
        <time>2011-08-21T06:10:50Z</time>
      </trkpt>
      <trkpt lat="43.86883" lon="6.98524">
        <ele>408</ele>
        <time>2011-08-21T06:10:52Z</time>
      </trkpt>
      <trkpt lat="43.86885" lon="6.98532">
        <ele>408</ele>
        <time>2011-08-21T06:10:56Z</time>
      </trkpt>
      <trkpt lat="43.86891" lon="6.98534">
        <ele>407</ele>
        <time>2011-08-21T06:10:59Z</time>
      </trkpt>
      <trkpt lat="43.86894" lon="6.9855">
        <ele>405</ele>
        <time>2011-08-21T06:11:04Z</time>
      </trkpt>
      <trkpt lat="43.86899" lon="6.98559">
        <ele>403</ele>
        <time>2011-08-21T06:11:08Z</time>
      </trkpt>
      <trkpt lat="43.86897" lon="6.98574">
        <ele>401</ele>
        <time>2011-08-21T06:11:13Z</time>
      </trkpt>
      <trkpt lat="43.86913" lon="6.98581">
        <ele>395</ele>
        <time>2011-08-21T06:11:22Z</time>
      </trkpt>
      <trkpt lat="43.86917" lon="6.98548">
        <ele>399</ele>
        <time>2011-08-21T06:11:29Z</time>
      </trkpt>
      <trkpt lat="43.86924" lon="6.98562">
        <ele>397</ele>
        <time>2011-08-21T06:11:35Z</time>
      </trkpt>
      <trkpt lat="43.86925" lon="6.98586">
        <ele>391</ele>
        <time>2011-08-21T06:11:45Z</time>
      </trkpt>
      <trkpt lat="43.86926" lon="6.98586">
        <ele>391</ele>
        <time>2011-08-21T06:11:54Z</time>
      </trkpt>
      <trkpt lat="43.8693" lon="6.98581">
        <ele>396</ele>
        <time>2011-08-21T06:11:58Z</time>
      </trkpt>
      <trkpt lat="43.8693" lon="6.98592">
        <ele>390</ele>
        <time>2011-08-21T06:12:05Z</time>
      </trkpt>
      <trkpt lat="43.86928" lon="6.98601">
        <ele>389</ele>
        <time>2011-08-21T06:12:11Z</time>
      </trkpt>
      <trkpt lat="43.8693" lon="6.98618">
        <ele>387</ele>
        <time>2011-08-21T06:12:18Z</time>
      </trkpt>
      <trkpt lat="43.8693" lon="6.98626">
        <ele>386</ele>
        <time>2011-08-21T06:12:21Z</time>
      </trkpt>
      <trkpt lat="43.86933" lon="6.98629">
        <ele>386</ele>
        <time>2011-08-21T06:12:31Z</time>
      </trkpt>
      <trkpt lat="43.86941" lon="6.98626">
        <ele>386</ele>
        <time>2011-08-21T06:12:36Z</time>
      </trkpt>
      <trkpt lat="43.86972" lon="6.98636">
        <ele>385</ele>
        <time>2011-08-21T06:12:44Z</time>
      </trkpt>
      <trkpt lat="43.86991" lon="6.98642">
        <ele>383</ele>
        <time>2011-08-21T06:12:48Z</time>
      </trkpt>
      <trkpt lat="43.87007" lon="6.98653">
        <ele>383</ele>
        <time>2011-08-21T06:12:52Z</time>
      </trkpt>
      <trkpt lat="43.87049" lon="6.98682">
        <ele>382</ele>
        <time>2011-08-21T06:13:00Z</time>
      </trkpt>
      <trkpt lat="43.87084" lon="6.98725">
        <ele>383</ele>
        <time>2011-08-21T06:13:08Z</time>
      </trkpt>
      <trkpt lat="43.87115" lon="6.98751">
        <ele>382</ele>
        <time>2011-08-21T06:13:19Z</time>
      </trkpt>
      <trkpt lat="43.87141" lon="6.98775">
        <ele>383</ele>
        <time>2011-08-21T06:13:26Z</time>
      </trkpt>
      <trkpt lat="43.87157" lon="6.98785">
        <ele>384</ele>
        <time>2011-08-21T06:13:31Z</time>
      </trkpt>
      <trkpt lat="43.87197" lon="6.98793">
        <ele>382</ele>
        <time>2011-08-21T06:13:42Z</time>
      </trkpt>
      <trkpt lat="43.87225" lon="6.9881">
        <ele>382</ele>
        <time>2011-08-21T06:13:54Z</time>
      </trkpt>
      <trkpt lat="43.87246" lon="6.98817">
        <ele>383</ele>
        <time>2011-08-21T06:14:04Z</time>
      </trkpt>
      <trkpt lat="43.87278" lon="6.98823">
        <ele>374</ele>
        <time>2011-08-21T06:14:16Z</time>
      </trkpt>
      <trkpt lat="43.87306" lon="6.98839">
        <ele>383</ele>
        <time>2011-08-21T06:14:26Z</time>
      </trkpt>
      <trkpt lat="43.87331" lon="6.98848">
        <ele>378</ele>
        <time>2011-08-21T06:14:37Z</time>
      </trkpt>
      <trkpt lat="43.87352" lon="6.98879">
        <ele>369</ele>
        <time>2011-08-21T06:14:49Z</time>
      </trkpt>
      <trkpt lat="43.87377" lon="6.98938">
        <ele>384</ele>
        <time>2011-08-21T06:15:09Z</time>
      </trkpt>
      <trkpt lat="43.87389" lon="6.98978">
        <ele>386</ele>
        <time>2011-08-21T06:15:21Z</time>
      </trkpt>
      <trkpt lat="43.874" lon="6.99023">
        <ele>396</ele>
        <time>2011-08-21T06:15:35Z</time>
      </trkpt>
      <trkpt lat="43.87421" lon="6.99064">
        <ele>375</ele>
        <time>2011-08-21T06:15:48Z</time>
      </trkpt>
      <trkpt lat="43.87434" lon="6.99125">
        <ele>374</ele>
        <time>2011-08-21T06:15:58Z</time>
      </trkpt>
      <trkpt lat="43.87444" lon="6.9916">
        <ele>374</ele>
        <time>2011-08-21T06:16:02Z</time>
      </trkpt>
      <trkpt lat="43.87442" lon="6.99201">
        <ele>370</ele>
        <time>2011-08-21T06:16:06Z</time>
      </trkpt>
      <trkpt lat="43.87438" lon="6.99222">
        <ele>371</ele>
        <time>2011-08-21T06:16:08Z</time>
      </trkpt>
      <trkpt lat="43.87435" lon="6.99261">
        <ele>370</ele>
        <time>2011-08-21T06:16:12Z</time>
      </trkpt>
      <trkpt lat="43.87437" lon="6.99289">
        <ele>365</ele>
        <time>2011-08-21T06:16:15Z</time>
      </trkpt>
      <trkpt lat="43.87447" lon="6.99301">
        <ele>363</ele>
        <time>2011-08-21T06:16:21Z</time>
      </trkpt>
      <trkpt lat="43.87457" lon="6.99309">
        <ele>360</ele>
        <time>2011-08-21T06:16:26Z</time>
      </trkpt>
      <trkpt lat="43.87455" lon="6.99332">
        <ele>360</ele>
        <time>2011-08-21T06:16:29Z</time>
      </trkpt>
      <trkpt lat="43.87447" lon="6.99367">
        <ele>355</ele>
        <time>2011-08-21T06:16:33Z</time>
      </trkpt>
      <trkpt lat="43.87441" lon="6.99388">
        <ele>355</ele>
        <time>2011-08-21T06:16:35Z</time>
      </trkpt>
      <trkpt lat="43.87436" lon="6.99429">
        <ele>350</ele>
        <time>2011-08-21T06:16:39Z</time>
      </trkpt>
      <trkpt lat="43.87428" lon="6.99446">
        <ele>348</ele>
        <time>2011-08-21T06:16:42Z</time>
      </trkpt>
      <trkpt lat="43.87421" lon="6.99471">
        <ele>345</ele>
        <time>2011-08-21T06:16:46Z</time>
      </trkpt>
      <trkpt lat="43.87415" lon="6.99497">
        <ele>348</ele>
        <time>2011-08-21T06:16:53Z</time>
      </trkpt>
      <trkpt lat="43.8739" lon="6.99553">
        <ele>358</ele>
        <time>2011-08-21T06:17:06Z</time>
      </trkpt>
      <trkpt lat="43.87374" lon="6.99618">
        <ele>350</ele>
        <time>2011-08-21T06:17:19Z</time>
      </trkpt>
      <trkpt lat="43.87373" lon="6.99629">
        <ele>350</ele>
        <time>2011-08-21T06:17:21Z</time>
      </trkpt>
      <trkpt lat="43.87363" lon="6.99658">
        <ele>350</ele>
        <time>2011-08-21T06:17:26Z</time>
      </trkpt>
      <trkpt lat="43.87357" lon="6.99715">
        <ele>342</ele>
        <time>2011-08-21T06:17:34Z</time>
      </trkpt>
      <trkpt lat="43.87356" lon="6.99743">
        <ele>342</ele>
        <time>2011-08-21T06:17:37Z</time>
      </trkpt>
      <trkpt lat="43.87355" lon="6.99778">
        <ele>340</ele>
        <time>2011-08-21T06:17:41Z</time>
      </trkpt>
      <trkpt lat="43.8735" lon="6.99805">
        <ele>340</ele>
        <time>2011-08-21T06:17:45Z</time>
      </trkpt>
      <trkpt lat="43.87341" lon="6.99886">
        <ele>340</ele>
        <time>2011-08-21T06:17:56Z</time>
      </trkpt>
      <trkpt lat="43.87336" lon="6.99915">
        <ele>342</ele>
        <time>2011-08-21T06:18:00Z</time>
      </trkpt>
      <trkpt lat="43.87327" lon="6.99976">
        <ele>355</ele>
        <time>2011-08-21T06:18:10Z</time>
      </trkpt>
      <trkpt lat="43.8732" lon="6.99991">
        <ele>351</ele>
        <time>2011-08-21T06:18:13Z</time>
      </trkpt>
      <trkpt lat="43.87318" lon="7.00004">
        <ele>344</ele>
        <time>2011-08-21T06:18:15Z</time>
      </trkpt>
      <trkpt lat="43.87314" lon="7.00057">
        <ele>347</ele>
        <time>2011-08-21T06:18:23Z</time>
      </trkpt>
      <trkpt lat="43.87293" lon="7.00108">
        <ele>343</ele>
        <time>2011-08-21T06:18:31Z</time>
      </trkpt>
      <trkpt lat="43.87288" lon="7.00121">
        <ele>343</ele>
        <time>2011-08-21T06:18:33Z</time>
      </trkpt>
      <trkpt lat="43.87278" lon="7.00159">
        <ele>343</ele>
        <time>2011-08-21T06:18:38Z</time>
      </trkpt>
      <trkpt lat="43.87264" lon="7.00208">
        <ele>339</ele>
        <time>2011-08-21T06:18:43Z</time>
      </trkpt>
      <trkpt lat="43.87264" lon="7.00231">
        <ele>340</ele>
        <time>2011-08-21T06:18:46Z</time>
      </trkpt>
      <trkpt lat="43.87266" lon="7.0024">
        <ele>340</ele>
        <time>2011-08-21T06:18:48Z</time>
      </trkpt>
      <trkpt lat="43.87261" lon="7.003">
        <ele>338</ele>
        <time>2011-08-21T06:19:00Z</time>
      </trkpt>
      <trkpt lat="43.87259" lon="7.0033">
        <ele>342</ele>
        <time>2011-08-21T06:19:06Z</time>
      </trkpt>
      <trkpt lat="43.87264" lon="7.0036">
        <ele>337</ele>
        <time>2011-08-21T06:19:11Z</time>
      </trkpt>
      <trkpt lat="43.87265" lon="7.00383">
        <ele>336</ele>
        <time>2011-08-21T06:19:14Z</time>
      </trkpt>
      <trkpt lat="43.87267" lon="7.00402">
        <ele>337</ele>
        <time>2011-08-21T06:19:17Z</time>
      </trkpt>
      <trkpt lat="43.87266" lon="7.00435">
        <ele>333</ele>
        <time>2011-08-21T06:19:22Z</time>
      </trkpt>
      <trkpt lat="43.87252" lon="7.00493">
        <ele>328</ele>
        <time>2011-08-21T06:19:35Z</time>
      </trkpt>
      <trkpt lat="43.87257" lon="7.00553">
        <ele>321</ele>
        <time>2011-08-21T06:19:46Z</time>
      </trkpt>
      <trkpt lat="43.87259" lon="7.00573">
        <ele>320</ele>
        <time>2011-08-21T06:19:51Z</time>
      </trkpt>
      <trkpt lat="43.87253" lon="7.006">
        <ele>318</ele>
        <time>2011-08-21T06:20:00Z</time>
      </trkpt>
      <trkpt lat="43.87243" lon="7.00609">
        <ele>320</ele>
        <time>2011-08-21T06:20:06Z</time>
      </trkpt>
      <trkpt lat="43.87237" lon="7.00616">
        <ele>320</ele>
        <time>2011-08-21T06:20:21Z</time>
      </trkpt>
      <trkpt lat="43.87238" lon="7.00612">
        <ele>320</ele>
        <time>2011-08-21T06:20:43Z</time>
      </trkpt>
      <trkpt lat="43.87242" lon="7.00603">
        <ele>320</ele>
        <time>2011-08-21T06:20:59Z</time>
      </trkpt>
      <trkpt lat="43.87244" lon="7.00597">
        <ele>319</ele>
        <time>2011-08-21T06:21:09Z</time>
      </trkpt>
      <trkpt lat="43.87244" lon="7.00603">
        <ele>320</ele>
        <time>2011-08-21T06:21:33Z</time>
      </trkpt>
      <trkpt lat="43.87239" lon="7.00607">
        <ele>320</ele>
        <time>2011-08-21T06:21:44Z</time>
      </trkpt>
      <trkpt lat="43.8724" lon="7.00609">
        <ele>320</ele>
        <time>2011-08-21T06:21:47Z</time>
      </trkpt>
      <trkpt lat="43.87243" lon="7.00606">
        <ele>320</ele>
        <time>2011-08-21T06:21:51Z</time>
      </trkpt>
      <trkpt lat="43.87248" lon="7.00603">
        <ele>320</ele>
        <time>2011-08-21T06:21:53Z</time>
      </trkpt>
      <trkpt lat="43.87267" lon="7.006">
        <ele>318</ele>
        <time>2011-08-21T06:21:58Z</time>
      </trkpt>
      <trkpt lat="43.87327" lon="7.00628">
        <ele>319</ele>
        <time>2011-08-21T06:22:18Z</time>
      </trkpt>
      <trkpt lat="43.87369" lon="7.00663">
        <ele>326</ele>
        <time>2011-08-21T06:22:31Z</time>
      </trkpt>
      <trkpt lat="43.87372" lon="7.00664">
        <ele>327</ele>
        <time>2011-08-21T06:22:32Z</time>
      </trkpt>
      <trkpt lat="43.87394" lon="7.00702">
        <ele>326</ele>
        <time>2011-08-21T06:22:42Z</time>
      </trkpt>
      <trkpt lat="43.87396" lon="7.00706">
        <ele>326</ele>
        <time>2011-08-21T06:22:43Z</time>
      </trkpt>
      <trkpt lat="43.874" lon="7.00703">
        <ele>326</ele>
        <time>2011-08-21T06:22:47Z</time>
      </trkpt>
      <trkpt lat="43.8738" lon="7.00666">
        <ele>328</ele>
        <time>2011-08-21T06:22:57Z</time>
      </trkpt>
      <trkpt lat="43.8735" lon="7.0065">
        <ele>324</ele>
        <time>2011-08-21T06:23:04Z</time>
      </trkpt>
      <trkpt lat="43.87324" lon="7.00619">
        <ele>319</ele>
        <time>2011-08-21T06:23:14Z</time>
      </trkpt>
      <trkpt lat="43.87329" lon="7.00616">
        <ele>319</ele>
        <time>2011-08-21T06:23:27Z</time>
      </trkpt>
      <trkpt lat="43.87326" lon="7.00619">
        <ele>319</ele>
        <time>2011-08-21T06:23:50Z</time>
      </trkpt>
      <trkpt lat="43.87338" lon="7.00637">
        <ele>324</ele>
        <time>2011-08-21T06:23:59Z</time>
      </trkpt>
      <trkpt lat="43.87354" lon="7.00654">
        <ele>325</ele>
        <time>2011-08-21T06:24:04Z</time>
      </trkpt>
      <trkpt lat="43.87385" lon="7.00687">
        <ele>326</ele>
        <time>2011-08-21T06:24:15Z</time>
      </trkpt>
      <trkpt lat="43.87417" lon="7.00737">
        <ele>333</ele>
        <time>2011-08-21T06:24:25Z</time>
      </trkpt>
      <trkpt lat="43.87457" lon="7.00829">
        <ele>334</ele>
        <time>2011-08-21T06:24:43Z</time>
      </trkpt>
      <trkpt lat="43.87479" lon="7.00904">
        <ele>331</ele>
        <time>2011-08-21T06:24:59Z</time>
      </trkpt>
      <trkpt lat="43.87489" lon="7.00903">
        <ele>331</ele>
        <time>2011-08-21T06:25:04Z</time>
      </trkpt>
      <trkpt lat="43.87489" lon="7.00873">
        <ele>332</ele>
        <time>2011-08-21T06:25:12Z</time>
      </trkpt>
      <trkpt lat="43.87471" lon="7.00814">
        <ele>336</ele>
        <time>2011-08-21T06:25:25Z</time>
      </trkpt>
      <trkpt lat="43.87454" lon="7.00755">
        <ele>336</ele>
        <time>2011-08-21T06:25:38Z</time>
      </trkpt>
      <trkpt lat="43.87447" lon="7.00733">
        <ele>340</ele>
        <time>2011-08-21T06:25:43Z</time>
      </trkpt>
      <trkpt lat="43.87424" lon="7.00665">
        <ele>338</ele>
        <time>2011-08-21T06:25:57Z</time>
      </trkpt>
      <trkpt lat="43.87425" lon="7.00587">
        <ele>341</ele>
        <time>2011-08-21T06:26:12Z</time>
      </trkpt>
      <trkpt lat="43.87426" lon="7.00506">
        <ele>343</ele>
        <time>2011-08-21T06:26:27Z</time>
      </trkpt>
      <trkpt lat="43.87425" lon="7.00426">
        <ele>346</ele>
        <time>2011-08-21T06:26:44Z</time>
      </trkpt>
      <trkpt lat="43.87425" lon="7.00397">
        <ele>349</ele>
        <time>2011-08-21T06:26:51Z</time>
      </trkpt>
      <trkpt lat="43.87415" lon="7.00399">
        <ele>339</ele>
        <time>2011-08-21T06:26:59Z</time>
      </trkpt>
      <trkpt lat="43.87417" lon="7.00402">
        <ele>347</ele>
        <time>2011-08-21T06:27:40Z</time>
      </trkpt>
      <trkpt lat="43.87417" lon="7.00429">
        <ele>345</ele>
        <time>2011-08-21T06:28:03Z</time>
      </trkpt>
      <trkpt lat="43.87412" lon="7.00427">
        <ele>339</ele>
        <time>2011-08-21T06:28:19Z</time>
      </trkpt>
      <trkpt lat="43.87403" lon="7.00426">
        <ele>337</ele>
        <time>2011-08-21T06:28:51Z</time>
      </trkpt>
      <trkpt lat="43.87422" lon="7.00411">
        <ele>346</ele>
        <time>2011-08-21T06:29:01Z</time>
      </trkpt>
      <trkpt lat="43.87425" lon="7.0035">
        <ele>350</ele>
        <time>2011-08-21T06:29:16Z</time>
      </trkpt>
      <trkpt lat="43.87415" lon="7.00327">
        <ele>344</ele>
        <time>2011-08-21T06:29:24Z</time>
      </trkpt>
      <trkpt lat="43.87415" lon="7.00324">
        <ele>344</ele>
        <time>2011-08-21T06:29:39Z</time>
      </trkpt>
      <trkpt lat="43.87416" lon="7.00323">
        <ele>343</ele>
        <time>2011-08-21T06:41:49Z</time>
      </trkpt>
      <trkpt lat="43.87419" lon="7.0033">
        <ele>348</ele>
        <time>2011-08-21T06:41:53Z</time>
      </trkpt>
      <trkpt lat="43.8742" lon="7.00358">
        <ele>350</ele>
        <time>2011-08-21T06:42:03Z</time>
      </trkpt>
      <trkpt lat="43.87424" lon="7.00359">
        <ele>350</ele>
        <time>2011-08-21T06:42:41Z</time>
      </trkpt>
      <trkpt lat="43.87424" lon="7.00359">
        <ele>350</ele>
        <time>2011-08-21T06:43:38Z</time>
      </trkpt>
      <trkpt lat="43.87426" lon="7.00371">
        <ele>350</ele>
        <time>2011-08-21T06:43:47Z</time>
      </trkpt>
      <trkpt lat="43.87424" lon="7.00465">
        <ele>347</ele>
        <time>2011-08-21T06:44:05Z</time>
      </trkpt>
      <trkpt lat="43.87421" lon="7.00538">
        <ele>345</ele>
        <time>2011-08-21T06:44:19Z</time>
      </trkpt>
      <trkpt lat="43.87417" lon="7.00619">
        <ele>344</ele>
        <time>2011-08-21T06:44:34Z</time>
      </trkpt>
      <trkpt lat="43.87418" lon="7.00667">
        <ele>335</ele>
        <time>2011-08-21T06:44:41Z</time>
      </trkpt>
      <trkpt lat="43.87445" lon="7.00755">
        <ele>334</ele>
        <time>2011-08-21T06:44:53Z</time>
      </trkpt>
      <trkpt lat="43.87483" lon="7.00861">
        <ele>333</ele>
        <time>2011-08-21T06:45:06Z</time>
      </trkpt>
      <trkpt lat="43.8749" lon="7.00885">
        <ele>331</ele>
        <time>2011-08-21T06:45:09Z</time>
      </trkpt>
      <trkpt lat="43.87493" lon="7.00903">
        <ele>331</ele>
        <time>2011-08-21T06:45:12Z</time>
      </trkpt>
      <trkpt lat="43.87483" lon="7.00905">
        <ele>331</ele>
        <time>2011-08-21T06:45:17Z</time>
      </trkpt>
      <trkpt lat="43.87483" lon="7.00899">
        <ele>331</ele>
        <time>2011-08-21T06:45:18Z</time>
      </trkpt>
      <trkpt lat="43.87476" lon="7.0085">
        <ele>333</ele>
        <time>2011-08-21T06:45:27Z</time>
      </trkpt>
      <trkpt lat="43.87433" lon="7.00755">
        <ele>331</ele>
        <time>2011-08-21T06:45:40Z</time>
      </trkpt>
      <trkpt lat="43.87389" lon="7.00669">
        <ele>327</ele>
        <time>2011-08-21T06:45:53Z</time>
      </trkpt>
      <trkpt lat="43.87369" lon="7.00654">
        <ele>327</ele>
        <time>2011-08-21T06:45:57Z</time>
      </trkpt>
      <trkpt lat="43.87354" lon="7.00646">
        <ele>325</ele>
        <time>2011-08-21T06:46:00Z</time>
      </trkpt>
      <trkpt lat="43.87333" lon="7.00621">
        <ele>319</ele>
        <time>2011-08-21T06:46:06Z</time>
      </trkpt>
      <trkpt lat="43.87289" lon="7.00601">
        <ele>319</ele>
        <time>2011-08-21T06:46:18Z</time>
      </trkpt>
      <trkpt lat="43.87266" lon="7.00597">
        <ele>318</ele>
        <time>2011-08-21T06:46:24Z</time>
      </trkpt>
      <trkpt lat="43.87248" lon="7.00607">
        <ele>320</ele>
        <time>2011-08-21T06:46:29Z</time>
      </trkpt>
      <trkpt lat="43.87229" lon="7.00598">
        <ele>320</ele>
        <time>2011-08-21T06:46:35Z</time>
      </trkpt>
      <trkpt lat="43.87196" lon="7.00567">
        <ele>327</ele>
        <time>2011-08-21T06:46:48Z</time>
      </trkpt>
      <trkpt lat="43.87152" lon="7.00538">
        <ele>332</ele>
        <time>2011-08-21T06:47:02Z</time>
      </trkpt>
      <trkpt lat="43.87103" lon="7.00495">
        <ele>343</ele>
        <time>2011-08-21T06:47:21Z</time>
      </trkpt>
      <trkpt lat="43.87052" lon="7.00453">
        <ele>337</ele>
        <time>2011-08-21T06:47:41Z</time>
      </trkpt>
      <trkpt lat="43.8699" lon="7.00423">
        <ele>339</ele>
        <time>2011-08-21T06:48:05Z</time>
      </trkpt>
      <trkpt lat="43.86952" lon="7.00431">
        <ele>339</ele>
        <time>2011-08-21T06:48:20Z</time>
      </trkpt>
      <trkpt lat="43.86938" lon="7.00443">
        <ele>339</ele>
        <time>2011-08-21T06:48:27Z</time>
      </trkpt>
      <trkpt lat="43.86823" lon="7.00458">
        <ele>357</ele>
        <time>2011-08-21T06:49:15Z</time>
      </trkpt>
      <trkpt lat="43.86801" lon="7.00466">
        <ele>358</ele>
        <time>2011-08-21T06:49:32Z</time>
      </trkpt>
      <trkpt lat="43.86786" lon="7.00472">
        <ele>359</ele>
        <time>2011-08-21T06:49:41Z</time>
      </trkpt>
      <trkpt lat="43.86761" lon="7.00491">
        <ele>359</ele>
        <time>2011-08-21T06:49:57Z</time>
      </trkpt>
      <trkpt lat="43.86753" lon="7.00494">
        <ele>359</ele>
        <time>2011-08-21T06:50:02Z</time>
      </trkpt>
      <trkpt lat="43.8674" lon="7.00493">
        <ele>369</ele>
        <time>2011-08-21T06:50:14Z</time>
      </trkpt>
      <trkpt lat="43.86736" lon="7.00495">
        <ele>370</ele>
        <time>2011-08-21T06:50:17Z</time>
      </trkpt>
      <trkpt lat="43.86732" lon="7.005">
        <ele>358</ele>
        <time>2011-08-21T06:50:21Z</time>
      </trkpt>
      <trkpt lat="43.8671" lon="7.0053">
        <ele>358</ele>
        <time>2011-08-21T06:50:40Z</time>
      </trkpt>
      <trkpt lat="43.86702" lon="7.00531">
        <ele>359</ele>
        <time>2011-08-21T06:50:43Z</time>
      </trkpt>
      <trkpt lat="43.86694" lon="7.00528">
        <ele>361</ele>
        <time>2011-08-21T06:50:47Z</time>
      </trkpt>
      <trkpt lat="43.86686" lon="7.00524">
        <ele>363</ele>
        <time>2011-08-21T06:50:52Z</time>
      </trkpt>
      <trkpt lat="43.86658" lon="7.00532">
        <ele>377</ele>
        <time>2011-08-21T06:51:08Z</time>
      </trkpt>
      <trkpt lat="43.86619" lon="7.00525">
        <ele>382</ele>
        <time>2011-08-21T06:51:31Z</time>
      </trkpt>
      <trkpt lat="43.8659" lon="7.00518">
        <ele>388</ele>
        <time>2011-08-21T06:51:50Z</time>
      </trkpt>
      <trkpt lat="43.86576" lon="7.00502">
        <ele>401</ele>
        <time>2011-08-21T06:52:03Z</time>
      </trkpt>
      <trkpt lat="43.86553" lon="7.00502">
        <ele>407</ele>
        <time>2011-08-21T06:52:17Z</time>
      </trkpt>
      <trkpt lat="43.86552" lon="7.00522">
        <ele>408</ele>
        <time>2011-08-21T06:52:26Z</time>
      </trkpt>
      <trkpt lat="43.86568" lon="7.00566">
        <ele>401</ele>
        <time>2011-08-21T06:52:46Z</time>
      </trkpt>
      <trkpt lat="43.86579" lon="7.00599">
        <ele>397</ele>
        <time>2011-08-21T06:53:04Z</time>
      </trkpt>
      <trkpt lat="43.86586" lon="7.00637">
        <ele>373</ele>
        <time>2011-08-21T06:53:22Z</time>
      </trkpt>
      <trkpt lat="43.86574" lon="7.00662">
        <ele>395</ele>
        <time>2011-08-21T06:53:37Z</time>
      </trkpt>
      <trkpt lat="43.86552" lon="7.0067">
        <ele>405</ele>
        <time>2011-08-21T06:53:53Z</time>
      </trkpt>
      <trkpt lat="43.86543" lon="7.00673">
        <ele>409</ele>
        <time>2011-08-21T06:53:59Z</time>
      </trkpt>
      <trkpt lat="43.86539" lon="7.00678">
        <ele>411</ele>
        <time>2011-08-21T06:54:02Z</time>
      </trkpt>
      <trkpt lat="43.86542" lon="7.00694">
        <ele>408</ele>
        <time>2011-08-21T06:54:09Z</time>
      </trkpt>
      <trkpt lat="43.86553" lon="7.00736">
        <ele>401</ele>
        <time>2011-08-21T06:54:28Z</time>
      </trkpt>
      <trkpt lat="43.86542" lon="7.0078">
        <ele>399</ele>
        <time>2011-08-21T06:54:50Z</time>
      </trkpt>
      <trkpt lat="43.86526" lon="7.00807">
        <ele>404</ele>
        <time>2011-08-21T06:55:07Z</time>
      </trkpt>
      <trkpt lat="43.86498" lon="7.00822">
        <ele>436</ele>
        <time>2011-08-21T06:55:27Z</time>
      </trkpt>
      <trkpt lat="43.86494" lon="7.00825">
        <ele>436</ele>
        <time>2011-08-21T06:55:30Z</time>
      </trkpt>
      <trkpt lat="43.86476" lon="7.00845">
        <ele>444</ele>
        <time>2011-08-21T06:55:46Z</time>
      </trkpt>
      <trkpt lat="43.86489" lon="7.00871">
        <ele>444</ele>
        <time>2011-08-21T06:56:02Z</time>
      </trkpt>
      <trkpt lat="43.86502" lon="7.0091">
        <ele>418</ele>
        <time>2011-08-21T06:56:25Z</time>
      </trkpt>
      <trkpt lat="43.86501" lon="7.00919">
        <ele>422</ele>
        <time>2011-08-21T06:56:29Z</time>
      </trkpt>
      <trkpt lat="43.86493" lon="7.00943">
        <ele>443</ele>
        <time>2011-08-21T06:56:42Z</time>
      </trkpt>
      <trkpt lat="43.86483" lon="7.00983">
        <ele>442</ele>
        <time>2011-08-21T06:57:02Z</time>
      </trkpt>
      <trkpt lat="43.86465" lon="7.01014">
        <ele>446</ele>
        <time>2011-08-21T06:57:21Z</time>
      </trkpt>
      <trkpt lat="43.86458" lon="7.01028">
        <ele>448</ele>
        <time>2011-08-21T06:57:29Z</time>
      </trkpt>
      <trkpt lat="43.86441" lon="7.01061">
        <ele>453</ele>
        <time>2011-08-21T06:57:49Z</time>
      </trkpt>
      <trkpt lat="43.86427" lon="7.01093">
        <ele>453</ele>
        <time>2011-08-21T06:58:07Z</time>
      </trkpt>
      <trkpt lat="43.86427" lon="7.01111">
        <ele>442</ele>
        <time>2011-08-21T06:58:16Z</time>
      </trkpt>
      <trkpt lat="43.86407" lon="7.01137">
        <ele>478</ele>
        <time>2011-08-21T06:58:35Z</time>
      </trkpt>
      <trkpt lat="43.8639" lon="7.01165">
        <ele>478</ele>
        <time>2011-08-21T06:58:54Z</time>
      </trkpt>
      <trkpt lat="43.86385" lon="7.012">
        <ele>465</ele>
        <time>2011-08-21T06:59:13Z</time>
      </trkpt>
      <trkpt lat="43.86379" lon="7.01233">
        <ele>463</ele>
        <time>2011-08-21T06:59:29Z</time>
      </trkpt>
      <trkpt lat="43.86361" lon="7.01253">
        <ele>461</ele>
        <time>2011-08-21T06:59:47Z</time>
      </trkpt>
      <trkpt lat="43.86334" lon="7.01273">
        <ele>467</ele>
        <time>2011-08-21T07:00:10Z</time>
      </trkpt>
      <trkpt lat="43.86333" lon="7.01275">
        <ele>495</ele>
        <time>2011-08-21T07:00:11Z</time>
      </trkpt>
      <trkpt lat="43.86318" lon="7.01304">
        <ele>492</ele>
        <time>2011-08-21T07:00:30Z</time>
      </trkpt>
      <trkpt lat="43.86305" lon="7.01319">
        <ele>492</ele>
        <time>2011-08-21T07:00:43Z</time>
      </trkpt>
      <trkpt lat="43.863" lon="7.01329">
        <ele>492</ele>
        <time>2011-08-21T07:00:50Z</time>
      </trkpt>
      <trkpt lat="43.86304" lon="7.01368">
        <ele>477</ele>
        <time>2011-08-21T07:01:11Z</time>
      </trkpt>
      <trkpt lat="43.86311" lon="7.01398">
        <ele>472</ele>
        <time>2011-08-21T07:01:28Z</time>
      </trkpt>
      <trkpt lat="43.86309" lon="7.01408">
        <ele>471</ele>
        <time>2011-08-21T07:01:35Z</time>
      </trkpt>
      <trkpt lat="43.86293" lon="7.01416">
        <ele>474</ele>
        <time>2011-08-21T07:01:47Z</time>
      </trkpt>
      <trkpt lat="43.86287" lon="7.01415">
        <ele>475</ele>
        <time>2011-08-21T07:01:52Z</time>
      </trkpt>
      <trkpt lat="43.86281" lon="7.01409">
        <ele>476</ele>
        <time>2011-08-21T07:01:57Z</time>
      </trkpt>
      <trkpt lat="43.86259" lon="7.01383">
        <ele>480</ele>
        <time>2011-08-21T07:02:18Z</time>
      </trkpt>
      <trkpt lat="43.86244" lon="7.01344">
        <ele>497</ele>
        <time>2011-08-21T07:02:41Z</time>
      </trkpt>
      <trkpt lat="43.86223" lon="7.01322">
        <ele>512</ele>
        <time>2011-08-21T07:02:58Z</time>
      </trkpt>
      <trkpt lat="43.86216" lon="7.01319">
        <ele>512</ele>
        <time>2011-08-21T07:03:02Z</time>
      </trkpt>
      <trkpt lat="43.86195" lon="7.01311">
        <ele>513</ele>
        <time>2011-08-21T07:03:18Z</time>
      </trkpt>
      <trkpt lat="43.86171" lon="7.01302">
        <ele>513</ele>
        <time>2011-08-21T07:03:37Z</time>
      </trkpt>
      <trkpt lat="43.86158" lon="7.01295">
        <ele>509</ele>
        <time>2011-08-21T07:03:49Z</time>
      </trkpt>
      <trkpt lat="43.86131" lon="7.01283">
        <ele>509</ele>
        <time>2011-08-21T07:04:10Z</time>
      </trkpt>
      <trkpt lat="43.86125" lon="7.01278">
        <ele>509</ele>
        <time>2011-08-21T07:04:15Z</time>
      </trkpt>
      <trkpt lat="43.86119" lon="7.01243">
        <ele>521</ele>
        <time>2011-08-21T07:04:33Z</time>
      </trkpt>
      <trkpt lat="43.86122" lon="7.01205">
        <ele>524</ele>
        <time>2011-08-21T07:04:51Z</time>
      </trkpt>
      <trkpt lat="43.86122" lon="7.0116">
        <ele>534</ele>
        <time>2011-08-21T07:05:12Z</time>
      </trkpt>
      <trkpt lat="43.86125" lon="7.0112">
        <ele>538</ele>
        <time>2011-08-21T07:05:29Z</time>
      </trkpt>
      <trkpt lat="43.86114" lon="7.01092">
        <ele>537</ele>
        <time>2011-08-21T07:05:44Z</time>
      </trkpt>
      <trkpt lat="43.86109" lon="7.01078">
        <ele>544</ele>
        <time>2011-08-21T07:05:51Z</time>
      </trkpt>
      <trkpt lat="43.8611" lon="7.0107">
        <ele>545</ele>
        <time>2011-08-21T07:05:55Z</time>
      </trkpt>
      <trkpt lat="43.86103" lon="7.0104">
        <ele>548</ele>
        <time>2011-08-21T07:06:07Z</time>
      </trkpt>
      <trkpt lat="43.86104" lon="7.01005">
        <ele>549</ele>
        <time>2011-08-21T07:06:23Z</time>
      </trkpt>
      <trkpt lat="43.86103" lon="7.00989">
        <ele>557</ele>
        <time>2011-08-21T07:06:29Z</time>
      </trkpt>
      <trkpt lat="43.861" lon="7.0098">
        <ele>558</ele>
        <time>2011-08-21T07:06:33Z</time>
      </trkpt>
      <trkpt lat="43.86096" lon="7.00974">
        <ele>559</ele>
        <time>2011-08-21T07:06:36Z</time>
      </trkpt>
      <trkpt lat="43.86079" lon="7.00969">
        <ele>544</ele>
        <time>2011-08-21T07:06:47Z</time>
      </trkpt>
      <trkpt lat="43.86064" lon="7.0096">
        <ele>544</ele>
        <time>2011-08-21T07:06:58Z</time>
      </trkpt>
      <trkpt lat="43.86054" lon="7.00938">
        <ele>546</ele>
        <time>2011-08-21T07:07:11Z</time>
      </trkpt>
      <trkpt lat="43.86044" lon="7.0092">
        <ele>545</ele>
        <time>2011-08-21T07:07:23Z</time>
      </trkpt>
      <trkpt lat="43.86043" lon="7.00917">
        <ele>545</ele>
        <time>2011-08-21T07:07:26Z</time>
      </trkpt>
      <trkpt lat="43.86042" lon="7.00911">
        <ele>559</ele>
        <time>2011-08-21T07:07:29Z</time>
      </trkpt>
      <trkpt lat="43.86033" lon="7.00891">
        <ele>560</ele>
        <time>2011-08-21T07:07:42Z</time>
      </trkpt>
      <trkpt lat="43.86023" lon="7.00879">
        <ele>560</ele>
        <time>2011-08-21T07:07:49Z</time>
      </trkpt>
      <trkpt lat="43.86021" lon="7.00875">
        <ele>561</ele>
        <time>2011-08-21T07:07:51Z</time>
      </trkpt>
      <trkpt lat="43.86017" lon="7.00868">
        <ele>562</ele>
        <time>2011-08-21T07:07:56Z</time>
      </trkpt>
      <trkpt lat="43.85998" lon="7.00831">
        <ele>565</ele>
        <time>2011-08-21T07:08:17Z</time>
      </trkpt>
      <trkpt lat="43.85993" lon="7.00814">
        <ele>567</ele>
        <time>2011-08-21T07:08:26Z</time>
      </trkpt>
      <trkpt lat="43.85991" lon="7.00808">
        <ele>568</ele>
        <time>2011-08-21T07:08:30Z</time>
      </trkpt>
      <trkpt lat="43.85985" lon="7.00789">
        <ele>571</ele>
        <time>2011-08-21T07:08:41Z</time>
      </trkpt>
      <trkpt lat="43.85968" lon="7.00766">
        <ele>573</ele>
        <time>2011-08-21T07:08:59Z</time>
      </trkpt>
      <trkpt lat="43.85961" lon="7.00753">
        <ele>572</ele>
        <time>2011-08-21T07:09:07Z</time>
      </trkpt>
      <trkpt lat="43.85954" lon="7.00746">
        <ele>583</ele>
        <time>2011-08-21T07:09:13Z</time>
      </trkpt>
      <trkpt lat="43.85951" lon="7.00739">
        <ele>582</ele>
        <time>2011-08-21T07:09:17Z</time>
      </trkpt>
      <trkpt lat="43.85949" lon="7.00737">
        <ele>582</ele>
        <time>2011-08-21T07:09:19Z</time>
      </trkpt>
      <trkpt lat="43.85939" lon="7.00721">
        <ele>582</ele>
        <time>2011-08-21T07:09:29Z</time>
      </trkpt>
      <trkpt lat="43.85934" lon="7.00706">
        <ele>583</ele>
        <time>2011-08-21T07:09:39Z</time>
      </trkpt>
      <trkpt lat="43.85928" lon="7.00668">
        <ele>583</ele>
        <time>2011-08-21T07:09:54Z</time>
      </trkpt>
      <trkpt lat="43.85927" lon="7.0066">
        <ele>587</ele>
        <time>2011-08-21T07:09:58Z</time>
      </trkpt>
      <trkpt lat="43.85931" lon="7.00627">
        <ele>594</ele>
        <time>2011-08-21T07:10:12Z</time>
      </trkpt>
      <trkpt lat="43.85933" lon="7.00606">
        <ele>595</ele>
        <time>2011-08-21T07:10:24Z</time>
      </trkpt>
      <trkpt lat="43.85935" lon="7.00586">
        <ele>595</ele>
        <time>2011-08-21T07:10:32Z</time>
      </trkpt>
      <trkpt lat="43.85927" lon="7.00556">
        <ele>600</ele>
        <time>2011-08-21T07:10:48Z</time>
      </trkpt>
      <trkpt lat="43.85924" lon="7.00548">
        <ele>601</ele>
        <time>2011-08-21T07:10:51Z</time>
      </trkpt>
      <trkpt lat="43.85923" lon="7.00545">
        <ele>601</ele>
        <time>2011-08-21T07:10:53Z</time>
      </trkpt>
      <trkpt lat="43.85923" lon="7.00522">
        <ele>601</ele>
        <time>2011-08-21T07:11:04Z</time>
      </trkpt>
      <trkpt lat="43.85917" lon="7.00494">
        <ele>602</ele>
        <time>2011-08-21T07:11:17Z</time>
      </trkpt>
      <trkpt lat="43.85908" lon="7.00465">
        <ele>594</ele>
        <time>2011-08-21T07:11:30Z</time>
      </trkpt>
      <trkpt lat="43.85907" lon="7.00462">
        <ele>594</ele>
        <time>2011-08-21T07:11:31Z</time>
      </trkpt>
      <trkpt lat="43.85885" lon="7.00427">
        <ele>594</ele>
        <time>2011-08-21T07:11:44Z</time>
      </trkpt>
      <trkpt lat="43.85879" lon="7.00394">
        <ele>601</ele>
        <time>2011-08-21T07:11:54Z</time>
      </trkpt>
      <trkpt lat="43.85877" lon="7.0036">
        <ele>604</ele>
        <time>2011-08-21T07:12:07Z</time>
      </trkpt>
      <trkpt lat="43.85866" lon="7.00335">
        <ele>604</ele>
        <time>2011-08-21T07:12:20Z</time>
      </trkpt>
      <trkpt lat="43.85843" lon="7.00327">
        <ele>609</ele>
        <time>2011-08-21T07:12:32Z</time>
      </trkpt>
      <trkpt lat="43.85801" lon="7.00316">
        <ele>604</ele>
        <time>2011-08-21T07:12:53Z</time>
      </trkpt>
      <trkpt lat="43.85783" lon="7.00302">
        <ele>605</ele>
        <time>2011-08-21T07:13:05Z</time>
      </trkpt>
      <trkpt lat="43.85765" lon="7.00262">
        <ele>610</ele>
        <time>2011-08-21T07:13:25Z</time>
      </trkpt>
      <trkpt lat="43.85756" lon="7.00223">
        <ele>630</ele>
        <time>2011-08-21T07:13:45Z</time>
      </trkpt>
      <trkpt lat="43.85747" lon="7.00197">
        <ele>635</ele>
        <time>2011-08-21T07:13:59Z</time>
      </trkpt>
      <trkpt lat="43.85726" lon="7.00192">
        <ele>636</ele>
        <time>2011-08-21T07:14:17Z</time>
      </trkpt>
      <trkpt lat="43.85709" lon="7.00227">
        <ele>631</ele>
        <time>2011-08-21T07:14:38Z</time>
      </trkpt>
      <trkpt lat="43.85705" lon="7.00233">
        <ele>630</ele>
        <time>2011-08-21T07:14:42Z</time>
      </trkpt>
      <trkpt lat="43.85683" lon="7.00236">
        <ele>630</ele>
        <time>2011-08-21T07:14:57Z</time>
      </trkpt>
      <trkpt lat="43.85689" lon="7.00226">
        <ele>632</ele>
        <time>2011-08-21T07:15:07Z</time>
      </trkpt>
      <trkpt lat="43.85703" lon="7.00202">
        <ele>636</ele>
        <time>2011-08-21T07:15:23Z</time>
      </trkpt>
      <trkpt lat="43.85715" lon="7.00168">
        <ele>639</ele>
        <time>2011-08-21T07:15:41Z</time>
      </trkpt>
      <trkpt lat="43.8574" lon="7.00129">
        <ele>666</ele>
        <time>2011-08-21T07:16:06Z</time>
      </trkpt>
      <trkpt lat="43.85762" lon="7.00145">
        <ele>659</ele>
        <time>2011-08-21T07:16:24Z</time>
      </trkpt>
      <trkpt lat="43.85786" lon="7.0017">
        <ele>642</ele>
        <time>2011-08-21T07:16:42Z</time>
      </trkpt>
      <trkpt lat="43.85801" lon="7.00186">
        <ele>643</ele>
        <time>2011-08-21T07:16:54Z</time>
      </trkpt>
      <trkpt lat="43.85828" lon="7.00215">
        <ele>640</ele>
        <time>2011-08-21T07:17:14Z</time>
      </trkpt>
      <trkpt lat="43.85855" lon="7.00212">
        <ele>654</ele>
        <time>2011-08-21T07:17:31Z</time>
      </trkpt>
      <trkpt lat="43.85886" lon="7.00201">
        <ele>658</ele>
        <time>2011-08-21T07:17:50Z</time>
      </trkpt>
      <trkpt lat="43.85921" lon="7.00208">
        <ele>670</ele>
        <time>2011-08-21T07:18:11Z</time>
      </trkpt>
      <trkpt lat="43.85955" lon="7.00232">
        <ele>670</ele>
        <time>2011-08-21T07:18:32Z</time>
      </trkpt>
      <trkpt lat="43.8598" lon="7.00269">
        <ele>660</ele>
        <time>2011-08-21T07:18:52Z</time>
      </trkpt>
      <trkpt lat="43.86014" lon="7.00296">
        <ele>662</ele>
        <time>2011-08-21T07:19:14Z</time>
      </trkpt>
      <trkpt lat="43.86038" lon="7.00305">
        <ele>661</ele>
        <time>2011-08-21T07:19:29Z</time>
      </trkpt>
      <trkpt lat="43.86055" lon="7.00293">
        <ele>661</ele>
        <time>2011-08-21T07:19:41Z</time>
      </trkpt>
      <trkpt lat="43.86045" lon="7.00282">
        <ele>661</ele>
        <time>2011-08-21T07:19:51Z</time>
      </trkpt>
      <trkpt lat="43.86044" lon="7.00283">
        <ele>662</ele>
        <time>2011-08-21T07:19:52Z</time>
      </trkpt>
      <trkpt lat="43.86015" lon="7.0027">
        <ele>666</ele>
        <time>2011-08-21T07:20:08Z</time>
      </trkpt>
      <trkpt lat="43.85985" lon="7.00226">
        <ele>674</ele>
        <time>2011-08-21T07:20:25Z</time>
      </trkpt>
      <trkpt lat="43.85961" lon="7.00185">
        <ele>675</ele>
        <time>2011-08-21T07:20:41Z</time>
      </trkpt>
      <trkpt lat="43.85935" lon="7.00148">
        <ele>684</ele>
        <time>2011-08-21T07:20:57Z</time>
      </trkpt>
      <trkpt lat="43.85917" lon="7.00138">
        <ele>685</ele>
        <time>2011-08-21T07:21:05Z</time>
      </trkpt>
      <trkpt lat="43.85897" lon="7.0014">
        <ele>678</ele>
        <time>2011-08-21T07:21:16Z</time>
      </trkpt>
      <trkpt lat="43.85897" lon="7.00141">
        <ele>678</ele>
        <time>2011-08-21T07:21:40Z</time>
      </trkpt>
      <trkpt lat="43.85897" lon="7.0014">
        <ele>678</ele>
        <time>2011-08-21T07:25:39Z</time>
      </trkpt>
      <trkpt lat="43.85896" lon="7.00139">
        <ele>678</ele>
        <time>2011-08-21T07:26:06Z</time>
      </trkpt>
      <trkpt lat="43.85886" lon="7.00111">
        <ele>681</ele>
        <time>2011-08-21T07:26:18Z</time>
      </trkpt>
      <trkpt lat="43.85883" lon="7.00102">
        <ele>681</ele>
        <time>2011-08-21T07:26:22Z</time>
      </trkpt>
      <trkpt lat="43.85865" lon="7.00059">
        <ele>688</ele>
        <time>2011-08-21T07:26:37Z</time>
      </trkpt>
      <trkpt lat="43.85847" lon="7.00026">
        <ele>689</ele>
        <time>2011-08-21T07:26:50Z</time>
      </trkpt>
      <trkpt lat="43.85826" lon="6.99991">
        <ele>693</ele>
        <time>2011-08-21T07:27:04Z</time>
      </trkpt>
      <trkpt lat="43.85807" lon="6.99941">
        <ele>695</ele>
        <time>2011-08-21T07:27:20Z</time>
      </trkpt>
      <trkpt lat="43.85794" lon="6.99898">
        <ele>690</ele>
        <time>2011-08-21T07:27:32Z</time>
      </trkpt>
      <trkpt lat="43.85767" lon="6.99884">
        <ele>693</ele>
        <time>2011-08-21T07:27:41Z</time>
      </trkpt>
      <trkpt lat="43.85745" lon="6.99872">
        <ele>713</ele>
        <time>2011-08-21T07:27:49Z</time>
      </trkpt>
      <trkpt lat="43.85719" lon="6.99846">
        <ele>715</ele>
        <time>2011-08-21T07:27:59Z</time>
      </trkpt>
      <trkpt lat="43.85722" lon="6.9981">
        <ele>713</ele>
        <time>2011-08-21T07:28:09Z</time>
      </trkpt>
      <trkpt lat="43.85753" lon="6.99756">
        <ele>695</ele>
        <time>2011-08-21T07:28:25Z</time>
      </trkpt>
      <trkpt lat="43.85757" lon="6.99702">
        <ele>685</ele>
        <time>2011-08-21T07:28:39Z</time>
      </trkpt>
      <trkpt lat="43.85753" lon="6.99694">
        <ele>686</ele>
        <time>2011-08-21T07:28:42Z</time>
      </trkpt>
      <trkpt lat="43.85741" lon="6.9967">
        <ele>700</ele>
        <time>2011-08-21T07:28:51Z</time>
      </trkpt>
      <trkpt lat="43.85708" lon="6.99636">
        <ele>700</ele>
        <time>2011-08-21T07:29:03Z</time>
      </trkpt>
      <trkpt lat="43.85687" lon="6.99604">
        <ele>698</ele>
        <time>2011-08-21T07:29:14Z</time>
      </trkpt>
      <trkpt lat="43.85663" lon="6.99598">
        <ele>701</ele>
        <time>2011-08-21T07:29:24Z</time>
      </trkpt>
      <trkpt lat="43.8563" lon="6.99609">
        <ele>705</ele>
        <time>2011-08-21T07:29:38Z</time>
      </trkpt>
      <trkpt lat="43.85584" lon="6.99613">
        <ele>704</ele>
        <time>2011-08-21T07:29:55Z</time>
      </trkpt>
      <trkpt lat="43.8557" lon="6.99636">
        <ele>701</ele>
        <time>2011-08-21T07:30:03Z</time>
      </trkpt>
      <trkpt lat="43.85536" lon="6.99664">
        <ele>700</ele>
        <time>2011-08-21T07:30:16Z</time>
      </trkpt>
      <trkpt lat="43.85501" lon="6.99684">
        <ele>713</ele>
        <time>2011-08-21T07:30:30Z</time>
      </trkpt>
      <trkpt lat="43.85471" lon="6.99716">
        <ele>705</ele>
        <time>2011-08-21T07:30:43Z</time>
      </trkpt>
      <trkpt lat="43.85426" lon="6.99742">
        <ele>705</ele>
        <time>2011-08-21T07:30:58Z</time>
      </trkpt>
      <trkpt lat="43.85376" lon="6.99779">
        <ele>703</ele>
        <time>2011-08-21T07:31:16Z</time>
      </trkpt>
      <trkpt lat="43.85347" lon="6.99774">
        <ele>703</ele>
        <time>2011-08-21T07:31:28Z</time>
      </trkpt>
      <trkpt lat="43.85309" lon="6.99762">
        <ele>712</ele>
        <time>2011-08-21T07:31:45Z</time>
      </trkpt>
      <trkpt lat="43.85273" lon="6.99743">
        <ele>716</ele>
        <time>2011-08-21T07:32:02Z</time>
      </trkpt>
      <trkpt lat="43.85234" lon="6.99712">
        <ele>734</ele>
        <time>2011-08-21T07:32:22Z</time>
      </trkpt>
      <trkpt lat="43.85206" lon="6.99683">
        <ele>737</ele>
        <time>2011-08-21T07:32:38Z</time>
      </trkpt>
      <trkpt lat="43.85188" lon="6.99657">
        <ele>742</ele>
        <time>2011-08-21T07:32:51Z</time>
      </trkpt>
      <trkpt lat="43.852" lon="6.99608">
        <ele>740</ele>
        <time>2011-08-21T07:33:08Z</time>
      </trkpt>
      <trkpt lat="43.85214" lon="6.99565">
        <ele>739</ele>
        <time>2011-08-21T07:33:25Z</time>
      </trkpt>
      <trkpt lat="43.8521" lon="6.99529">
        <ele>740</ele>
        <time>2011-08-21T07:33:39Z</time>
      </trkpt>
      <trkpt lat="43.85201" lon="6.9948">
        <ele>739</ele>
        <time>2011-08-21T07:33:58Z</time>
      </trkpt>
      <trkpt lat="43.85183" lon="6.99458">
        <ele>741</ele>
        <time>2011-08-21T07:34:12Z</time>
      </trkpt>
      <trkpt lat="43.85161" lon="6.99434">
        <ele>768</ele>
        <time>2011-08-21T07:34:28Z</time>
      </trkpt>
      <trkpt lat="43.85159" lon="6.99428">
        <ele>766</ele>
        <time>2011-08-21T07:34:31Z</time>
      </trkpt>
      <trkpt lat="43.85153" lon="6.99387">
        <ele>772</ele>
        <time>2011-08-21T07:34:49Z</time>
      </trkpt>
      <trkpt lat="43.85153" lon="6.99339">
        <ele>769</ele>
        <time>2011-08-21T07:35:09Z</time>
      </trkpt>
      <trkpt lat="43.8517" lon="6.99287">
        <ele>748</ele>
        <time>2011-08-21T07:35:31Z</time>
      </trkpt>
      <trkpt lat="43.85187" lon="6.99226">
        <ele>752</ele>
        <time>2011-08-21T07:35:56Z</time>
      </trkpt>
      <trkpt lat="43.85178" lon="6.99183">
        <ele>758</ele>
        <time>2011-08-21T07:36:14Z</time>
      </trkpt>
      <trkpt lat="43.85168" lon="6.99153">
        <ele>762</ele>
        <time>2011-08-21T07:36:27Z</time>
      </trkpt>
      <trkpt lat="43.85147" lon="6.99128">
        <ele>790</ele>
        <time>2011-08-21T07:36:43Z</time>
      </trkpt>
      <trkpt lat="43.85143" lon="6.99116">
        <ele>790</ele>
        <time>2011-08-21T07:36:49Z</time>
      </trkpt>
      <trkpt lat="43.85127" lon="6.99085">
        <ele>794</ele>
        <time>2011-08-21T07:37:05Z</time>
      </trkpt>
      <trkpt lat="43.85126" lon="6.99042">
        <ele>796</ele>
        <time>2011-08-21T07:37:22Z</time>
      </trkpt>
      <trkpt lat="43.85131" lon="6.98987">
        <ele>802</ele>
        <time>2011-08-21T07:37:44Z</time>
      </trkpt>
      <trkpt lat="43.85147" lon="6.98948">
        <ele>803</ele>
        <time>2011-08-21T07:38:02Z</time>
      </trkpt>
      <trkpt lat="43.85162" lon="6.98938">
        <ele>800</ele>
        <time>2011-08-21T07:38:11Z</time>
      </trkpt>
      <trkpt lat="43.85156" lon="6.98923">
        <ele>800</ele>
        <time>2011-08-21T07:38:21Z</time>
      </trkpt>
      <trkpt lat="43.85146" lon="6.98928">
        <ele>803</ele>
        <time>2011-08-21T07:38:27Z</time>
      </trkpt>
      <trkpt lat="43.85121" lon="6.98961">
        <ele>808</ele>
        <time>2011-08-21T07:38:47Z</time>
      </trkpt>
      <trkpt lat="43.85111" lon="6.98989">
        <ele>809</ele>
        <time>2011-08-21T07:39:01Z</time>
      </trkpt>
      <trkpt lat="43.85098" lon="6.99033">
        <ele>804</ele>
        <time>2011-08-21T07:39:21Z</time>
      </trkpt>
      <trkpt lat="43.85086" lon="6.99078">
        <ele>814</ele>
        <time>2011-08-21T07:39:41Z</time>
      </trkpt>
      <trkpt lat="43.85085" lon="6.99094">
        <ele>811</ele>
        <time>2011-08-21T07:39:48Z</time>
      </trkpt>
      <trkpt lat="43.85083" lon="6.99104">
        <ele>834</ele>
        <time>2011-08-21T07:39:53Z</time>
      </trkpt>
      <trkpt lat="43.85084" lon="6.9911">
        <ele>806</ele>
        <time>2011-08-21T07:39:56Z</time>
      </trkpt>
      <trkpt lat="43.85089" lon="6.99135">
        <ele>805</ele>
        <time>2011-08-21T07:40:07Z</time>
      </trkpt>
      <trkpt lat="43.851" lon="6.99182">
        <ele>806</ele>
        <time>2011-08-21T07:40:27Z</time>
      </trkpt>
      <trkpt lat="43.85101" lon="6.99224">
        <ele>803</ele>
        <time>2011-08-21T07:40:45Z</time>
      </trkpt>
      <trkpt lat="43.85075" lon="6.99243">
        <ele>829</ele>
        <time>2011-08-21T07:41:03Z</time>
      </trkpt>
      <trkpt lat="43.85068" lon="6.99249">
        <ele>832</ele>
        <time>2011-08-21T07:41:08Z</time>
      </trkpt>
      <trkpt lat="43.85064" lon="6.99257">
        <ele>832</ele>
        <time>2011-08-21T07:41:12Z</time>
      </trkpt>
      <trkpt lat="43.85056" lon="6.99264">
        <ele>836</ele>
        <time>2011-08-21T07:41:16Z</time>
      </trkpt>
      <trkpt lat="43.85048" lon="6.99286">
        <ele>839</ele>
        <time>2011-08-21T07:41:26Z</time>
      </trkpt>
      <trkpt lat="43.85045" lon="6.99295">
        <ele>839</ele>
        <time>2011-08-21T07:41:30Z</time>
      </trkpt>
      <trkpt lat="43.85039" lon="6.99312">
        <ele>841</ele>
        <time>2011-08-21T07:41:38Z</time>
      </trkpt>
      <trkpt lat="43.85035" lon="6.99318">
        <ele>842</ele>
        <time>2011-08-21T07:41:41Z</time>
      </trkpt>
      <trkpt lat="43.85034" lon="6.99326">
        <ele>843</ele>
        <time>2011-08-21T07:41:45Z</time>
      </trkpt>
      <trkpt lat="43.85032" lon="6.99336">
        <ele>839</ele>
        <time>2011-08-21T07:41:48Z</time>
      </trkpt>
      <trkpt lat="43.85029" lon="6.99343">
        <ele>839</ele>
        <time>2011-08-21T07:41:51Z</time>
      </trkpt>
      <trkpt lat="43.85022" lon="6.9937">
        <ele>839</ele>
        <time>2011-08-21T07:42:01Z</time>
      </trkpt>
      <trkpt lat="43.85025" lon="6.9938">
        <ele>837</ele>
        <time>2011-08-21T07:42:04Z</time>
      </trkpt>
      <trkpt lat="43.85025" lon="6.99428">
        <ele>839</ele>
        <time>2011-08-21T07:42:22Z</time>
      </trkpt>
      <trkpt lat="43.85022" lon="6.99466">
        <ele>840</ele>
        <time>2011-08-21T07:42:39Z</time>
      </trkpt>
      <trkpt lat="43.85021" lon="6.99474">
        <ele>841</ele>
        <time>2011-08-21T07:42:43Z</time>
      </trkpt>
      <trkpt lat="43.85025" lon="6.9951">
        <ele>847</ele>
        <time>2011-08-21T07:42:58Z</time>
      </trkpt>
      <trkpt lat="43.85028" lon="6.99517">
        <ele>845</ele>
        <time>2011-08-21T07:43:00Z</time>
      </trkpt>
      <trkpt lat="43.85032" lon="6.99524">
        <ele>844</ele>
        <time>2011-08-21T07:43:03Z</time>
      </trkpt>
      <trkpt lat="43.85023" lon="6.9953">
        <ele>846</ele>
        <time>2011-08-21T07:43:13Z</time>
      </trkpt>
      <trkpt lat="43.85022" lon="6.99526">
        <ele>847</ele>
        <time>2011-08-21T07:43:15Z</time>
      </trkpt>
      <trkpt lat="43.85013" lon="6.9948">
        <ele>845</ele>
        <time>2011-08-21T07:43:32Z</time>
      </trkpt>
      <trkpt lat="43.85003" lon="6.99422">
        <ele>850</ele>
        <time>2011-08-21T07:43:54Z</time>
      </trkpt>
      <trkpt lat="43.84997" lon="6.99378">
        <ele>881</ele>
        <time>2011-08-21T07:44:10Z</time>
      </trkpt>
      <trkpt lat="43.84996" lon="6.99329">
        <ele>873</ele>
        <time>2011-08-21T07:44:27Z</time>
      </trkpt>
      <trkpt lat="43.85003" lon="6.9927">
        <ele>857</ele>
        <time>2011-08-21T07:44:48Z</time>
      </trkpt>
      <trkpt lat="43.85014" lon="6.99204">
        <ele>857</ele>
        <time>2011-08-21T07:45:13Z</time>
      </trkpt>
      <trkpt lat="43.85009" lon="6.99151">
        <ele>864</ele>
        <time>2011-08-21T07:45:33Z</time>
      </trkpt>
      <trkpt lat="43.85004" lon="6.99104">
        <ele>864</ele>
        <time>2011-08-21T07:45:51Z</time>
      </trkpt>
      <trkpt lat="43.85002" lon="6.99067">
        <ele>867</ele>
        <time>2011-08-21T07:46:05Z</time>
      </trkpt>
      <trkpt lat="43.8501" lon="6.99013">
        <ele>872</ele>
        <time>2011-08-21T07:46:25Z</time>
      </trkpt>
      <trkpt lat="43.85014" lon="6.98963">
        <ele>873</ele>
        <time>2011-08-21T07:46:43Z</time>
      </trkpt>
      <trkpt lat="43.85022" lon="6.98909">
        <ele>886</ele>
        <time>2011-08-21T07:47:02Z</time>
      </trkpt>
      <trkpt lat="43.85037" lon="6.98864">
        <ele>878</ele>
        <time>2011-08-21T07:47:20Z</time>
      </trkpt>
      <trkpt lat="43.85048" lon="6.98809">
        <ele>877</ele>
        <time>2011-08-21T07:47:41Z</time>
      </trkpt>
      <trkpt lat="43.85041" lon="6.98761">
        <ele>879</ele>
        <time>2011-08-21T07:48:00Z</time>
      </trkpt>
      <trkpt lat="43.85034" lon="6.98722">
        <ele>872</ele>
        <time>2011-08-21T07:48:14Z</time>
      </trkpt>
      <trkpt lat="43.85018" lon="6.98692">
        <ele>872</ele>
        <time>2011-08-21T07:48:32Z</time>
      </trkpt>
      <trkpt lat="43.84998" lon="6.98705">
        <ele>875</ele>
        <time>2011-08-21T07:48:40Z</time>
      </trkpt>
      <trkpt lat="43.84952" lon="6.98744">
        <ele>873</ele>
        <time>2011-08-21T07:48:50Z</time>
      </trkpt>
      <trkpt lat="43.84937" lon="6.98756">
        <ele>886</ele>
        <time>2011-08-21T07:48:53Z</time>
      </trkpt>
      <trkpt lat="43.84925" lon="6.98781">
        <ele>892</ele>
        <time>2011-08-21T07:48:58Z</time>
      </trkpt>
      <trkpt lat="43.84913" lon="6.98806">
        <ele>882</ele>
        <time>2011-08-21T07:49:03Z</time>
      </trkpt>
      <trkpt lat="43.8489" lon="6.98836">
        <ele>903</ele>
        <time>2011-08-21T07:49:13Z</time>
      </trkpt>
      <trkpt lat="43.84879" lon="6.98844">
        <ele>901</ele>
        <time>2011-08-21T07:49:17Z</time>
      </trkpt>
      <trkpt lat="43.8487" lon="6.9885">
        <ele>898</ele>
        <time>2011-08-21T07:49:20Z</time>
      </trkpt>
      <trkpt lat="43.84835" lon="6.98882">
        <ele>899</ele>
        <time>2011-08-21T07:49:33Z</time>
      </trkpt>
      <trkpt lat="43.84795" lon="6.98915">
        <ele>871</ele>
        <time>2011-08-21T07:49:46Z</time>
      </trkpt>
      <trkpt lat="43.84773" lon="6.98985">
        <ele>895</ele>
        <time>2011-08-21T07:50:00Z</time>
      </trkpt>
      <trkpt lat="43.8477" lon="6.98988">
        <ele>895</ele>
        <time>2011-08-21T07:50:01Z</time>
      </trkpt>
      <trkpt lat="43.84765" lon="6.99001">
        <ele>906</ele>
        <time>2011-08-21T07:50:04Z</time>
      </trkpt>
      <trkpt lat="43.84753" lon="6.99012">
        <ele>903</ele>
        <time>2011-08-21T07:50:08Z</time>
      </trkpt>
      <trkpt lat="43.84727" lon="6.99031">
        <ele>884</ele>
        <time>2011-08-21T07:50:20Z</time>
      </trkpt>
      <trkpt lat="43.84723" lon="6.99044">
        <ele>885</ele>
        <time>2011-08-21T07:50:24Z</time>
      </trkpt>
      <trkpt lat="43.84723" lon="6.99068">
        <ele>890</ele>
        <time>2011-08-21T07:50:30Z</time>
      </trkpt>
      <trkpt lat="43.84718" lon="6.99091">
        <ele>903</ele>
        <time>2011-08-21T07:50:34Z</time>
      </trkpt>
      <trkpt lat="43.84689" lon="6.9913">
        <ele>900</ele>
        <time>2011-08-21T07:50:41Z</time>
      </trkpt>
      <trkpt lat="43.84661" lon="6.99152">
        <ele>883</ele>
        <time>2011-08-21T07:50:48Z</time>
      </trkpt>
      <trkpt lat="43.84646" lon="6.99196">
        <ele>889</ele>
        <time>2011-08-21T07:50:59Z</time>
      </trkpt>
      <trkpt lat="43.84635" lon="6.99205">
        <ele>887</ele>
        <time>2011-08-21T07:51:02Z</time>
      </trkpt>
      <trkpt lat="43.8462" lon="6.99217">
        <ele>885</ele>
        <time>2011-08-21T07:51:06Z</time>
      </trkpt>
      <trkpt lat="43.84615" lon="6.99244">
        <ele>884</ele>
        <time>2011-08-21T07:51:10Z</time>
      </trkpt>
      <trkpt lat="43.84598" lon="6.99278">
        <ele>890</ele>
        <time>2011-08-21T07:51:15Z</time>
      </trkpt>
      <trkpt lat="43.8458" lon="6.99323">
        <ele>877</ele>
        <time>2011-08-21T07:51:24Z</time>
      </trkpt>
      <trkpt lat="43.84571" lon="6.99346">
        <ele>881</ele>
        <time>2011-08-21T07:51:38Z</time>
      </trkpt>
      <trkpt lat="43.84542" lon="6.99382">
        <ele>881</ele>
        <time>2011-08-21T07:51:51Z</time>
      </trkpt>
      <trkpt lat="43.84508" lon="6.99375">
        <ele>877</ele>
        <time>2011-08-21T07:52:02Z</time>
      </trkpt>
      <trkpt lat="43.845" lon="6.99358">
        <ele>875</ele>
        <time>2011-08-21T07:52:07Z</time>
      </trkpt>
      <trkpt lat="43.84497" lon="6.99356">
        <ele>867</ele>
        <time>2011-08-21T07:52:21Z</time>
      </trkpt>
      <trkpt lat="43.84497" lon="6.99342">
        <ele>867</ele>
        <time>2011-08-21T07:52:27Z</time>
      </trkpt>
      <trkpt lat="43.8448" lon="6.9933">
        <ele>863</ele>
        <time>2011-08-21T07:52:37Z</time>
      </trkpt>
      <trkpt lat="43.84476" lon="6.99334">
        <ele>866</ele>
        <time>2011-08-21T07:52:39Z</time>
      </trkpt>
      <trkpt lat="43.84457" lon="6.99322">
        <ele>860</ele>
        <time>2011-08-21T07:52:47Z</time>
      </trkpt>
      <trkpt lat="43.84443" lon="6.99265">
        <ele>857</ele>
        <time>2011-08-21T07:53:00Z</time>
      </trkpt>
      <trkpt lat="43.84425" lon="6.99237">
        <ele>853</ele>
        <time>2011-08-21T07:53:09Z</time>
      </trkpt>
      <trkpt lat="43.84418" lon="6.99236">
        <ele>853</ele>
        <time>2011-08-21T07:53:21Z</time>
      </trkpt>
      <trkpt lat="43.84405" lon="6.99256">
        <ele>856</ele>
        <time>2011-08-21T07:53:35Z</time>
      </trkpt>
      <trkpt lat="43.84399" lon="6.99296">
        <ele>856</ele>
        <time>2011-08-21T07:53:46Z</time>
      </trkpt>
      <trkpt lat="43.84399" lon="6.99323">
        <ele>857</ele>
        <time>2011-08-21T07:53:52Z</time>
      </trkpt>
      <trkpt lat="43.84361" lon="6.99341">
        <ele>853</ele>
        <time>2011-08-21T07:54:04Z</time>
      </trkpt>
      <trkpt lat="43.84338" lon="6.99355">
        <ele>852</ele>
        <time>2011-08-21T07:54:16Z</time>
      </trkpt>
      <trkpt lat="43.8434" lon="6.99352">
        <ele>852</ele>
        <time>2011-08-21T07:59:02Z</time>
      </trkpt>
      <trkpt lat="43.8434" lon="6.99351">
        <ele>852</ele>
        <time>2011-08-21T07:59:18Z</time>
      </trkpt>
      <trkpt lat="43.84342" lon="6.9935">
        <ele>852</ele>
        <time>2011-08-21T07:59:32Z</time>
      </trkpt>
      <trkpt lat="43.84369" lon="6.99342">
        <ele>853</ele>
        <time>2011-08-21T07:59:49Z</time>
      </trkpt>
      <trkpt lat="43.84398" lon="6.99329">
        <ele>857</ele>
        <time>2011-08-21T08:00:07Z</time>
      </trkpt>
      <trkpt lat="43.84399" lon="6.99324">
        <ele>857</ele>
        <time>2011-08-21T08:00:09Z</time>
      </trkpt>
      <trkpt lat="43.84402" lon="6.99315">
        <ele>857</ele>
        <time>2011-08-21T08:00:13Z</time>
      </trkpt>
      <trkpt lat="43.84402" lon="6.9927">
        <ele>856</ele>
        <time>2011-08-21T08:00:31Z</time>
      </trkpt>
      <trkpt lat="43.84419" lon="6.99239">
        <ele>854</ele>
        <time>2011-08-21T08:00:48Z</time>
      </trkpt>
      <trkpt lat="43.84423" lon="6.99234">
        <ele>853</ele>
        <time>2011-08-21T08:00:58Z</time>
      </trkpt>
      <trkpt lat="43.84421" lon="6.99229">
        <ele>853</ele>
        <time>2011-08-21T08:01:31Z</time>
      </trkpt>
      <trkpt lat="43.84423" lon="6.99233">
        <ele>853</ele>
        <time>2011-08-21T08:02:02Z</time>
      </trkpt>
      <trkpt lat="43.84423" lon="6.99233">
        <ele>853</ele>
        <time>2011-08-21T08:02:55Z</time>
      </trkpt>
      <trkpt lat="43.84425" lon="6.99233">
        <ele>853</ele>
        <time>2011-08-21T08:04:36Z</time>
      </trkpt>
      <trkpt lat="43.84424" lon="6.99232">
        <ele>853</ele>
        <time>2011-08-21T08:35:27Z</time>
      </trkpt>
      <trkpt lat="43.84396" lon="6.99194">
        <ele>856</ele>
        <time>2011-08-21T08:35:39Z</time>
      </trkpt>
      <trkpt lat="43.84392" lon="6.99191">
        <ele>856</ele>
        <time>2011-08-21T08:35:40Z</time>
      </trkpt>
      <trkpt lat="43.84362" lon="6.99164">
        <ele>856</ele>
        <time>2011-08-21T08:35:52Z</time>
      </trkpt>
      <trkpt lat="43.84336" lon="6.99129">
        <ele>856</ele>
        <time>2011-08-21T08:36:14Z</time>
      </trkpt>
      <trkpt lat="43.84317" lon="6.99105">
        <ele>867</ele>
        <time>2011-08-21T08:36:30Z</time>
      </trkpt>
      <trkpt lat="43.84308" lon="6.99109">
        <ele>869</ele>
        <time>2011-08-21T08:36:37Z</time>
      </trkpt>
      <trkpt lat="43.84291" lon="6.99151">
        <ele>873</ele>
        <time>2011-08-21T08:36:57Z</time>
      </trkpt>
      <trkpt lat="43.84267" lon="6.99182">
        <ele>877</ele>
        <time>2011-08-21T08:37:17Z</time>
      </trkpt>
      <trkpt lat="43.84251" lon="6.99208">
        <ele>875</ele>
        <time>2011-08-21T08:37:33Z</time>
      </trkpt>
      <trkpt lat="43.84249" lon="6.99213">
        <ele>893</ele>
        <time>2011-08-21T08:37:36Z</time>
      </trkpt>
      <trkpt lat="43.84245" lon="6.99216">
        <ele>893</ele>
        <time>2011-08-21T08:37:39Z</time>
      </trkpt>
      <trkpt lat="43.84222" lon="6.99247">
        <ele>895</ele>
        <time>2011-08-21T08:38:00Z</time>
      </trkpt>
      <trkpt lat="43.84216" lon="6.99263">
        <ele>890</ele>
        <time>2011-08-21T08:38:17Z</time>
      </trkpt>
      <trkpt lat="43.84201" lon="6.99295">
        <ele>892</ele>
        <time>2011-08-21T08:38:35Z</time>
      </trkpt>
      <trkpt lat="43.84197" lon="6.99303">
        <ele>892</ele>
        <time>2011-08-21T08:38:40Z</time>
      </trkpt>
      <trkpt lat="43.84177" lon="6.99333">
        <ele>898</ele>
        <time>2011-08-21T08:38:58Z</time>
      </trkpt>
      <trkpt lat="43.84166" lon="6.99364">
        <ele>917</ele>
        <time>2011-08-21T08:39:17Z</time>
      </trkpt>
      <trkpt lat="43.84165" lon="6.99367">
        <ele>917</ele>
        <time>2011-08-21T08:39:26Z</time>
      </trkpt>
      <trkpt lat="43.84163" lon="6.99379">
        <ele>916</ele>
        <time>2011-08-21T08:39:43Z</time>
      </trkpt>
      <trkpt lat="43.84161" lon="6.99381">
        <ele>916</ele>
        <time>2011-08-21T08:40:21Z</time>
      </trkpt>
      <trkpt lat="43.84157" lon="6.99389">
        <ele>915</ele>
        <time>2011-08-21T08:40:26Z</time>
      </trkpt>
      <trkpt lat="43.84147" lon="6.99411">
        <ele>912</ele>
        <time>2011-08-21T08:40:38Z</time>
      </trkpt>
      <trkpt lat="43.84129" lon="6.99452">
        <ele>914</ele>
        <time>2011-08-21T08:41:01Z</time>
      </trkpt>
      <trkpt lat="43.84117" lon="6.99486">
        <ele>917</ele>
        <time>2011-08-21T08:41:19Z</time>
      </trkpt>
      <trkpt lat="43.84101" lon="6.99526">
        <ele>913</ele>
        <time>2011-08-21T08:41:38Z</time>
      </trkpt>
      <trkpt lat="43.84093" lon="6.99555">
        <ele>912</ele>
        <time>2011-08-21T08:41:51Z</time>
      </trkpt>
      <trkpt lat="43.84091" lon="6.99563">
        <ele>913</ele>
        <time>2011-08-21T08:41:55Z</time>
      </trkpt>
      <trkpt lat="43.84079" lon="6.99613">
        <ele>938</ele>
        <time>2011-08-21T08:42:17Z</time>
      </trkpt>
      <trkpt lat="43.84072" lon="6.99654">
        <ele>931</ele>
        <time>2011-08-21T08:42:35Z</time>
      </trkpt>
      <trkpt lat="43.84072" lon="6.9967">
        <ele>922</ele>
        <time>2011-08-21T08:42:42Z</time>
      </trkpt>
      <trkpt lat="43.84054" lon="6.99719">
        <ele>929</ele>
        <time>2011-08-21T08:43:04Z</time>
      </trkpt>
      <trkpt lat="43.84029" lon="6.99771">
        <ele>926</ele>
        <time>2011-08-21T08:43:30Z</time>
      </trkpt>
      <trkpt lat="43.84012" lon="6.99794">
        <ele>927</ele>
        <time>2011-08-21T08:43:44Z</time>
      </trkpt>
      <trkpt lat="43.84006" lon="6.99802">
        <ele>928</ele>
        <time>2011-08-21T08:43:49Z</time>
      </trkpt>
      <trkpt lat="43.8399" lon="6.99848">
        <ele>945</ele>
        <time>2011-08-21T08:44:11Z</time>
      </trkpt>
      <trkpt lat="43.83968" lon="6.99898">
        <ele>946</ele>
        <time>2011-08-21T08:44:37Z</time>
      </trkpt>
      <trkpt lat="43.83959" lon="6.99949">
        <ele>935</ele>
        <time>2011-08-21T08:45:01Z</time>
      </trkpt>
      <trkpt lat="43.83929" lon="6.99966">
        <ele>939</ele>
        <time>2011-08-21T08:45:22Z</time>
      </trkpt>
      <trkpt lat="43.83899" lon="6.99973">
        <ele>967</ele>
        <time>2011-08-21T08:45:41Z</time>
      </trkpt>
      <trkpt lat="43.83873" lon="7.00015">
        <ele>963</ele>
        <time>2011-08-21T08:46:04Z</time>
      </trkpt>
      <trkpt lat="43.83862" lon="7.00053">
        <ele>964</ele>
        <time>2011-08-21T08:46:22Z</time>
      </trkpt>
      <trkpt lat="43.83853" lon="7.00099">
        <ele>962</ele>
        <time>2011-08-21T08:46:43Z</time>
      </trkpt>
      <trkpt lat="43.8385" lon="7.00151">
        <ele>961</ele>
        <time>2011-08-21T08:47:08Z</time>
      </trkpt>
      <trkpt lat="43.83841" lon="7.00196">
        <ele>957</ele>
        <time>2011-08-21T08:47:31Z</time>
      </trkpt>
      <trkpt lat="43.83826" lon="7.00245">
        <ele>977</ele>
        <time>2011-08-21T08:47:56Z</time>
      </trkpt>
      <trkpt lat="43.83813" lon="7.00282">
        <ele>983</ele>
        <time>2011-08-21T08:48:18Z</time>
      </trkpt>
      <trkpt lat="43.83801" lon="7.00326">
        <ele>984</ele>
        <time>2011-08-21T08:48:42Z</time>
      </trkpt>
      <trkpt lat="43.83798" lon="7.00362">
        <ele>984</ele>
        <time>2011-08-21T08:49:01Z</time>
      </trkpt>
      <trkpt lat="43.83792" lon="7.0039">
        <ele>985</ele>
        <time>2011-08-21T08:49:15Z</time>
      </trkpt>
      <trkpt lat="43.83768" lon="7.00419">
        <ele>991</ele>
        <time>2011-08-21T08:49:38Z</time>
      </trkpt>
      <trkpt lat="43.83751" lon="7.00447">
        <ele>989</ele>
        <time>2011-08-21T08:49:56Z</time>
      </trkpt>
      <trkpt lat="43.83739" lon="7.0049">
        <ele>1007</ele>
        <time>2011-08-21T08:50:17Z</time>
      </trkpt>
      <trkpt lat="43.8373" lon="7.00529">
        <ele>1014</ele>
        <time>2011-08-21T08:50:34Z</time>
      </trkpt>
      <trkpt lat="43.83728" lon="7.00563">
        <ele>1013</ele>
        <time>2011-08-21T08:50:49Z</time>
      </trkpt>
      <trkpt lat="43.83722" lon="7.00566">
        <ele>1015</ele>
        <time>2011-08-21T08:50:56Z</time>
      </trkpt>
      <trkpt lat="43.83725" lon="7.00537">
        <ele>1016</ele>
        <time>2011-08-21T08:51:09Z</time>
      </trkpt>
      <trkpt lat="43.83731" lon="7.00495">
        <ele>1011</ele>
        <time>2011-08-21T08:51:25Z</time>
      </trkpt>
      <trkpt lat="43.83731" lon="7.00448">
        <ele>1016</ele>
        <time>2011-08-21T08:51:44Z</time>
      </trkpt>
      <trkpt lat="43.83732" lon="7.00392">
        <ele>1015</ele>
        <time>2011-08-21T08:52:07Z</time>
      </trkpt>
      <trkpt lat="43.83729" lon="7.00353">
        <ele>1015</ele>
        <time>2011-08-21T08:52:24Z</time>
      </trkpt>
      <trkpt lat="43.83723" lon="7.0031">
        <ele>1017</ele>
        <time>2011-08-21T08:52:41Z</time>
      </trkpt>
      <trkpt lat="43.83727" lon="7.00245">
        <ele>1021</ele>
        <time>2011-08-21T08:53:05Z</time>
      </trkpt>
      <trkpt lat="43.83737" lon="7.00219">
        <ele>1024</ele>
        <time>2011-08-21T08:53:17Z</time>
      </trkpt>
      <trkpt lat="43.83729" lon="7.00216">
        <ele>1025</ele>
        <time>2011-08-21T08:53:25Z</time>
      </trkpt>
      <trkpt lat="43.83728" lon="7.00219">
        <ele>1025</ele>
        <time>2011-08-21T08:53:26Z</time>
      </trkpt>
      <trkpt lat="43.83706" lon="7.00268">
        <ele>1022</ele>
        <time>2011-08-21T08:53:44Z</time>
      </trkpt>
      <trkpt lat="43.83693" lon="7.00305">
        <ele>1023</ele>
        <time>2011-08-21T08:53:59Z</time>
      </trkpt>
      <trkpt lat="43.83689" lon="7.00313">
        <ele>1024</ele>
        <time>2011-08-21T08:54:03Z</time>
      </trkpt>
      <trkpt lat="43.83676" lon="7.00364">
        <ele>1026</ele>
        <time>2011-08-21T08:54:24Z</time>
      </trkpt>
      <trkpt lat="43.83683" lon="7.00409">
        <ele>1029</ele>
        <time>2011-08-21T08:54:42Z</time>
      </trkpt>
      <trkpt lat="43.83673" lon="7.00401">
        <ele>1030</ele>
        <time>2011-08-21T08:54:51Z</time>
      </trkpt>
      <trkpt lat="43.83661" lon="7.00362">
        <ele>1046</ele>
        <time>2011-08-21T08:55:07Z</time>
      </trkpt>
      <trkpt lat="43.83653" lon="7.00316">
        <ele>1044</ele>
        <time>2011-08-21T08:55:26Z</time>
      </trkpt>
      <trkpt lat="43.83651" lon="7.00303">
        <ele>1046</ele>
        <time>2011-08-21T08:55:31Z</time>
      </trkpt>
      <trkpt lat="43.83649" lon="7.00258">
        <ele>1045</ele>
        <time>2011-08-21T08:55:50Z</time>
      </trkpt>
      <trkpt lat="43.83654" lon="7.00199">
        <ele>1054</ele>
        <time>2011-08-21T08:56:15Z</time>
      </trkpt>
      <trkpt lat="43.83677" lon="7.0015">
        <ele>1046</ele>
        <time>2011-08-21T08:56:37Z</time>
      </trkpt>
      <trkpt lat="43.83691" lon="7.00119">
        <ele>1045</ele>
        <time>2011-08-21T08:56:53Z</time>
      </trkpt>
      <trkpt lat="43.83697" lon="7.00075">
        <ele>1052</ele>
        <time>2011-08-21T08:57:13Z</time>
      </trkpt>
      <trkpt lat="43.83702" lon="7.00025">
        <ele>1052</ele>
        <time>2011-08-21T08:57:35Z</time>
      </trkpt>
      <trkpt lat="43.83703" lon="6.99989">
        <ele>1058</ele>
        <time>2011-08-21T08:57:50Z</time>
      </trkpt>
      <trkpt lat="43.83696" lon="6.99989">
        <ele>1059</ele>
        <time>2011-08-21T08:57:57Z</time>
      </trkpt>
      <trkpt lat="43.83684" lon="7.00029">
        <ele>1055</ele>
        <time>2011-08-21T08:58:17Z</time>
      </trkpt>
      <trkpt lat="43.83665" lon="7.00044">
        <ele>1070</ele>
        <time>2011-08-21T08:58:32Z</time>
      </trkpt>
      <trkpt lat="43.83647" lon="7.00065">
        <ele>1070</ele>
        <time>2011-08-21T08:58:46Z</time>
      </trkpt>
      <trkpt lat="43.83618" lon="7.00077">
        <ele>1074</ele>
        <time>2011-08-21T08:59:03Z</time>
      </trkpt>
      <trkpt lat="43.83591" lon="7.00111">
        <ele>1071</ele>
        <time>2011-08-21T08:59:25Z</time>
      </trkpt>
      <trkpt lat="43.83576" lon="7.00157">
        <ele>1080</ele>
        <time>2011-08-21T08:59:46Z</time>
      </trkpt>
      <trkpt lat="43.83559" lon="7.00185">
        <ele>1082</ele>
        <time>2011-08-21T09:00:04Z</time>
      </trkpt>
      <trkpt lat="43.8356" lon="7.00185">
        <ele>1082</ele>
        <time>2011-08-21T09:00:32Z</time>
      </trkpt>
      <trkpt lat="43.83553" lon="7.00197">
        <ele>1084</ele>
        <time>2011-08-21T09:01:18Z</time>
      </trkpt>
      <trkpt lat="43.83544" lon="7.00219">
        <ele>1085</ele>
        <time>2011-08-21T09:01:39Z</time>
      </trkpt>
      <trkpt lat="43.83539" lon="7.0024">
        <ele>1086</ele>
        <time>2011-08-21T09:01:57Z</time>
      </trkpt>
      <trkpt lat="43.8353" lon="7.00269">
        <ele>1087</ele>
        <time>2011-08-21T09:02:17Z</time>
      </trkpt>
      <trkpt lat="43.8353" lon="7.00275">
        <ele>1087</ele>
        <time>2011-08-21T09:02:34Z</time>
      </trkpt>
      <trkpt lat="43.83529" lon="7.00285">
        <ele>1087</ele>
        <time>2011-08-21T09:02:40Z</time>
      </trkpt>
      <trkpt lat="43.83525" lon="7.00278">
        <ele>1088</ele>
        <time>2011-08-21T09:02:49Z</time>
      </trkpt>
      <trkpt lat="43.83528" lon="7.00238">
        <ele>1089</ele>
        <time>2011-08-21T09:03:14Z</time>
      </trkpt>
      <trkpt lat="43.83526" lon="7.00209">
        <ele>1089</ele>
        <time>2011-08-21T09:03:33Z</time>
      </trkpt>
      <trkpt lat="43.83527" lon="7.00199">
        <ele>1089</ele>
        <time>2011-08-21T09:03:51Z</time>
      </trkpt>
      <trkpt lat="43.83526" lon="7.00202">
        <ele>1089</ele>
        <time>2011-08-21T09:04:38Z</time>
      </trkpt>
      <trkpt lat="43.83526" lon="7.00206">
        <ele>1089</ele>
        <time>2011-08-21T09:04:53Z</time>
      </trkpt>
      <trkpt lat="43.83525" lon="7.00215">
        <ele>1089</ele>
        <time>2011-08-21T09:05:09Z</time>
      </trkpt>
      <trkpt lat="43.83527" lon="7.00237">
        <ele>1089</ele>
        <time>2011-08-21T09:05:26Z</time>
      </trkpt>
      <trkpt lat="43.83525" lon="7.00273">
        <ele>1088</ele>
        <time>2011-08-21T09:05:44Z</time>
      </trkpt>
      <trkpt lat="43.83525" lon="7.00283">
        <ele>1088</ele>
        <time>2011-08-21T09:05:49Z</time>
      </trkpt>
      <trkpt lat="43.83532" lon="7.00278">
        <ele>1086</ele>
        <time>2011-08-21T09:05:57Z</time>
      </trkpt>
      <trkpt lat="43.83532" lon="7.00263">
        <ele>1087</ele>
        <time>2011-08-21T09:06:11Z</time>
      </trkpt>
      <trkpt lat="43.83542" lon="7.00233">
        <ele>1085</ele>
        <time>2011-08-21T09:06:29Z</time>
      </trkpt>
      <trkpt lat="43.83556" lon="7.00191">
        <ele>1083</ele>
        <time>2011-08-21T09:06:54Z</time>
      </trkpt>
      <trkpt lat="43.83577" lon="7.00155">
        <ele>1080</ele>
        <time>2011-08-21T09:07:18Z</time>
      </trkpt>
      <trkpt lat="43.83587" lon="7.00116">
        <ele>1070</ele>
        <time>2011-08-21T09:07:39Z</time>
      </trkpt>
      <trkpt lat="43.83607" lon="7.00087">
        <ele>1071</ele>
        <time>2011-08-21T09:08:00Z</time>
      </trkpt>
      <trkpt lat="43.83615" lon="7.00079">
        <ele>1074</ele>
        <time>2011-08-21T09:08:14Z</time>
      </trkpt>
      <trkpt lat="43.83629" lon="7.00071">
        <ele>1072</ele>
        <time>2011-08-21T09:08:32Z</time>
      </trkpt>
      <trkpt lat="43.83647" lon="7.00062">
        <ele>1070</ele>
        <time>2011-08-21T09:08:49Z</time>
      </trkpt>
      <trkpt lat="43.83665" lon="7.00043">
        <ele>1070</ele>
        <time>2011-08-21T09:09:07Z</time>
      </trkpt>
      <trkpt lat="43.83686" lon="7.00027">
        <ele>1055</ele>
        <time>2011-08-21T09:09:25Z</time>
      </trkpt>
      <trkpt lat="43.83696" lon="6.99991">
        <ele>1059</ele>
        <time>2011-08-21T09:09:47Z</time>
      </trkpt>
      <trkpt lat="43.83701" lon="6.99985">
        <ele>1058</ele>
        <time>2011-08-21T09:09:53Z</time>
      </trkpt>
      <trkpt lat="43.83703" lon="6.99994">
        <ele>1058</ele>
        <time>2011-08-21T09:10:00Z</time>
      </trkpt>
      <trkpt lat="43.83701" lon="7.00025">
        <ele>1052</ele>
        <time>2011-08-21T09:10:20Z</time>
      </trkpt>
      <trkpt lat="43.83701" lon="7.00029">
        <ele>1052</ele>
        <time>2011-08-21T09:10:40Z</time>
      </trkpt>
      <trkpt lat="43.837" lon="7.00049">
        <ele>1051</ele>
        <time>2011-08-21T09:10:54Z</time>
      </trkpt>
      <trkpt lat="43.83696" lon="7.00079">
        <ele>1052</ele>
        <time>2011-08-21T09:11:15Z</time>
      </trkpt>
      <trkpt lat="43.83691" lon="7.00111">
        <ele>1046</ele>
        <time>2011-08-21T09:11:34Z</time>
      </trkpt>
      <trkpt lat="43.83679" lon="7.00143">
        <ele>1046</ele>
        <time>2011-08-21T09:11:54Z</time>
      </trkpt>
      <trkpt lat="43.83664" lon="7.00175">
        <ele>1053</ele>
        <time>2011-08-21T09:12:14Z</time>
      </trkpt>
      <trkpt lat="43.83659" lon="7.00183">
        <ele>1054</ele>
        <time>2011-08-21T09:12:30Z</time>
      </trkpt>
      <trkpt lat="43.83648" lon="7.00222">
        <ele>1052</ele>
        <time>2011-08-21T09:12:52Z</time>
      </trkpt>
      <trkpt lat="43.83649" lon="7.00263">
        <ele>1046</ele>
        <time>2011-08-21T09:13:13Z</time>
      </trkpt>
      <trkpt lat="43.83652" lon="7.00311">
        <ele>1045</ele>
        <time>2011-08-21T09:13:39Z</time>
      </trkpt>
      <trkpt lat="43.83662" lon="7.00368">
        <ele>1047</ele>
        <time>2011-08-21T09:14:11Z</time>
      </trkpt>
      <trkpt lat="43.83665" lon="7.00384">
        <ele>1048</ele>
        <time>2011-08-21T09:14:28Z</time>
      </trkpt>
      <trkpt lat="43.83664" lon="7.00389">
        <ele>1047</ele>
        <time>2011-08-21T09:14:45Z</time>
      </trkpt>
      <trkpt lat="43.83664" lon="7.0039">
        <ele>1047</ele>
        <time>2011-08-21T09:14:46Z</time>
      </trkpt>
      <trkpt lat="43.83662" lon="7.00407">
        <ele>1044</ele>
        <time>2011-08-21T09:15:04Z</time>
      </trkpt>
      <trkpt lat="43.83659" lon="7.00418">
        <ele>1046</ele>
        <time>2011-08-21T09:15:26Z</time>
      </trkpt>
      <trkpt lat="43.83657" lon="7.0043">
        <ele>1050</ele>
        <time>2011-08-21T09:15:42Z</time>
      </trkpt>
      <trkpt lat="43.83651" lon="7.00438">
        <ele>1054</ele>
        <time>2011-08-21T09:16:01Z</time>
      </trkpt>
      <trkpt lat="43.83652" lon="7.00446">
        <ele>1056</ele>
        <time>2011-08-21T09:16:16Z</time>
      </trkpt>
      <trkpt lat="43.8365" lon="7.00462">
        <ele>1058</ele>
        <time>2011-08-21T09:16:35Z</time>
      </trkpt>
      <trkpt lat="43.83646" lon="7.00464">
        <ele>1058</ele>
        <time>2011-08-21T09:16:49Z</time>
      </trkpt>
      <trkpt lat="43.83641" lon="7.00473">
        <ele>1060</ele>
        <time>2011-08-21T09:17:03Z</time>
      </trkpt>
      <trkpt lat="43.83635" lon="7.00479">
        <ele>1061</ele>
        <time>2011-08-21T09:17:18Z</time>
      </trkpt>
      <trkpt lat="43.83633" lon="7.00485">
        <ele>1062</ele>
        <time>2011-08-21T09:17:37Z</time>
      </trkpt>
      <trkpt lat="43.83628" lon="7.00496">
        <ele>1064</ele>
        <time>2011-08-21T09:17:51Z</time>
      </trkpt>
      <trkpt lat="43.83623" lon="7.00507">
        <ele>1071</ele>
        <time>2011-08-21T09:18:04Z</time>
      </trkpt>
      <trkpt lat="43.83621" lon="7.00517">
        <ele>1072</ele>
        <time>2011-08-21T09:18:19Z</time>
      </trkpt>
      <trkpt lat="43.8362" lon="7.00528">
        <ele>1072</ele>
        <time>2011-08-21T09:18:32Z</time>
      </trkpt>
      <trkpt lat="43.83617" lon="7.00545">
        <ele>1074</ele>
        <time>2011-08-21T09:18:50Z</time>
      </trkpt>
      <trkpt lat="43.83617" lon="7.00561">
        <ele>1075</ele>
        <time>2011-08-21T09:19:07Z</time>
      </trkpt>
      <trkpt lat="43.83617" lon="7.00583">
        <ele>1076</ele>
        <time>2011-08-21T09:19:24Z</time>
      </trkpt>
      <trkpt lat="43.83615" lon="7.00602">
        <ele>1080</ele>
        <time>2011-08-21T09:19:43Z</time>
      </trkpt>
      <trkpt lat="43.83615" lon="7.00621">
        <ele>1080</ele>
        <time>2011-08-21T09:20:00Z</time>
      </trkpt>
      <trkpt lat="43.83617" lon="7.00649">
        <ele>1081</ele>
        <time>2011-08-21T09:20:20Z</time>
      </trkpt>
      <trkpt lat="43.83615" lon="7.00674">
        <ele>1086</ele>
        <time>2011-08-21T09:20:39Z</time>
      </trkpt>
      <trkpt lat="43.83616" lon="7.007">
        <ele>1086</ele>
        <time>2011-08-21T09:20:58Z</time>
      </trkpt>
      <trkpt lat="43.83615" lon="7.00705">
        <ele>1086</ele>
        <time>2011-08-21T09:21:01Z</time>
      </trkpt>
      <trkpt lat="43.83612" lon="7.00731">
        <ele>1089</ele>
        <time>2011-08-21T09:21:22Z</time>
      </trkpt>
      <trkpt lat="43.83611" lon="7.00749">
        <ele>1091</ele>
        <time>2011-08-21T09:21:36Z</time>
      </trkpt>
      <trkpt lat="43.83609" lon="7.00764">
        <ele>1094</ele>
        <time>2011-08-21T09:21:50Z</time>
      </trkpt>
      <trkpt lat="43.83609" lon="7.00767">
        <ele>1093</ele>
        <time>2011-08-21T09:21:52Z</time>
      </trkpt>
      <trkpt lat="43.83609" lon="7.00772">
        <ele>1093</ele>
        <time>2011-08-21T09:21:56Z</time>
      </trkpt>
      <trkpt lat="43.83606" lon="7.00796">
        <ele>1093</ele>
        <time>2011-08-21T09:22:15Z</time>
      </trkpt>
      <trkpt lat="43.836" lon="7.00818">
        <ele>1097</ele>
        <time>2011-08-21T09:22:34Z</time>
      </trkpt>
      <trkpt lat="43.83595" lon="7.0083">
        <ele>1101</ele>
        <time>2011-08-21T09:22:49Z</time>
      </trkpt>
      <trkpt lat="43.83594" lon="7.00835">
        <ele>1103</ele>
        <time>2011-08-21T09:23:03Z</time>
      </trkpt>
      <trkpt lat="43.83587" lon="7.0085">
        <ele>1101</ele>
        <time>2011-08-21T09:23:26Z</time>
      </trkpt>
      <trkpt lat="43.8358" lon="7.0087">
        <ele>1126</ele>
        <time>2011-08-21T09:23:46Z</time>
      </trkpt>
      <trkpt lat="43.83575" lon="7.00885">
        <ele>1127</ele>
        <time>2011-08-21T09:24:00Z</time>
      </trkpt>
      <trkpt lat="43.83569" lon="7.00903">
        <ele>1126</ele>
        <time>2011-08-21T09:24:18Z</time>
      </trkpt>
      <trkpt lat="43.83561" lon="7.00925">
        <ele>1130</ele>
        <time>2011-08-21T09:24:42Z</time>
      </trkpt>
      <trkpt lat="43.83558" lon="7.00942">
        <ele>1133</ele>
        <time>2011-08-21T09:25:00Z</time>
      </trkpt>
      <trkpt lat="43.83555" lon="7.0096">
        <ele>1135</ele>
        <time>2011-08-21T09:25:17Z</time>
      </trkpt>
      <trkpt lat="43.83555" lon="7.00973">
        <ele>1134</ele>
        <time>2011-08-21T09:25:30Z</time>
      </trkpt>
      <trkpt lat="43.83555" lon="7.00986">
        <ele>1134</ele>
        <time>2011-08-21T09:25:41Z</time>
      </trkpt>
      <trkpt lat="43.83552" lon="7.0101">
        <ele>1135</ele>
        <time>2011-08-21T09:25:57Z</time>
      </trkpt>
      <trkpt lat="43.83551" lon="7.01035">
        <ele>1136</ele>
        <time>2011-08-21T09:26:15Z</time>
      </trkpt>
      <trkpt lat="43.83544" lon="7.01055">
        <ele>1138</ele>
        <time>2011-08-21T09:26:33Z</time>
      </trkpt>
      <trkpt lat="43.83536" lon="7.01067">
        <ele>1140</ele>
        <time>2011-08-21T09:26:49Z</time>
      </trkpt>
      <trkpt lat="43.83533" lon="7.01083">
        <ele>1142</ele>
        <time>2011-08-21T09:27:05Z</time>
      </trkpt>
      <trkpt lat="43.83529" lon="7.01097">
        <ele>1142</ele>
        <time>2011-08-21T09:27:22Z</time>
      </trkpt>
      <trkpt lat="43.83523" lon="7.01108">
        <ele>1143</ele>
        <time>2011-08-21T09:27:37Z</time>
      </trkpt>
      <trkpt lat="43.8352" lon="7.01117">
        <ele>1142</ele>
        <time>2011-08-21T09:27:51Z</time>
      </trkpt>
      <trkpt lat="43.83514" lon="7.01131">
        <ele>1143</ele>
        <time>2011-08-21T09:28:06Z</time>
      </trkpt>
      <trkpt lat="43.83506" lon="7.01144">
        <ele>1146</ele>
        <time>2011-08-21T09:28:21Z</time>
      </trkpt>
      <trkpt lat="43.83503" lon="7.0115">
        <ele>1147</ele>
        <time>2011-08-21T09:28:38Z</time>
      </trkpt>
      <trkpt lat="43.83493" lon="7.01168">
        <ele>1163</ele>
        <time>2011-08-21T09:29:01Z</time>
      </trkpt>
      <trkpt lat="43.83486" lon="7.01186">
        <ele>1172</ele>
        <time>2011-08-21T09:29:22Z</time>
      </trkpt>
      <trkpt lat="43.83482" lon="7.01201">
        <ele>1175</ele>
        <time>2011-08-21T09:29:43Z</time>
      </trkpt>
      <trkpt lat="43.83478" lon="7.01212">
        <ele>1176</ele>
        <time>2011-08-21T09:29:55Z</time>
      </trkpt>
      <trkpt lat="43.83475" lon="7.01219">
        <ele>1176</ele>
        <time>2011-08-21T09:30:17Z</time>
      </trkpt>
      <trkpt lat="43.8347" lon="7.01234">
        <ele>1176</ele>
        <time>2011-08-21T09:30:32Z</time>
      </trkpt>
      <trkpt lat="43.83468" lon="7.01241">
        <ele>1177</ele>
        <time>2011-08-21T09:30:41Z</time>
      </trkpt>
      <trkpt lat="43.83466" lon="7.01268">
        <ele>1175</ele>
        <time>2011-08-21T09:30:57Z</time>
      </trkpt>
      <trkpt lat="43.83462" lon="7.01295">
        <ele>1177</ele>
        <time>2011-08-21T09:31:19Z</time>
      </trkpt>
      <trkpt lat="43.83458" lon="7.01305">
        <ele>1178</ele>
        <time>2011-08-21T09:31:33Z</time>
      </trkpt>
      <trkpt lat="43.83455" lon="7.01322">
        <ele>1179</ele>
        <time>2011-08-21T09:31:52Z</time>
      </trkpt>
      <trkpt lat="43.83453" lon="7.0133">
        <ele>1180</ele>
        <time>2011-08-21T09:32:01Z</time>
      </trkpt>
      <trkpt lat="43.83444" lon="7.01356">
        <ele>1182</ele>
        <time>2011-08-21T09:32:26Z</time>
      </trkpt>
      <trkpt lat="43.83442" lon="7.01351">
        <ele>1183</ele>
        <time>2011-08-21T09:32:40Z</time>
      </trkpt>
      <trkpt lat="43.83439" lon="7.01352">
        <ele>1184</ele>
        <time>2011-08-21T09:32:59Z</time>
      </trkpt>
      <trkpt lat="43.83433" lon="7.01367">
        <ele>1184</ele>
        <time>2011-08-21T09:33:21Z</time>
      </trkpt>
      <trkpt lat="43.8343" lon="7.01378">
        <ele>1184</ele>
        <time>2011-08-21T09:33:37Z</time>
      </trkpt>
      <trkpt lat="43.83429" lon="7.01386">
        <ele>1184</ele>
        <time>2011-08-21T09:33:52Z</time>
      </trkpt>
      <trkpt lat="43.83428" lon="7.01386">
        <ele>1185</ele>
        <time>2011-08-21T09:34:04Z</time>
      </trkpt>
      <trkpt lat="43.83428" lon="7.01387">
        <ele>1185</ele>
        <time>2011-08-21T09:34:06Z</time>
      </trkpt>
      <trkpt lat="43.83425" lon="7.0138">
        <ele>1185</ele>
        <time>2011-08-21T09:34:20Z</time>
      </trkpt>
      <trkpt lat="43.83422" lon="7.01382">
        <ele>1185</ele>
        <time>2011-08-21T09:34:38Z</time>
      </trkpt>
      <trkpt lat="43.83414" lon="7.01384">
        <ele>1219</ele>
        <time>2011-08-21T09:34:53Z</time>
      </trkpt>
      <trkpt lat="43.83411" lon="7.01379">
        <ele>1220</ele>
        <time>2011-08-21T09:35:06Z</time>
      </trkpt>
      <trkpt lat="43.83406" lon="7.01386">
        <ele>1220</ele>
        <time>2011-08-21T09:35:21Z</time>
      </trkpt>
      <trkpt lat="43.83402" lon="7.01392">
        <ele>1220</ele>
        <time>2011-08-21T09:35:35Z</time>
      </trkpt>
      <trkpt lat="43.83397" lon="7.01395">
        <ele>1221</ele>
        <time>2011-08-21T09:35:52Z</time>
      </trkpt>
      <trkpt lat="43.83394" lon="7.01405">
        <ele>1220</ele>
        <time>2011-08-21T09:36:10Z</time>
      </trkpt>
      <trkpt lat="43.83393" lon="7.01411">
        <ele>1220</ele>
        <time>2011-08-21T09:36:16Z</time>
      </trkpt>
      <trkpt lat="43.83385" lon="7.01433">
        <ele>1223</ele>
        <time>2011-08-21T09:36:37Z</time>
      </trkpt>
      <trkpt lat="43.83379" lon="7.01444">
        <ele>1225</ele>
        <time>2011-08-21T09:36:52Z</time>
      </trkpt>
      <trkpt lat="43.83376" lon="7.01459">
        <ele>1226</ele>
        <time>2011-08-21T09:37:08Z</time>
      </trkpt>
      <trkpt lat="43.83372" lon="7.0147">
        <ele>1228</ele>
        <time>2011-08-21T09:37:23Z</time>
      </trkpt>
      <trkpt lat="43.83368" lon="7.01486">
        <ele>1229</ele>
        <time>2011-08-21T09:37:40Z</time>
      </trkpt>
      <trkpt lat="43.83362" lon="7.01499">
        <ele>1233</ele>
        <time>2011-08-21T09:37:56Z</time>
      </trkpt>
      <trkpt lat="43.8336" lon="7.01509">
        <ele>1233</ele>
        <time>2011-08-21T09:38:10Z</time>
      </trkpt>
      <trkpt lat="43.83359" lon="7.01518">
        <ele>1233</ele>
        <time>2011-08-21T09:38:24Z</time>
      </trkpt>
      <trkpt lat="43.83351" lon="7.01538">
        <ele>1233</ele>
        <time>2011-08-21T09:38:45Z</time>
      </trkpt>
      <trkpt lat="43.83345" lon="7.01551">
        <ele>1235</ele>
        <time>2011-08-21T09:39:03Z</time>
      </trkpt>
      <trkpt lat="43.83339" lon="7.01557">
        <ele>1238</ele>
        <time>2011-08-21T09:39:16Z</time>
      </trkpt>
      <trkpt lat="43.83335" lon="7.01563">
        <ele>1240</ele>
        <time>2011-08-21T09:39:28Z</time>
      </trkpt>
      <trkpt lat="43.83332" lon="7.01567">
        <ele>1266</ele>
        <time>2011-08-21T09:39:47Z</time>
      </trkpt>
      <trkpt lat="43.83329" lon="7.01572">
        <ele>1264</ele>
        <time>2011-08-21T09:40:04Z</time>
      </trkpt>
      <trkpt lat="43.83326" lon="7.0158">
        <ele>1262</ele>
        <time>2011-08-21T09:40:16Z</time>
      </trkpt>
      <trkpt lat="43.83329" lon="7.01595">
        <ele>1264</ele>
        <time>2011-08-21T09:40:32Z</time>
      </trkpt>
      <trkpt lat="43.83326" lon="7.01607">
        <ele>1269</ele>
        <time>2011-08-21T09:40:51Z</time>
      </trkpt>
      <trkpt lat="43.83326" lon="7.01607">
        <ele>1269</ele>
        <time>2011-08-21T09:40:53Z</time>
      </trkpt>
      <trkpt lat="43.83324" lon="7.01611">
        <ele>1270</ele>
        <time>2011-08-21T09:40:55Z</time>
      </trkpt>
      <trkpt lat="43.83325" lon="7.01616">
        <ele>1270</ele>
        <time>2011-08-21T09:40:59Z</time>
      </trkpt>
      <trkpt lat="43.83327" lon="7.0163">
        <ele>1270</ele>
        <time>2011-08-21T09:41:15Z</time>
      </trkpt>
      <trkpt lat="43.83325" lon="7.01633">
        <ele>1270</ele>
        <time>2011-08-21T09:41:28Z</time>
      </trkpt>
      <trkpt lat="43.83325" lon="7.01639">
        <ele>1269</ele>
        <time>2011-08-21T09:41:41Z</time>
      </trkpt>
      <trkpt lat="43.83321" lon="7.01652">
        <ele>1267</ele>
        <time>2011-08-21T09:41:55Z</time>
      </trkpt>
      <trkpt lat="43.83315" lon="7.01663">
        <ele>1268</ele>
        <time>2011-08-21T09:42:08Z</time>
      </trkpt>
      <trkpt lat="43.83311" lon="7.01674">
        <ele>1268</ele>
        <time>2011-08-21T09:42:24Z</time>
      </trkpt>
      <trkpt lat="43.83306" lon="7.01687">
        <ele>1271</ele>
        <time>2011-08-21T09:42:36Z</time>
      </trkpt>
      <trkpt lat="43.83302" lon="7.01699">
        <ele>1273</ele>
        <time>2011-08-21T09:42:50Z</time>
      </trkpt>
      <trkpt lat="43.83301" lon="7.01701">
        <ele>1273</ele>
        <time>2011-08-21T09:42:51Z</time>
      </trkpt>
      <trkpt lat="43.83298" lon="7.01714">
        <ele>1274</ele>
        <time>2011-08-21T09:43:03Z</time>
      </trkpt>
      <trkpt lat="43.83292" lon="7.01725">
        <ele>1275</ele>
        <time>2011-08-21T09:43:19Z</time>
      </trkpt>
      <trkpt lat="43.8329" lon="7.0173">
        <ele>1276</ele>
        <time>2011-08-21T09:43:28Z</time>
      </trkpt>
      <trkpt lat="43.83287" lon="7.01744">
        <ele>1277</ele>
        <time>2011-08-21T09:43:37Z</time>
      </trkpt>
      <trkpt lat="43.83281" lon="7.01762">
        <ele>1278</ele>
        <time>2011-08-21T09:43:54Z</time>
      </trkpt>
      <trkpt lat="43.83277" lon="7.01781">
        <ele>1278</ele>
        <time>2011-08-21T09:44:11Z</time>
      </trkpt>
      <trkpt lat="43.83276" lon="7.01789">
        <ele>1278</ele>
        <time>2011-08-21T09:44:17Z</time>
      </trkpt>
      <trkpt lat="43.83271" lon="7.01806">
        <ele>1280</ele>
        <time>2011-08-21T09:44:34Z</time>
      </trkpt>
      <trkpt lat="43.83266" lon="7.01821">
        <ele>1284</ele>
        <time>2011-08-21T09:44:51Z</time>
      </trkpt>
      <trkpt lat="43.83266" lon="7.01825">
        <ele>1285</ele>
        <time>2011-08-21T09:45:02Z</time>
      </trkpt>
      <trkpt lat="43.83261" lon="7.01838">
        <ele>1288</ele>
        <time>2011-08-21T09:45:16Z</time>
      </trkpt>
      <trkpt lat="43.83258" lon="7.01852">
        <ele>1285</ele>
        <time>2011-08-21T09:45:32Z</time>
      </trkpt>
      <trkpt lat="43.83257" lon="7.01865">
        <ele>1282</ele>
        <time>2011-08-21T09:45:47Z</time>
      </trkpt>
      <trkpt lat="43.83257" lon="7.01871">
        <ele>1282</ele>
        <time>2011-08-21T09:46:00Z</time>
      </trkpt>
      <trkpt lat="43.83252" lon="7.0188">
        <ele>1282</ele>
        <time>2011-08-21T09:46:17Z</time>
      </trkpt>
      <trkpt lat="43.8325" lon="7.01875">
        <ele>1309</ele>
        <time>2011-08-21T09:46:23Z</time>
      </trkpt>
      <trkpt lat="43.83247" lon="7.01882">
        <ele>1309</ele>
        <time>2011-08-21T09:46:36Z</time>
      </trkpt>
      <trkpt lat="43.83245" lon="7.01894">
        <ele>1308</ele>
        <time>2011-08-21T09:46:51Z</time>
      </trkpt>
      <trkpt lat="43.83241" lon="7.019">
        <ele>1307</ele>
        <time>2011-08-21T09:47:02Z</time>
      </trkpt>
      <trkpt lat="43.8324" lon="7.01916">
        <ele>1303</ele>
        <time>2011-08-21T09:47:14Z</time>
      </trkpt>
      <trkpt lat="43.83238" lon="7.01926">
        <ele>1305</ele>
        <time>2011-08-21T09:47:33Z</time>
      </trkpt>
      <trkpt lat="43.83241" lon="7.01938">
        <ele>1308</ele>
        <time>2011-08-21T09:47:44Z</time>
      </trkpt>
      <trkpt lat="43.83236" lon="7.01939">
        <ele>1309</ele>
        <time>2011-08-21T09:48:00Z</time>
      </trkpt>
      <trkpt lat="43.83233" lon="7.01931">
        <ele>1308</ele>
        <time>2011-08-21T09:48:15Z</time>
      </trkpt>
      <trkpt lat="43.83231" lon="7.01936">
        <ele>1310</ele>
        <time>2011-08-21T09:48:29Z</time>
      </trkpt>
      <trkpt lat="43.83228" lon="7.01942">
        <ele>1311</ele>
        <time>2011-08-21T09:48:37Z</time>
      </trkpt>
      <trkpt lat="43.83223" lon="7.01945">
        <ele>1313</ele>
        <time>2011-08-21T09:48:45Z</time>
      </trkpt>
      <trkpt lat="43.83224" lon="7.0193">
        <ele>1311</ele>
        <time>2011-08-21T09:48:59Z</time>
      </trkpt>
      <trkpt lat="43.83222" lon="7.0193">
        <ele>1312</ele>
        <time>2011-08-21T09:49:02Z</time>
      </trkpt>
      <trkpt lat="43.83215" lon="7.01901">
        <ele>1315</ele>
        <time>2011-08-21T09:49:24Z</time>
      </trkpt>
      <trkpt lat="43.83213" lon="7.01882">
        <ele>1316</ele>
        <time>2011-08-21T09:49:39Z</time>
      </trkpt>
      <trkpt lat="43.83212" lon="7.01872">
        <ele>1316</ele>
        <time>2011-08-21T09:49:54Z</time>
      </trkpt>
      <trkpt lat="43.83207" lon="7.01868">
        <ele>1317</ele>
        <time>2011-08-21T09:50:06Z</time>
      </trkpt>
      <trkpt lat="43.83206" lon="7.01856">
        <ele>1318</ele>
        <time>2011-08-21T09:50:22Z</time>
      </trkpt>
      <trkpt lat="43.83205" lon="7.01841">
        <ele>1318</ele>
        <time>2011-08-21T09:50:33Z</time>
      </trkpt>
      <trkpt lat="43.83204" lon="7.01823">
        <ele>1319</ele>
        <time>2011-08-21T09:50:47Z</time>
      </trkpt>
      <trkpt lat="43.83204" lon="7.01819">
        <ele>1318</ele>
        <time>2011-08-21T09:50:52Z</time>
      </trkpt>
      <trkpt lat="43.83204" lon="7.01808">
        <ele>1318</ele>
        <time>2011-08-21T09:50:59Z</time>
      </trkpt>
      <trkpt lat="43.83202" lon="7.01801">
        <ele>1319</ele>
        <time>2011-08-21T09:51:05Z</time>
      </trkpt>
      <trkpt lat="43.83202" lon="7.01786">
        <ele>1318</ele>
        <time>2011-08-21T09:51:18Z</time>
      </trkpt>
      <trkpt lat="43.83204" lon="7.01771">
        <ele>1318</ele>
        <time>2011-08-21T09:51:29Z</time>
      </trkpt>
      <trkpt lat="43.83204" lon="7.0177">
        <ele>1318</ele>
        <time>2011-08-21T09:51:31Z</time>
      </trkpt>
      <trkpt lat="43.83202" lon="7.01756">
        <ele>1319</ele>
        <time>2011-08-21T09:51:41Z</time>
      </trkpt>
      <trkpt lat="43.83206" lon="7.01748">
        <ele>1318</ele>
        <time>2011-08-21T09:51:46Z</time>
      </trkpt>
      <trkpt lat="43.83208" lon="7.01733">
        <ele>1318</ele>
        <time>2011-08-21T09:51:56Z</time>
      </trkpt>
      <trkpt lat="43.83208" lon="7.01731">
        <ele>1318</ele>
        <time>2011-08-21T09:51:57Z</time>
      </trkpt>
      <trkpt lat="43.83208" lon="7.01712">
        <ele>1318</ele>
        <time>2011-08-21T09:52:12Z</time>
      </trkpt>
      <trkpt lat="43.83208" lon="7.01709">
        <ele>1318</ele>
        <time>2011-08-21T09:52:17Z</time>
      </trkpt>
      <trkpt lat="43.83209" lon="7.01702">
        <ele>1318</ele>
        <time>2011-08-21T09:52:21Z</time>
      </trkpt>
      <trkpt lat="43.8321" lon="7.01698">
        <ele>1318</ele>
        <time>2011-08-21T09:52:25Z</time>
      </trkpt>
      <trkpt lat="43.83208" lon="7.0169">
        <ele>1318</ele>
        <time>2011-08-21T09:52:30Z</time>
      </trkpt>
      <trkpt lat="43.83209" lon="7.01687">
        <ele>1318</ele>
        <time>2011-08-21T09:52:32Z</time>
      </trkpt>
      <trkpt lat="43.83208" lon="7.01685">
        <ele>1319</ele>
        <time>2011-08-21T09:52:34Z</time>
      </trkpt>
      <trkpt lat="43.83209" lon="7.01673">
        <ele>1318</ele>
        <time>2011-08-21T09:52:48Z</time>
      </trkpt>
      <trkpt lat="43.83219" lon="7.01655">
        <ele>1319</ele>
        <time>2011-08-21T09:53:07Z</time>
      </trkpt>
      <trkpt lat="43.8322" lon="7.01648">
        <ele>1319</ele>
        <time>2011-08-21T09:53:20Z</time>
      </trkpt>
      <trkpt lat="43.8322" lon="7.01638">
        <ele>1320</ele>
        <time>2011-08-21T09:53:35Z</time>
      </trkpt>
      <trkpt lat="43.83222" lon="7.01626">
        <ele>1320</ele>
        <time>2011-08-21T09:53:47Z</time>
      </trkpt>
      <trkpt lat="43.8322" lon="7.01611">
        <ele>1321</ele>
        <time>2011-08-21T09:54:01Z</time>
      </trkpt>
      <trkpt lat="43.83219" lon="7.01604">
        <ele>1321</ele>
        <time>2011-08-21T09:54:10Z</time>
      </trkpt>
      <trkpt lat="43.83219" lon="7.01588">
        <ele>1321</ele>
        <time>2011-08-21T09:54:25Z</time>
      </trkpt>
      <trkpt lat="43.83223" lon="7.01575">
        <ele>1323</ele>
        <time>2011-08-21T09:54:36Z</time>
      </trkpt>
      <trkpt lat="43.83225" lon="7.01571">
        <ele>1322</ele>
        <time>2011-08-21T09:54:40Z</time>
      </trkpt>
      <trkpt lat="43.83228" lon="7.01551">
        <ele>1324</ele>
        <time>2011-08-21T09:54:56Z</time>
      </trkpt>
      <trkpt lat="43.83228" lon="7.01541">
        <ele>1324</ele>
        <time>2011-08-21T09:55:07Z</time>
      </trkpt>
      <trkpt lat="43.83227" lon="7.01526">
        <ele>1324</ele>
        <time>2011-08-21T09:55:21Z</time>
      </trkpt>
      <trkpt lat="43.83228" lon="7.01508">
        <ele>1321</ele>
        <time>2011-08-21T09:55:36Z</time>
      </trkpt>
      <trkpt lat="43.83226" lon="7.01506">
        <ele>1322</ele>
        <time>2011-08-21T09:55:49Z</time>
      </trkpt>
      <trkpt lat="43.83227" lon="7.01497">
        <ele>1322</ele>
        <time>2011-08-21T09:56:05Z</time>
      </trkpt>
      <trkpt lat="43.83226" lon="7.01476">
        <ele>1325</ele>
        <time>2011-08-21T09:56:21Z</time>
      </trkpt>
      <trkpt lat="43.83225" lon="7.01473">
        <ele>1325</ele>
        <time>2011-08-21T09:56:23Z</time>
      </trkpt>
      <trkpt lat="43.83225" lon="7.01467">
        <ele>1325</ele>
        <time>2011-08-21T09:56:29Z</time>
      </trkpt>
      <trkpt lat="43.83229" lon="7.0146">
        <ele>1325</ele>
        <time>2011-08-21T09:56:34Z</time>
      </trkpt>
      <trkpt lat="43.83229" lon="7.01447">
        <ele>1324</ele>
        <time>2011-08-21T09:56:47Z</time>
      </trkpt>
      <trkpt lat="43.83229" lon="7.01442">
        <ele>1324</ele>
        <time>2011-08-21T09:56:53Z</time>
      </trkpt>
      <trkpt lat="43.83231" lon="7.01437">
        <ele>1322</ele>
        <time>2011-08-21T09:56:57Z</time>
      </trkpt>
      <trkpt lat="43.83234" lon="7.01429">
        <ele>1320</ele>
        <time>2011-08-21T09:57:03Z</time>
      </trkpt>
      <trkpt lat="43.83231" lon="7.01426">
        <ele>1320</ele>
        <time>2011-08-21T09:57:09Z</time>
      </trkpt>
      <trkpt lat="43.83234" lon="7.01416">
        <ele>1318</ele>
        <time>2011-08-21T09:57:23Z</time>
      </trkpt>
      <trkpt lat="43.83234" lon="7.01404">
        <ele>1320</ele>
        <time>2011-08-21T09:57:36Z</time>
      </trkpt>
      <trkpt lat="43.83232" lon="7.01395">
        <ele>1323</ele>
        <time>2011-08-21T09:57:51Z</time>
      </trkpt>
      <trkpt lat="43.83234" lon="7.0139">
        <ele>1324</ele>
        <time>2011-08-21T09:57:55Z</time>
      </trkpt>
      <trkpt lat="43.83235" lon="7.01372">
        <ele>1325</ele>
        <time>2011-08-21T09:58:14Z</time>
      </trkpt>
      <trkpt lat="43.83236" lon="7.01362">
        <ele>1324</ele>
        <time>2011-08-21T09:58:27Z</time>
      </trkpt>
      <trkpt lat="43.83238" lon="7.01342">
        <ele>1319</ele>
        <time>2011-08-21T09:58:44Z</time>
      </trkpt>
      <trkpt lat="43.83239" lon="7.01331">
        <ele>1318</ele>
        <time>2011-08-21T09:58:57Z</time>
      </trkpt>
      <trkpt lat="43.83241" lon="7.01317">
        <ele>1322</ele>
        <time>2011-08-21T09:59:07Z</time>
      </trkpt>
      <trkpt lat="43.83241" lon="7.01313">
        <ele>1323</ele>
        <time>2011-08-21T09:59:11Z</time>
      </trkpt>
      <trkpt lat="43.8324" lon="7.01295">
        <ele>1327</ele>
        <time>2011-08-21T09:59:27Z</time>
      </trkpt>
      <trkpt lat="43.83242" lon="7.01291">
        <ele>1327</ele>
        <time>2011-08-21T09:59:31Z</time>
      </trkpt>
      <trkpt lat="43.83239" lon="7.01282">
        <ele>1327</ele>
        <time>2011-08-21T09:59:39Z</time>
      </trkpt>
      <trkpt lat="43.83242" lon="7.01273">
        <ele>1325</ele>
        <time>2011-08-21T09:59:45Z</time>
      </trkpt>
      <trkpt lat="43.83242" lon="7.01266">
        <ele>1323</ele>
        <time>2011-08-21T09:59:50Z</time>
      </trkpt>
      <trkpt lat="43.83245" lon="7.01249">
        <ele>1316</ele>
        <time>2011-08-21T10:00:02Z</time>
      </trkpt>
      <trkpt lat="43.83247" lon="7.01246">
        <ele>1316</ele>
        <time>2011-08-21T10:00:06Z</time>
      </trkpt>
      <trkpt lat="43.83248" lon="7.01238">
        <ele>1321</ele>
        <time>2011-08-21T10:00:12Z</time>
      </trkpt>
      <trkpt lat="43.83251" lon="7.01227">
        <ele>1300</ele>
        <time>2011-08-21T10:00:20Z</time>
      </trkpt>
      <trkpt lat="43.8325" lon="7.01221">
        <ele>1299</ele>
        <time>2011-08-21T10:00:25Z</time>
      </trkpt>
      <trkpt lat="43.83251" lon="7.01218">
        <ele>1299</ele>
        <time>2011-08-21T10:00:27Z</time>
      </trkpt>
      <trkpt lat="43.83248" lon="7.01213">
        <ele>1329</ele>
        <time>2011-08-21T10:00:41Z</time>
      </trkpt>
      <trkpt lat="43.8325" lon="7.01194">
        <ele>1301</ele>
        <time>2011-08-21T10:00:55Z</time>
      </trkpt>
      <trkpt lat="43.83252" lon="7.01187">
        <ele>1303</ele>
        <time>2011-08-21T10:01:01Z</time>
      </trkpt>
      <trkpt lat="43.83252" lon="7.01174">
        <ele>1309</ele>
        <time>2011-08-21T10:01:14Z</time>
      </trkpt>
      <trkpt lat="43.83252" lon="7.0116">
        <ele>1311</ele>
        <time>2011-08-21T10:01:27Z</time>
      </trkpt>
      <trkpt lat="43.83253" lon="7.01157">
        <ele>1309</ele>
        <time>2011-08-21T10:01:30Z</time>
      </trkpt>
      <trkpt lat="43.83257" lon="7.01136">
        <ele>1303</ele>
        <time>2011-08-21T10:01:46Z</time>
      </trkpt>
      <trkpt lat="43.83255" lon="7.01136">
        <ele>1303</ele>
        <time>2011-08-21T10:02:00Z</time>
      </trkpt>
      <trkpt lat="43.83255" lon="7.01136">
        <ele>1303</ele>
        <time>2011-08-21T10:02:01Z</time>
      </trkpt>
      <trkpt lat="43.83254" lon="7.01131">
        <ele>1303</ele>
        <time>2011-08-21T10:02:05Z</time>
      </trkpt>
      <trkpt lat="43.83252" lon="7.01117">
        <ele>1303</ele>
        <time>2011-08-21T10:02:21Z</time>
      </trkpt>
      <trkpt lat="43.83252" lon="7.0111">
        <ele>1305</ele>
        <time>2011-08-21T10:02:30Z</time>
      </trkpt>
      <trkpt lat="43.83251" lon="7.01105">
        <ele>1306</ele>
        <time>2011-08-21T10:02:42Z</time>
      </trkpt>
      <trkpt lat="43.83251" lon="7.01092">
        <ele>1312</ele>
        <time>2011-08-21T10:02:59Z</time>
      </trkpt>
      <trkpt lat="43.83254" lon="7.01078">
        <ele>1315</ele>
        <time>2011-08-21T10:03:13Z</time>
      </trkpt>
      <trkpt lat="43.83262" lon="7.0106">
        <ele>1306</ele>
        <time>2011-08-21T10:03:31Z</time>
      </trkpt>
      <trkpt lat="43.83263" lon="7.01048">
        <ele>1304</ele>
        <time>2011-08-21T10:03:46Z</time>
      </trkpt>
      <trkpt lat="43.83262" lon="7.01043">
        <ele>1304</ele>
        <time>2011-08-21T10:03:56Z</time>
      </trkpt>
      <trkpt lat="43.83262" lon="7.01036">
        <ele>1304</ele>
        <time>2011-08-21T10:04:11Z</time>
      </trkpt>
      <trkpt lat="43.83259" lon="7.01024">
        <ele>1307</ele>
        <time>2011-08-21T10:04:25Z</time>
      </trkpt>
      <trkpt lat="43.83257" lon="7.01016">
        <ele>1310</ele>
        <time>2011-08-21T10:04:34Z</time>
      </trkpt>
      <trkpt lat="43.83251" lon="7.01001">
        <ele>1321</ele>
        <time>2011-08-21T10:04:51Z</time>
      </trkpt>
      <trkpt lat="43.83251" lon="7.00987">
        <ele>1311</ele>
        <time>2011-08-21T10:05:04Z</time>
      </trkpt>
      <trkpt lat="43.83248" lon="7.00981">
        <ele>1331</ele>
        <time>2011-08-21T10:05:12Z</time>
      </trkpt>
      <trkpt lat="43.83243" lon="7.00972">
        <ele>1333</ele>
        <time>2011-08-21T10:05:29Z</time>
      </trkpt>
      <trkpt lat="43.83236" lon="7.00962">
        <ele>1334</ele>
        <time>2011-08-21T10:05:43Z</time>
      </trkpt>
      <trkpt lat="43.83231" lon="7.00954">
        <ele>1334</ele>
        <time>2011-08-21T10:05:57Z</time>
      </trkpt>
      <trkpt lat="43.83231" lon="7.00939">
        <ele>1332</ele>
        <time>2011-08-21T10:06:14Z</time>
      </trkpt>
      <trkpt lat="43.83222" lon="7.00922">
        <ele>1333</ele>
        <time>2011-08-21T10:06:31Z</time>
      </trkpt>
      <trkpt lat="43.83213" lon="7.00911">
        <ele>1333</ele>
        <time>2011-08-21T10:06:46Z</time>
      </trkpt>
      <trkpt lat="43.83206" lon="7.00903">
        <ele>1336</ele>
        <time>2011-08-21T10:07:02Z</time>
      </trkpt>
      <trkpt lat="43.83199" lon="7.00891">
        <ele>1338</ele>
        <time>2011-08-21T10:07:18Z</time>
      </trkpt>
      <trkpt lat="43.83195" lon="7.00885">
        <ele>1339</ele>
        <time>2011-08-21T10:07:33Z</time>
      </trkpt>
      <trkpt lat="43.83192" lon="7.00875">
        <ele>1339</ele>
        <time>2011-08-21T10:07:47Z</time>
      </trkpt>
      <trkpt lat="43.83189" lon="7.0087">
        <ele>1340</ele>
        <time>2011-08-21T10:08:07Z</time>
      </trkpt>
      <trkpt lat="43.83189" lon="7.00864">
        <ele>1340</ele>
        <time>2011-08-21T10:08:28Z</time>
      </trkpt>
      <trkpt lat="43.83185" lon="7.0086">
        <ele>1341</ele>
        <time>2011-08-21T10:08:52Z</time>
      </trkpt>
      <trkpt lat="43.83182" lon="7.00859">
        <ele>1342</ele>
        <time>2011-08-21T10:09:09Z</time>
      </trkpt>
      <trkpt lat="43.83175" lon="7.00851">
        <ele>1346</ele>
        <time>2011-08-21T10:09:23Z</time>
      </trkpt>
      <trkpt lat="43.83175" lon="7.00846">
        <ele>1347</ele>
        <time>2011-08-21T10:09:27Z</time>
      </trkpt>
      <trkpt lat="43.83171" lon="7.00839">
        <ele>1352</ele>
        <time>2011-08-21T10:09:41Z</time>
      </trkpt>
      <trkpt lat="43.83171" lon="7.00819">
        <ele>1346</ele>
        <time>2011-08-21T10:10:00Z</time>
      </trkpt>
      <trkpt lat="43.8317" lon="7.00817">
        <ele>1345</ele>
        <time>2011-08-21T10:10:01Z</time>
      </trkpt>
      <trkpt lat="43.83167" lon="7.00805">
        <ele>1341</ele>
        <time>2011-08-21T10:10:16Z</time>
      </trkpt>
      <trkpt lat="43.83167" lon="7.0079">
        <ele>1339</ele>
        <time>2011-08-21T10:10:31Z</time>
      </trkpt>
      <trkpt lat="43.83173" lon="7.00774">
        <ele>1340</ele>
        <time>2011-08-21T10:10:47Z</time>
      </trkpt>
      <trkpt lat="43.8317" lon="7.00761">
        <ele>1344</ele>
        <time>2011-08-21T10:11:01Z</time>
      </trkpt>
      <trkpt lat="43.83163" lon="7.00753">
        <ele>1355</ele>
        <time>2011-08-21T10:11:15Z</time>
      </trkpt>
      <trkpt lat="43.83158" lon="7.00738">
        <ele>1359</ele>
        <time>2011-08-21T10:11:33Z</time>
      </trkpt>
      <trkpt lat="43.83153" lon="7.00729">
        <ele>1362</ele>
        <time>2011-08-21T10:11:39Z</time>
      </trkpt>
      <trkpt lat="43.83156" lon="7.00713">
        <ele>1362</ele>
        <time>2011-08-21T10:11:48Z</time>
      </trkpt>
      <trkpt lat="43.83154" lon="7.007">
        <ele>1361</ele>
        <time>2011-08-21T10:12:01Z</time>
      </trkpt>
      <trkpt lat="43.83149" lon="7.00692">
        <ele>1360</ele>
        <time>2011-08-21T10:12:15Z</time>
      </trkpt>
      <trkpt lat="43.83153" lon="7.00674">
        <ele>1353</ele>
        <time>2011-08-21T10:12:34Z</time>
      </trkpt>
      <trkpt lat="43.8315" lon="7.00665">
        <ele>1350</ele>
        <time>2011-08-21T10:12:47Z</time>
      </trkpt>
      <trkpt lat="43.83141" lon="7.00645">
        <ele>1355</ele>
        <time>2011-08-21T10:13:09Z</time>
      </trkpt>
      <trkpt lat="43.83139" lon="7.00634">
        <ele>1356</ele>
        <time>2011-08-21T10:13:23Z</time>
      </trkpt>
      <trkpt lat="43.83133" lon="7.00623">
        <ele>1357</ele>
        <time>2011-08-21T10:13:39Z</time>
      </trkpt>
      <trkpt lat="43.83132" lon="7.00611">
        <ele>1357</ele>
        <time>2011-08-21T10:13:51Z</time>
      </trkpt>
      <trkpt lat="43.83129" lon="7.00608">
        <ele>1358</ele>
        <time>2011-08-21T10:14:02Z</time>
      </trkpt>
      <trkpt lat="43.83133" lon="7.00613">
        <ele>1357</ele>
        <time>2011-08-21T10:14:10Z</time>
      </trkpt>
      <trkpt lat="43.83133" lon="7.00631">
        <ele>1358</ele>
        <time>2011-08-21T10:14:27Z</time>
      </trkpt>
      <trkpt lat="43.83133" lon="7.00644">
        <ele>1358</ele>
        <time>2011-08-21T10:14:39Z</time>
      </trkpt>
      <trkpt lat="43.83132" lon="7.00653">
        <ele>1359</ele>
        <time>2011-08-21T10:14:53Z</time>
      </trkpt>
      <trkpt lat="43.83128" lon="7.00646">
        <ele>1360</ele>
        <time>2011-08-21T10:15:11Z</time>
      </trkpt>
      <trkpt lat="43.83125" lon="7.00639">
        <ele>1361</ele>
        <time>2011-08-21T10:15:25Z</time>
      </trkpt>
      <trkpt lat="43.83117" lon="7.00629">
        <ele>1363</ele>
        <time>2011-08-21T10:15:38Z</time>
      </trkpt>
      <trkpt lat="43.83113" lon="7.00619">
        <ele>1364</ele>
        <time>2011-08-21T10:15:51Z</time>
      </trkpt>
      <trkpt lat="43.83112" lon="7.00614">
        <ele>1364</ele>
        <time>2011-08-21T10:16:03Z</time>
      </trkpt>
      <trkpt lat="43.83111" lon="7.00625">
        <ele>1365</ele>
        <time>2011-08-21T10:16:21Z</time>
      </trkpt>
      <trkpt lat="43.8311" lon="7.00629">
        <ele>1365</ele>
        <time>2011-08-21T10:16:25Z</time>
      </trkpt>
      <trkpt lat="43.83105" lon="7.00637">
        <ele>1368</ele>
        <time>2011-08-21T10:16:38Z</time>
      </trkpt>
      <trkpt lat="43.83102" lon="7.00638">
        <ele>1369</ele>
        <time>2011-08-21T10:18:28Z</time>
      </trkpt>
      <trkpt lat="43.83098" lon="7.00635">
        <ele>1369</ele>
        <time>2011-08-21T10:18:43Z</time>
      </trkpt>
      <trkpt lat="43.83097" lon="7.00649">
        <ele>1373</ele>
        <time>2011-08-21T10:19:00Z</time>
      </trkpt>
      <trkpt lat="43.83088" lon="7.0065">
        <ele>1377</ele>
        <time>2011-08-21T10:19:15Z</time>
      </trkpt>
      <trkpt lat="43.83082" lon="7.00636">
        <ele>1404</ele>
        <time>2011-08-21T10:19:37Z</time>
      </trkpt>
      <trkpt lat="43.83074" lon="7.00625">
        <ele>1406</ele>
        <time>2011-08-21T10:19:54Z</time>
      </trkpt>
      <trkpt lat="43.83079" lon="7.0061">
        <ele>1402</ele>
        <time>2011-08-21T10:20:08Z</time>
      </trkpt>
      <trkpt lat="43.83077" lon="7.00601">
        <ele>1399</ele>
        <time>2011-08-21T10:20:21Z</time>
      </trkpt>
      <trkpt lat="43.83072" lon="7.00586">
        <ele>1396</ele>
        <time>2011-08-21T10:20:36Z</time>
      </trkpt>
      <trkpt lat="43.83065" lon="7.00575">
        <ele>1396</ele>
        <time>2011-08-21T10:20:49Z</time>
      </trkpt>
      <trkpt lat="43.83065" lon="7.00558">
        <ele>1399</ele>
        <time>2011-08-21T10:21:06Z</time>
      </trkpt>
      <trkpt lat="43.83062" lon="7.0055">
        <ele>1400</ele>
        <time>2011-08-21T10:21:17Z</time>
      </trkpt>
      <trkpt lat="43.83062" lon="7.00538">
        <ele>1399</ele>
        <time>2011-08-21T10:21:31Z</time>
      </trkpt>
      <trkpt lat="43.83061" lon="7.00528">
        <ele>1398</ele>
        <time>2011-08-21T10:21:44Z</time>
      </trkpt>
      <trkpt lat="43.83063" lon="7.00521">
        <ele>1395</ele>
        <time>2011-08-21T10:21:56Z</time>
      </trkpt>
      <trkpt lat="43.83061" lon="7.00514">
        <ele>1394</ele>
        <time>2011-08-21T10:22:09Z</time>
      </trkpt>
      <trkpt lat="43.8306" lon="7.00493">
        <ele>1387</ele>
        <time>2011-08-21T10:22:27Z</time>
      </trkpt>
      <trkpt lat="43.8306" lon="7.00484">
        <ele>1388</ele>
        <time>2011-08-21T10:22:43Z</time>
      </trkpt>
      <trkpt lat="43.83059" lon="7.00473">
        <ele>1388</ele>
        <time>2011-08-21T10:22:59Z</time>
      </trkpt>
      <trkpt lat="43.83056" lon="7.00463">
        <ele>1389</ele>
        <time>2011-08-21T10:23:14Z</time>
      </trkpt>
      <trkpt lat="43.83056" lon="7.00455">
        <ele>1389</ele>
        <time>2011-08-21T10:23:27Z</time>
      </trkpt>
      <trkpt lat="43.83053" lon="7.0045">
        <ele>1389</ele>
        <time>2011-08-21T10:23:49Z</time>
      </trkpt>
      <trkpt lat="43.83048" lon="7.00437">
        <ele>1389</ele>
        <time>2011-08-21T10:24:06Z</time>
      </trkpt>
      <trkpt lat="43.83045" lon="7.00426">
        <ele>1390</ele>
        <time>2011-08-21T10:24:18Z</time>
      </trkpt>
      <trkpt lat="43.83044" lon="7.00415">
        <ele>1384</ele>
        <time>2011-08-21T10:24:32Z</time>
      </trkpt>
      <trkpt lat="43.83043" lon="7.00406">
        <ele>1384</ele>
        <time>2011-08-21T10:24:47Z</time>
      </trkpt>
      <trkpt lat="43.8304" lon="7.00398">
        <ele>1385</ele>
        <time>2011-08-21T10:25:00Z</time>
      </trkpt>
      <trkpt lat="43.83035" lon="7.00383">
        <ele>1386</ele>
        <time>2011-08-21T10:25:16Z</time>
      </trkpt>
      <trkpt lat="43.83036" lon="7.0037">
        <ele>1385</ele>
        <time>2011-08-21T10:25:30Z</time>
      </trkpt>
      <trkpt lat="43.83021" lon="7.00356">
        <ele>1390</ele>
        <time>2011-08-21T10:25:47Z</time>
      </trkpt>
      <trkpt lat="43.8302" lon="7.00341">
        <ele>1393</ele>
        <time>2011-08-21T10:26:06Z</time>
      </trkpt>
      <trkpt lat="43.83023" lon="7.00321">
        <ele>1386</ele>
        <time>2011-08-21T10:26:23Z</time>
      </trkpt>
      <trkpt lat="43.83023" lon="7.00308">
        <ele>1383</ele>
        <time>2011-08-21T10:26:40Z</time>
      </trkpt>
      <trkpt lat="43.83024" lon="7.00292">
        <ele>1381</ele>
        <time>2011-08-21T10:26:56Z</time>
      </trkpt>
      <trkpt lat="43.8302" lon="7.00297">
        <ele>1382</ele>
        <time>2011-08-21T10:27:06Z</time>
      </trkpt>
      <trkpt lat="43.8302" lon="7.00309">
        <ele>1384</ele>
        <time>2011-08-21T10:27:20Z</time>
      </trkpt>
      <trkpt lat="43.83009" lon="7.00325">
        <ele>1395</ele>
        <time>2011-08-21T10:27:35Z</time>
      </trkpt>
      <trkpt lat="43.8301" lon="7.00329">
        <ele>1396</ele>
        <time>2011-08-21T10:27:39Z</time>
      </trkpt>
      <trkpt lat="43.83011" lon="7.00339">
        <ele>1398</ele>
        <time>2011-08-21T10:27:51Z</time>
      </trkpt>
      <trkpt lat="43.83014" lon="7.00347">
        <ele>1394</ele>
        <time>2011-08-21T10:28:00Z</time>
      </trkpt>
      <trkpt lat="43.83015" lon="7.00354">
        <ele>1393</ele>
        <time>2011-08-21T10:28:05Z</time>
      </trkpt>
      <trkpt lat="43.83017" lon="7.00355">
        <ele>1392</ele>
        <time>2011-08-21T10:28:07Z</time>
      </trkpt>
      <trkpt lat="43.83017" lon="7.00357">
        <ele>1392</ele>
        <time>2011-08-21T10:28:11Z</time>
      </trkpt>
      <trkpt lat="43.83018" lon="7.00363">
        <ele>1391</ele>
        <time>2011-08-21T10:28:15Z</time>
      </trkpt>
      <trkpt lat="43.83023" lon="7.00377">
        <ele>1390</ele>
        <time>2011-08-21T10:28:28Z</time>
      </trkpt>
      <trkpt lat="43.83023" lon="7.00391">
        <ele>1392</ele>
        <time>2011-08-21T10:28:41Z</time>
      </trkpt>
      <trkpt lat="43.83022" lon="7.00401">
        <ele>1394</ele>
        <time>2011-08-21T10:28:55Z</time>
      </trkpt>
      <trkpt lat="43.8302" lon="7.00405">
        <ele>1396</ele>
        <time>2011-08-21T10:29:05Z</time>
      </trkpt>
      <trkpt lat="43.83019" lon="7.00412">
        <ele>1398</ele>
        <time>2011-08-21T10:29:19Z</time>
      </trkpt>
      <trkpt lat="43.83017" lon="7.00426">
        <ele>1404</ele>
        <time>2011-08-21T10:29:39Z</time>
      </trkpt>
      <trkpt lat="43.83015" lon="7.00436">
        <ele>1403</ele>
        <time>2011-08-21T10:30:01Z</time>
      </trkpt>
      <trkpt lat="43.83015" lon="7.00437">
        <ele>1403</ele>
        <time>2011-08-21T10:30:02Z</time>
      </trkpt>
      <trkpt lat="43.83019" lon="7.00461">
        <ele>1401</ele>
        <time>2011-08-21T10:30:21Z</time>
      </trkpt>
      <trkpt lat="43.83017" lon="7.00477">
        <ele>1405</ele>
        <time>2011-08-21T10:30:44Z</time>
      </trkpt>
      <trkpt lat="43.83018" lon="7.00485">
        <ele>1407</ele>
        <time>2011-08-21T10:30:56Z</time>
      </trkpt>
      <trkpt lat="43.83018" lon="7.00486">
        <ele>1407</ele>
        <time>2011-08-21T10:30:58Z</time>
      </trkpt>
      <trkpt lat="43.83018" lon="7.00499">
        <ele>1410</ele>
        <time>2011-08-21T10:31:16Z</time>
      </trkpt>
      <trkpt lat="43.8302" lon="7.005">
        <ele>1415</ele>
        <time>2011-08-21T10:31:21Z</time>
      </trkpt>
      <trkpt lat="43.83022" lon="7.00519">
        <ele>1412</ele>
        <time>2011-08-21T10:31:42Z</time>
      </trkpt>
      <trkpt lat="43.8302" lon="7.00531">
        <ele>1412</ele>
        <time>2011-08-21T10:31:53Z</time>
      </trkpt>
      <trkpt lat="43.83021" lon="7.00555">
        <ele>1415</ele>
        <time>2011-08-21T10:32:13Z</time>
      </trkpt>
      <trkpt lat="43.83018" lon="7.00575">
        <ele>1422</ele>
        <time>2011-08-21T10:32:31Z</time>
      </trkpt>
      <trkpt lat="43.83017" lon="7.00591">
        <ele>1427</ele>
        <time>2011-08-21T10:32:45Z</time>
      </trkpt>
      <trkpt lat="43.83019" lon="7.00612">
        <ele>1422</ele>
        <time>2011-08-21T10:33:00Z</time>
      </trkpt>
      <trkpt lat="43.83022" lon="7.00623">
        <ele>1421</ele>
        <time>2011-08-21T10:33:08Z</time>
      </trkpt>
      <trkpt lat="43.8302" lon="7.00633">
        <ele>1422</ele>
        <time>2011-08-21T10:33:15Z</time>
      </trkpt>
      <trkpt lat="43.83018" lon="7.00651">
        <ele>1427</ele>
        <time>2011-08-21T10:33:30Z</time>
      </trkpt>
      <trkpt lat="43.83018" lon="7.00657">
        <ele>1428</ele>
        <time>2011-08-21T10:33:38Z</time>
      </trkpt>
      <trkpt lat="43.83021" lon="7.00667">
        <ele>1429</ele>
        <time>2011-08-21T10:33:47Z</time>
      </trkpt>
      <trkpt lat="43.83025" lon="7.00685">
        <ele>1426</ele>
        <time>2011-08-21T10:33:59Z</time>
      </trkpt>
      <trkpt lat="43.83026" lon="7.00697">
        <ele>1425</ele>
        <time>2011-08-21T10:34:08Z</time>
      </trkpt>
      <trkpt lat="43.83029" lon="7.00704">
        <ele>1424</ele>
        <time>2011-08-21T10:34:17Z</time>
      </trkpt>
      <trkpt lat="43.83027" lon="7.00729">
        <ele>1426</ele>
        <time>2011-08-21T10:34:35Z</time>
      </trkpt>
      <trkpt lat="43.83026" lon="7.00732">
        <ele>1426</ele>
        <time>2011-08-21T10:34:38Z</time>
      </trkpt>
      <trkpt lat="43.83026" lon="7.00748">
        <ele>1428</ele>
        <time>2011-08-21T10:34:51Z</time>
      </trkpt>
      <trkpt lat="43.83027" lon="7.00752">
        <ele>1428</ele>
        <time>2011-08-21T10:34:54Z</time>
      </trkpt>
      <trkpt lat="43.83026" lon="7.00764">
        <ele>1428</ele>
        <time>2011-08-21T10:35:02Z</time>
      </trkpt>
      <trkpt lat="43.83026" lon="7.00772">
        <ele>1427</ele>
        <time>2011-08-21T10:35:09Z</time>
      </trkpt>
      <trkpt lat="43.83026" lon="7.00776">
        <ele>1427</ele>
        <time>2011-08-21T10:35:12Z</time>
      </trkpt>
      <trkpt lat="43.83025" lon="7.00794">
        <ele>1426</ele>
        <time>2011-08-21T10:35:25Z</time>
      </trkpt>
      <trkpt lat="43.83022" lon="7.00812">
        <ele>1428</ele>
        <time>2011-08-21T10:35:41Z</time>
      </trkpt>
      <trkpt lat="43.83021" lon="7.00813">
        <ele>1428</ele>
        <time>2011-08-21T10:35:42Z</time>
      </trkpt>
      <trkpt lat="43.8302" lon="7.00815">
        <ele>1429</ele>
        <time>2011-08-21T10:35:44Z</time>
      </trkpt>
      <trkpt lat="43.83017" lon="7.00819">
        <ele>1431</ele>
        <time>2011-08-21T10:35:48Z</time>
      </trkpt>
      <trkpt lat="43.8302" lon="7.00836">
        <ele>1432</ele>
        <time>2011-08-21T10:36:01Z</time>
      </trkpt>
      <trkpt lat="43.83016" lon="7.0086">
        <ele>1430</ele>
        <time>2011-08-21T10:36:22Z</time>
      </trkpt>
      <trkpt lat="43.83014" lon="7.00869">
        <ele>1430</ele>
        <time>2011-08-21T10:36:35Z</time>
      </trkpt>
      <trkpt lat="43.83012" lon="7.00884">
        <ele>1430</ele>
        <time>2011-08-21T10:36:50Z</time>
      </trkpt>
      <trkpt lat="43.83012" lon="7.00903">
        <ele>1434</ele>
        <time>2011-08-21T10:37:07Z</time>
      </trkpt>
      <trkpt lat="43.8301" lon="7.0092">
        <ele>1439</ele>
        <time>2011-08-21T10:37:25Z</time>
      </trkpt>
      <trkpt lat="43.83007" lon="7.00935">
        <ele>1436</ele>
        <time>2011-08-21T10:37:40Z</time>
      </trkpt>
      <trkpt lat="43.83004" lon="7.00957">
        <ele>1435</ele>
        <time>2011-08-21T10:37:57Z</time>
      </trkpt>
      <trkpt lat="43.83001" lon="7.00966">
        <ele>1436</ele>
        <time>2011-08-21T10:38:04Z</time>
      </trkpt>
      <trkpt lat="43.83001" lon="7.0098">
        <ele>1438</ele>
        <time>2011-08-21T10:38:17Z</time>
      </trkpt>
      <trkpt lat="43.83001" lon="7.00981">
        <ele>1438</ele>
        <time>2011-08-21T10:38:18Z</time>
      </trkpt>
      <trkpt lat="43.82998" lon="7.00995">
        <ele>1450</ele>
        <time>2011-08-21T10:38:35Z</time>
      </trkpt>
      <trkpt lat="43.82996" lon="7.01003">
        <ele>1450</ele>
        <time>2011-08-21T10:38:48Z</time>
      </trkpt>
      <trkpt lat="43.82994" lon="7.01003">
        <ele>1450</ele>
        <time>2011-08-21T10:38:50Z</time>
      </trkpt>
      <trkpt lat="43.82986" lon="7.01011">
        <ele>1453</ele>
        <time>2011-08-21T10:39:05Z</time>
      </trkpt>
      <trkpt lat="43.82981" lon="7.01013">
        <ele>1454</ele>
        <time>2011-08-21T10:39:12Z</time>
      </trkpt>
      <trkpt lat="43.82974" lon="7.01019">
        <ele>1456</ele>
        <time>2011-08-21T10:39:26Z</time>
      </trkpt>
      <trkpt lat="43.82965" lon="7.0103">
        <ele>1457</ele>
        <time>2011-08-21T10:39:41Z</time>
      </trkpt>
      <trkpt lat="43.82956" lon="7.0105">
        <ele>1457</ele>
        <time>2011-08-21T10:40:01Z</time>
      </trkpt>
      <trkpt lat="43.82957" lon="7.0105">
        <ele>1457</ele>
        <time>2011-08-21T10:40:22Z</time>
      </trkpt>
      <trkpt lat="43.82952" lon="7.01055">
        <ele>1458</ele>
        <time>2011-08-21T10:40:43Z</time>
      </trkpt>
      <trkpt lat="43.82937" lon="7.01073">
        <ele>1459</ele>
        <time>2011-08-21T10:41:01Z</time>
      </trkpt>
      <trkpt lat="43.82925" lon="7.01086">
        <ele>1458</ele>
        <time>2011-08-21T10:41:17Z</time>
      </trkpt>
      <trkpt lat="43.82909" lon="7.01092">
        <ele>1463</ele>
        <time>2011-08-21T10:41:36Z</time>
      </trkpt>
      <trkpt lat="43.82891" lon="7.01104">
        <ele>1463</ele>
        <time>2011-08-21T10:41:54Z</time>
      </trkpt>
      <trkpt lat="43.82876" lon="7.01116">
        <ele>1464</ele>
        <time>2011-08-21T10:42:13Z</time>
      </trkpt>
      <trkpt lat="43.82874" lon="7.01117">
        <ele>1464</ele>
        <time>2011-08-21T10:42:15Z</time>
      </trkpt>
      <trkpt lat="43.82859" lon="7.01125">
        <ele>1464</ele>
        <time>2011-08-21T10:42:34Z</time>
      </trkpt>
      <trkpt lat="43.82852" lon="7.0113">
        <ele>1464</ele>
        <time>2011-08-21T10:42:43Z</time>
      </trkpt>
      <trkpt lat="43.82841" lon="7.01134">
        <ele>1464</ele>
        <time>2011-08-21T10:42:54Z</time>
      </trkpt>
      <trkpt lat="43.82835" lon="7.01132">
        <ele>1465</ele>
        <time>2011-08-21T10:43:00Z</time>
      </trkpt>
      <trkpt lat="43.8283" lon="7.01131">
        <ele>1472</ele>
        <time>2011-08-21T10:43:04Z</time>
      </trkpt>
      <trkpt lat="43.8281" lon="7.01142">
        <ele>1471</ele>
        <time>2011-08-21T10:43:23Z</time>
      </trkpt>
      <trkpt lat="43.82798" lon="7.0116">
        <ele>1471</ele>
        <time>2011-08-21T10:43:40Z</time>
      </trkpt>
      <trkpt lat="43.82789" lon="7.01186">
        <ele>1464</ele>
        <time>2011-08-21T10:44:00Z</time>
      </trkpt>
      <trkpt lat="43.82783" lon="7.01211">
        <ele>1463</ele>
        <time>2011-08-21T10:44:20Z</time>
      </trkpt>
      <trkpt lat="43.82779" lon="7.01235">
        <ele>1464</ele>
        <time>2011-08-21T10:44:40Z</time>
      </trkpt>
      <trkpt lat="43.8278" lon="7.01232">
        <ele>1463</ele>
        <time>2011-08-21T10:47:19Z</time>
      </trkpt>
      <trkpt lat="43.82779" lon="7.01231">
        <ele>1464</ele>
        <time>2011-08-21T10:47:48Z</time>
      </trkpt>
      <trkpt lat="43.82778" lon="7.01228">
        <ele>1464</ele>
        <time>2011-08-21T10:49:19Z</time>
      </trkpt>
      <trkpt lat="43.82777" lon="7.01227">
        <ele>1464</ele>
        <time>2011-08-21T10:49:35Z</time>
      </trkpt>
      <trkpt lat="43.82755" lon="7.01214">
        <ele>1465</ele>
        <time>2011-08-21T10:49:53Z</time>
      </trkpt>
      <trkpt lat="43.82754" lon="7.01213">
        <ele>1465</ele>
        <time>2011-08-21T10:49:54Z</time>
      </trkpt>
      <trkpt lat="43.82714" lon="7.0121">
        <ele>1470</ele>
        <time>2011-08-21T10:50:17Z</time>
      </trkpt>
      <trkpt lat="43.82701" lon="7.01205">
        <ele>1470</ele>
        <time>2011-08-21T10:50:25Z</time>
      </trkpt>
      <trkpt lat="43.82684" lon="7.01189">
        <ele>1470</ele>
        <time>2011-08-21T10:50:41Z</time>
      </trkpt>
      <trkpt lat="43.82677" lon="7.01188">
        <ele>1469</ele>
        <time>2011-08-21T10:50:47Z</time>
      </trkpt>
      <trkpt lat="43.82649" lon="7.01193">
        <ele>1470</ele>
        <time>2011-08-21T10:51:02Z</time>
      </trkpt>
      <trkpt lat="43.82624" lon="7.01217">
        <ele>1471</ele>
        <time>2011-08-21T10:51:12Z</time>
      </trkpt>
      <trkpt lat="43.82598" lon="7.01249">
        <ele>1471</ele>
        <time>2011-08-21T10:51:32Z</time>
      </trkpt>
      <trkpt lat="43.82586" lon="7.0125">
        <ele>1473</ele>
        <time>2011-08-21T10:51:41Z</time>
      </trkpt>
      <trkpt lat="43.82558" lon="7.01226">
        <ele>1472</ele>
        <time>2011-08-21T10:51:56Z</time>
      </trkpt>
      <trkpt lat="43.82528" lon="7.01197">
        <ele>1472</ele>
        <time>2011-08-21T10:52:13Z</time>
      </trkpt>
      <trkpt lat="43.82524" lon="7.01189">
        <ele>1472</ele>
        <time>2011-08-21T10:52:26Z</time>
      </trkpt>
      <trkpt lat="43.8252" lon="7.01175">
        <ele>1472</ele>
        <time>2011-08-21T10:52:42Z</time>
      </trkpt>
      <trkpt lat="43.82509" lon="7.01156">
        <ele>1472</ele>
        <time>2011-08-21T10:53:02Z</time>
      </trkpt>
      <trkpt lat="43.82501" lon="7.01148">
        <ele>1472</ele>
        <time>2011-08-21T10:53:16Z</time>
      </trkpt>
      <trkpt lat="43.82484" lon="7.01116">
        <ele>1475</ele>
        <time>2011-08-21T10:53:30Z</time>
      </trkpt>
      <trkpt lat="43.82476" lon="7.01088">
        <ele>1475</ele>
        <time>2011-08-21T10:53:37Z</time>
      </trkpt>
      <trkpt lat="43.82471" lon="7.01066">
        <ele>1476</ele>
        <time>2011-08-21T10:53:40Z</time>
      </trkpt>
      <trkpt lat="43.8245" lon="7.01046">
        <ele>1476</ele>
        <time>2011-08-21T10:53:47Z</time>
      </trkpt>
      <trkpt lat="43.824" lon="7.01026">
        <ele>1475</ele>
        <time>2011-08-21T10:54:05Z</time>
      </trkpt>
      <trkpt lat="43.82356" lon="7.01004">
        <ele>1472</ele>
        <time>2011-08-21T10:54:20Z</time>
      </trkpt>
      <trkpt lat="43.8235" lon="7.01001">
        <ele>1472</ele>
        <time>2011-08-21T10:54:21Z</time>
      </trkpt>
      <trkpt lat="43.82323" lon="7.00999">
        <ele>1470</ele>
        <time>2011-08-21T10:54:26Z</time>
      </trkpt>
      <trkpt lat="43.82306" lon="7.00998">
        <ele>1470</ele>
        <time>2011-08-21T10:54:29Z</time>
      </trkpt>
      <trkpt lat="43.82257" lon="7.01">
        <ele>1468</ele>
        <time>2011-08-21T10:54:41Z</time>
      </trkpt>
      <trkpt lat="43.82243" lon="7.01008">
        <ele>1468</ele>
        <time>2011-08-21T10:54:48Z</time>
      </trkpt>
      <trkpt lat="43.82238" lon="7.01003">
        <ele>1468</ele>
        <time>2011-08-21T10:54:53Z</time>
      </trkpt>
      <trkpt lat="43.82237" lon="7.00965">
        <ele>1470</ele>
        <time>2011-08-21T10:55:08Z</time>
      </trkpt>
      <trkpt lat="43.82236" lon="7.00949">
        <ele>1471</ele>
        <time>2011-08-21T10:55:23Z</time>
      </trkpt>
      <trkpt lat="43.82236" lon="7.00934">
        <ele>1471</ele>
        <time>2011-08-21T10:55:40Z</time>
      </trkpt>
      <trkpt lat="43.82235" lon="7.00921">
        <ele>1471</ele>
        <time>2011-08-21T10:55:45Z</time>
      </trkpt>
      <trkpt lat="43.82204" lon="7.00877">
        <ele>1479</ele>
        <time>2011-08-21T10:56:08Z</time>
      </trkpt>
      <trkpt lat="43.82187" lon="7.00869">
        <ele>1479</ele>
        <time>2011-08-21T10:56:18Z</time>
      </trkpt>
      <trkpt lat="43.8218" lon="7.00859">
        <ele>1479</ele>
        <time>2011-08-21T10:56:26Z</time>
      </trkpt>
      <trkpt lat="43.82167" lon="7.0084">
        <ele>1480</ele>
        <time>2011-08-21T10:56:40Z</time>
      </trkpt>
      <trkpt lat="43.82156" lon="7.00809">
        <ele>1481</ele>
        <time>2011-08-21T10:56:57Z</time>
      </trkpt>
      <trkpt lat="43.82151" lon="7.00791">
        <ele>1481</ele>
        <time>2011-08-21T10:57:06Z</time>
      </trkpt>
      <trkpt lat="43.82141" lon="7.00781">
        <ele>1482</ele>
        <time>2011-08-21T10:57:21Z</time>
      </trkpt>
      <trkpt lat="43.82131" lon="7.00763">
        <ele>1482</ele>
        <time>2011-08-21T10:57:41Z</time>
      </trkpt>
      <trkpt lat="43.82124" lon="7.00746">
        <ele>1485</ele>
        <time>2011-08-21T10:57:58Z</time>
      </trkpt>
      <trkpt lat="43.82118" lon="7.00736">
        <ele>1485</ele>
        <time>2011-08-21T10:58:12Z</time>
      </trkpt>
      <trkpt lat="43.82109" lon="7.00713">
        <ele>1485</ele>
        <time>2011-08-21T10:58:28Z</time>
      </trkpt>
      <trkpt lat="43.82085" lon="7.00683">
        <ele>1484</ele>
        <time>2011-08-21T10:58:39Z</time>
      </trkpt>
      <trkpt lat="43.82062" lon="7.00668">
        <ele>1475</ele>
        <time>2011-08-21T10:58:45Z</time>
      </trkpt>
      <trkpt lat="43.82049" lon="7.00649">
        <ele>1477</ele>
        <time>2011-08-21T10:58:49Z</time>
      </trkpt>
      <trkpt lat="43.82035" lon="7.0064">
        <ele>1476</ele>
        <time>2011-08-21T10:58:53Z</time>
      </trkpt>
      <trkpt lat="43.82029" lon="7.0064">
        <ele>1475</ele>
        <time>2011-08-21T10:58:55Z</time>
      </trkpt>
      <trkpt lat="43.81993" lon="7.00631">
        <ele>1468</ele>
        <time>2011-08-21T10:59:06Z</time>
      </trkpt>
      <trkpt lat="43.81975" lon="7.00679">
        <ele>1464</ele>
        <time>2011-08-21T10:59:19Z</time>
      </trkpt>
      <trkpt lat="43.81987" lon="7.00735">
        <ele>1463</ele>
        <time>2011-08-21T10:59:29Z</time>
      </trkpt>
      <trkpt lat="43.82003" lon="7.00832">
        <ele>1456</ele>
        <time>2011-08-21T10:59:46Z</time>
      </trkpt>
      <trkpt lat="43.81993" lon="7.00909">
        <ele>1449</ele>
        <time>2011-08-21T11:00:01Z</time>
      </trkpt>
      <trkpt lat="43.82008" lon="7.00962">
        <ele>1448</ele>
        <time>2011-08-21T11:00:15Z</time>
      </trkpt>
      <trkpt lat="43.82016" lon="7.00989">
        <ele>1445</ele>
        <time>2011-08-21T11:00:28Z</time>
      </trkpt>
      <trkpt lat="43.82017" lon="7.00989">
        <ele>1445</ele>
        <time>2011-08-21T11:01:02Z</time>
      </trkpt>
      <trkpt lat="43.82012" lon="7.00981">
        <ele>1446</ele>
        <time>2011-08-21T11:02:49Z</time>
      </trkpt>
      <trkpt lat="43.81998" lon="7.00961">
        <ele>1444</ele>
        <time>2011-08-21T11:03:00Z</time>
      </trkpt>
      <trkpt lat="43.81998" lon="7.00986">
        <ele>1441</ele>
        <time>2011-08-21T11:03:10Z</time>
      </trkpt>
      <trkpt lat="43.82005" lon="7.00994">
        <ele>1441</ele>
        <time>2011-08-21T11:03:14Z</time>
      </trkpt>
      <trkpt lat="43.82023" lon="7.01033">
        <ele>1442</ele>
        <time>2011-08-21T11:03:29Z</time>
      </trkpt>
      <trkpt lat="43.82029" lon="7.01039">
        <ele>1443</ele>
        <time>2011-08-21T11:03:33Z</time>
      </trkpt>
      <trkpt lat="43.82023" lon="7.01049">
        <ele>1442</ele>
        <time>2011-08-21T11:03:40Z</time>
      </trkpt>
      <trkpt lat="43.82017" lon="7.01051">
        <ele>1441</ele>
        <time>2011-08-21T11:03:42Z</time>
      </trkpt>
      <trkpt lat="43.82006" lon="7.01062">
        <ele>1439</ele>
        <time>2011-08-21T11:03:46Z</time>
      </trkpt>
      <trkpt lat="43.81984" lon="7.01096">
        <ele>1432</ele>
        <time>2011-08-21T11:03:58Z</time>
      </trkpt>
      <trkpt lat="43.81957" lon="7.01139">
        <ele>1432</ele>
        <time>2011-08-21T11:04:14Z</time>
      </trkpt>
      <trkpt lat="43.81922" lon="7.01169">
        <ele>1429</ele>
        <time>2011-08-21T11:04:31Z</time>
      </trkpt>
      <trkpt lat="43.81887" lon="7.01181">
        <ele>1430</ele>
        <time>2011-08-21T11:04:44Z</time>
      </trkpt>
      <trkpt lat="43.81874" lon="7.01194">
        <ele>1430</ele>
        <time>2011-08-21T11:04:49Z</time>
      </trkpt>
      <trkpt lat="43.81859" lon="7.01196">
        <ele>1430</ele>
        <time>2011-08-21T11:04:54Z</time>
      </trkpt>
      <trkpt lat="43.81841" lon="7.0119">
        <ele>1431</ele>
        <time>2011-08-21T11:04:59Z</time>
      </trkpt>
      <trkpt lat="43.81822" lon="7.01227">
        <ele>1434</ele>
        <time>2011-08-21T11:05:09Z</time>
      </trkpt>
      <trkpt lat="43.81815" lon="7.01236">
        <ele>1434</ele>
        <time>2011-08-21T11:05:19Z</time>
      </trkpt>
      <trkpt lat="43.81807" lon="7.01244">
        <ele>1435</ele>
        <time>2011-08-21T11:05:35Z</time>
      </trkpt>
      <trkpt lat="43.81803" lon="7.01251">
        <ele>1432</ele>
        <time>2011-08-21T11:05:44Z</time>
      </trkpt>
      <trkpt lat="43.81788" lon="7.01277">
        <ele>1433</ele>
        <time>2011-08-21T11:05:56Z</time>
      </trkpt>
      <trkpt lat="43.81772" lon="7.01307">
        <ele>1434</ele>
        <time>2011-08-21T11:06:10Z</time>
      </trkpt>
      <trkpt lat="43.81766" lon="7.01346">
        <ele>1434</ele>
        <time>2011-08-21T11:06:26Z</time>
      </trkpt>
      <trkpt lat="43.81755" lon="7.01384">
        <ele>1434</ele>
        <time>2011-08-21T11:06:42Z</time>
      </trkpt>
      <trkpt lat="43.8173" lon="7.01411">
        <ele>1440</ele>
        <time>2011-08-21T11:07:00Z</time>
      </trkpt>
      <trkpt lat="43.81707" lon="7.01448">
        <ele>1438</ele>
        <time>2011-08-21T11:07:20Z</time>
      </trkpt>
      <trkpt lat="43.81689" lon="7.01459">
        <ele>1439</ele>
        <time>2011-08-21T11:07:38Z</time>
      </trkpt>
      <trkpt lat="43.81685" lon="7.01462">
        <ele>1439</ele>
        <time>2011-08-21T11:07:52Z</time>
      </trkpt>
      <trkpt lat="43.81681" lon="7.01466">
        <ele>1439</ele>
        <time>2011-08-21T11:08:07Z</time>
      </trkpt>
      <trkpt lat="43.81669" lon="7.01476">
        <ele>1438</ele>
        <time>2011-08-21T11:08:34Z</time>
      </trkpt>
      <trkpt lat="43.81663" lon="7.0148">
        <ele>1446</ele>
        <time>2011-08-21T11:08:40Z</time>
      </trkpt>
      <trkpt lat="43.81647" lon="7.01503">
        <ele>1438</ele>
        <time>2011-08-21T11:09:02Z</time>
      </trkpt>
      <trkpt lat="43.81628" lon="7.01513">
        <ele>1439</ele>
        <time>2011-08-21T11:09:24Z</time>
      </trkpt>
      <trkpt lat="43.81627" lon="7.01514">
        <ele>1439</ele>
        <time>2011-08-21T11:09:25Z</time>
      </trkpt>
      <trkpt lat="43.81618" lon="7.01524">
        <ele>1439</ele>
        <time>2011-08-21T11:09:43Z</time>
      </trkpt>
      <trkpt lat="43.81597" lon="7.01539">
        <ele>1438</ele>
        <time>2011-08-21T11:10:03Z</time>
      </trkpt>
      <trkpt lat="43.81585" lon="7.01541">
        <ele>1439</ele>
        <time>2011-08-21T11:10:20Z</time>
      </trkpt>
      <trkpt lat="43.81572" lon="7.01541">
        <ele>1442</ele>
        <time>2011-08-21T11:10:37Z</time>
      </trkpt>
      <trkpt lat="43.81558" lon="7.01541">
        <ele>1442</ele>
        <time>2011-08-21T11:10:53Z</time>
      </trkpt>
      <trkpt lat="43.81555" lon="7.0154">
        <ele>1442</ele>
        <time>2011-08-21T11:11:08Z</time>
      </trkpt>
      <trkpt lat="43.81525" lon="7.01539">
        <ele>1442</ele>
        <time>2011-08-21T11:11:21Z</time>
      </trkpt>
      <trkpt lat="43.81487" lon="7.0154">
        <ele>1443</ele>
        <time>2011-08-21T11:11:34Z</time>
      </trkpt>
      <trkpt lat="43.81473" lon="7.01543">
        <ele>1442</ele>
        <time>2011-08-21T11:11:44Z</time>
      </trkpt>
      <trkpt lat="43.81461" lon="7.01551">
        <ele>1441</ele>
        <time>2011-08-21T11:12:02Z</time>
      </trkpt>
      <trkpt lat="43.81455" lon="7.01555">
        <ele>1441</ele>
        <time>2011-08-21T11:12:18Z</time>
      </trkpt>
      <trkpt lat="43.81442" lon="7.01562">
        <ele>1439</ele>
        <time>2011-08-21T11:12:41Z</time>
      </trkpt>
      <trkpt lat="43.81417" lon="7.01571">
        <ele>1435</ele>
        <time>2011-08-21T11:12:55Z</time>
      </trkpt>
      <trkpt lat="43.81381" lon="7.01581">
        <ele>1443</ele>
        <time>2011-08-21T11:13:06Z</time>
      </trkpt>
      <trkpt lat="43.8135" lon="7.01591">
        <ele>1428</ele>
        <time>2011-08-21T11:13:19Z</time>
      </trkpt>
      <trkpt lat="43.81342" lon="7.01592">
        <ele>1431</ele>
        <time>2011-08-21T11:13:25Z</time>
      </trkpt>
      <trkpt lat="43.81335" lon="7.01597">
        <ele>1430</ele>
        <time>2011-08-21T11:13:29Z</time>
      </trkpt>
      <trkpt lat="43.81309" lon="7.01605">
        <ele>1435</ele>
        <time>2011-08-21T11:13:42Z</time>
      </trkpt>
      <trkpt lat="43.81295" lon="7.01612">
        <ele>1435</ele>
        <time>2011-08-21T11:13:51Z</time>
      </trkpt>
      <trkpt lat="43.81273" lon="7.01624">
        <ele>1435</ele>
        <time>2011-08-21T11:14:05Z</time>
      </trkpt>
      <trkpt lat="43.8127" lon="7.01627">
        <ele>1435</ele>
        <time>2011-08-21T11:14:08Z</time>
      </trkpt>
      <trkpt lat="43.81268" lon="7.0163">
        <ele>1435</ele>
        <time>2011-08-21T11:14:11Z</time>
      </trkpt>
      <trkpt lat="43.81261" lon="7.01635">
        <ele>1435</ele>
        <time>2011-08-21T11:14:16Z</time>
      </trkpt>
      <trkpt lat="43.81255" lon="7.01644">
        <ele>1434</ele>
        <time>2011-08-21T11:14:27Z</time>
      </trkpt>
      <trkpt lat="43.8125" lon="7.01651">
        <ele>1433</ele>
        <time>2011-08-21T11:14:32Z</time>
      </trkpt>
      <trkpt lat="43.81234" lon="7.01669">
        <ele>1433</ele>
        <time>2011-08-21T11:14:52Z</time>
      </trkpt>
      <trkpt lat="43.81231" lon="7.01692">
        <ele>1433</ele>
        <time>2011-08-21T11:15:09Z</time>
      </trkpt>
      <trkpt lat="43.81232" lon="7.01694">
        <ele>1433</ele>
        <time>2011-08-21T11:15:11Z</time>
      </trkpt>
      <trkpt lat="43.81234" lon="7.01721">
        <ele>1431</ele>
        <time>2011-08-21T11:15:29Z</time>
      </trkpt>
      <trkpt lat="43.81233" lon="7.0175">
        <ele>1428</ele>
        <time>2011-08-21T11:15:48Z</time>
      </trkpt>
      <trkpt lat="43.81223" lon="7.01778">
        <ele>1423</ele>
        <time>2011-08-21T11:16:10Z</time>
      </trkpt>
      <trkpt lat="43.81216" lon="7.01806">
        <ele>1422</ele>
        <time>2011-08-21T11:16:29Z</time>
      </trkpt>
      <trkpt lat="43.81214" lon="7.01809">
        <ele>1422</ele>
        <time>2011-08-21T11:16:38Z</time>
      </trkpt>
      <trkpt lat="43.81205" lon="7.01826">
        <ele>1423</ele>
        <time>2011-08-21T11:16:54Z</time>
      </trkpt>
      <trkpt lat="43.81196" lon="7.01847">
        <ele>1415</ele>
        <time>2011-08-21T11:17:14Z</time>
      </trkpt>
      <trkpt lat="43.81194" lon="7.01854">
        <ele>1415</ele>
        <time>2011-08-21T11:17:21Z</time>
      </trkpt>
      <trkpt lat="43.81174" lon="7.01872">
        <ele>1416</ele>
        <time>2011-08-21T11:17:42Z</time>
      </trkpt>
      <trkpt lat="43.81169" lon="7.01891">
        <ele>1415</ele>
        <time>2011-08-21T11:18:03Z</time>
      </trkpt>
      <trkpt lat="43.81169" lon="7.01891">
        <ele>1415</ele>
        <time>2011-08-21T11:22:08Z</time>
      </trkpt>
      <trkpt lat="43.81163" lon="7.01912">
        <ele>1422</ele>
        <time>2011-08-21T11:22:19Z</time>
      </trkpt>
      <trkpt lat="43.81148" lon="7.0196">
        <ele>1423</ele>
        <time>2011-08-21T11:22:34Z</time>
      </trkpt>
      <trkpt lat="43.81146" lon="7.01967">
        <ele>1422</ele>
        <time>2011-08-21T11:22:36Z</time>
      </trkpt>
      <trkpt lat="43.81136" lon="7.01978">
        <ele>1423</ele>
        <time>2011-08-21T11:22:48Z</time>
      </trkpt>
      <trkpt lat="43.81115" lon="7.02007">
        <ele>1419</ele>
        <time>2011-08-21T11:23:02Z</time>
      </trkpt>
      <trkpt lat="43.81104" lon="7.02049">
        <ele>1417</ele>
        <time>2011-08-21T11:23:17Z</time>
      </trkpt>
      <trkpt lat="43.81097" lon="7.02084">
        <ele>1416</ele>
        <time>2011-08-21T11:23:31Z</time>
      </trkpt>
      <trkpt lat="43.81088" lon="7.02128">
        <ele>1408</ele>
        <time>2011-08-21T11:23:49Z</time>
      </trkpt>
      <trkpt lat="43.81083" lon="7.02163">
        <ele>1421</ele>
        <time>2011-08-21T11:24:03Z</time>
      </trkpt>
      <trkpt lat="43.81074" lon="7.02215">
        <ele>1427</ele>
        <time>2011-08-21T11:24:19Z</time>
      </trkpt>
      <trkpt lat="43.81067" lon="7.02231">
        <ele>1425</ele>
        <time>2011-08-21T11:24:30Z</time>
      </trkpt>
      <trkpt lat="43.81065" lon="7.0224">
        <ele>1424</ele>
        <time>2011-08-21T11:24:48Z</time>
      </trkpt>
      <trkpt lat="43.81062" lon="7.02246">
        <ele>1425</ele>
        <time>2011-08-21T11:25:21Z</time>
      </trkpt>
      <trkpt lat="43.8106" lon="7.02252">
        <ele>1422</ele>
        <time>2011-08-21T11:25:32Z</time>
      </trkpt>
      <trkpt lat="43.81054" lon="7.0227">
        <ele>1425</ele>
        <time>2011-08-21T11:25:47Z</time>
      </trkpt>
      <trkpt lat="43.81054" lon="7.02272">
        <ele>1425</ele>
        <time>2011-08-21T11:25:48Z</time>
      </trkpt>
      <trkpt lat="43.81051" lon="7.0231">
        <ele>1426</ele>
        <time>2011-08-21T11:26:04Z</time>
      </trkpt>
      <trkpt lat="43.81047" lon="7.02345">
        <ele>1424</ele>
        <time>2011-08-21T11:26:21Z</time>
      </trkpt>
      <trkpt lat="43.81047" lon="7.02349">
        <ele>1424</ele>
        <time>2011-08-21T11:26:27Z</time>
      </trkpt>
      <trkpt lat="43.81045" lon="7.02372">
        <ele>1425</ele>
        <time>2011-08-21T11:26:45Z</time>
      </trkpt>
      <trkpt lat="43.81042" lon="7.0239">
        <ele>1425</ele>
        <time>2011-08-21T11:27:27Z</time>
      </trkpt>
      <trkpt lat="43.81042" lon="7.02399">
        <ele>1425</ele>
        <time>2011-08-21T11:27:46Z</time>
      </trkpt>
      <trkpt lat="43.81038" lon="7.02421">
        <ele>1421</ele>
        <time>2011-08-21T11:28:04Z</time>
      </trkpt>
      <trkpt lat="43.81035" lon="7.02427">
        <ele>1421</ele>
        <time>2011-08-21T11:28:13Z</time>
      </trkpt>
      <trkpt lat="43.81031" lon="7.02434">
        <ele>1422</ele>
        <time>2011-08-21T11:28:26Z</time>
      </trkpt>
      <trkpt lat="43.81008" lon="7.02453">
        <ele>1423</ele>
        <time>2011-08-21T11:28:40Z</time>
      </trkpt>
      <trkpt lat="43.80987" lon="7.02479">
        <ele>1439</ele>
        <time>2011-08-21T11:28:57Z</time>
      </trkpt>
      <trkpt lat="43.80972" lon="7.02511">
        <ele>1433</ele>
        <time>2011-08-21T11:29:11Z</time>
      </trkpt>
      <trkpt lat="43.80959" lon="7.0255">
        <ele>1434</ele>
        <time>2011-08-21T11:29:27Z</time>
      </trkpt>
      <trkpt lat="43.80948" lon="7.02574">
        <ele>1435</ele>
        <time>2011-08-21T11:29:38Z</time>
      </trkpt>
      <trkpt lat="43.80933" lon="7.02612">
        <ele>1427</ele>
        <time>2011-08-21T11:29:56Z</time>
      </trkpt>
      <trkpt lat="43.8092" lon="7.02649">
        <ele>1425</ele>
        <time>2011-08-21T11:30:12Z</time>
      </trkpt>
      <trkpt lat="43.80906" lon="7.0268">
        <ele>1434</ele>
        <time>2011-08-21T11:30:24Z</time>
      </trkpt>
      <trkpt lat="43.80889" lon="7.0272">
        <ele>1435</ele>
        <time>2011-08-21T11:30:43Z</time>
      </trkpt>
      <trkpt lat="43.80873" lon="7.02759">
        <ele>1428</ele>
        <time>2011-08-21T11:31:02Z</time>
      </trkpt>
      <trkpt lat="43.80865" lon="7.02774">
        <ele>1429</ele>
        <time>2011-08-21T11:31:11Z</time>
      </trkpt>
      <trkpt lat="43.80863" lon="7.0278">
        <ele>1429</ele>
        <time>2011-08-21T11:31:14Z</time>
      </trkpt>
      <trkpt lat="43.80859" lon="7.02794">
        <ele>1429</ele>
        <time>2011-08-21T11:31:21Z</time>
      </trkpt>
      <trkpt lat="43.80844" lon="7.02823">
        <ele>1433</ele>
        <time>2011-08-21T11:31:37Z</time>
      </trkpt>
      <trkpt lat="43.8084" lon="7.02831">
        <ele>1436</ele>
        <time>2011-08-21T11:31:50Z</time>
      </trkpt>
      <trkpt lat="43.80834" lon="7.02842">
        <ele>1432</ele>
        <time>2011-08-21T11:31:59Z</time>
      </trkpt>
      <trkpt lat="43.80833" lon="7.02846">
        <ele>1439</ele>
        <time>2011-08-21T11:32:02Z</time>
      </trkpt>
      <trkpt lat="43.80823" lon="7.02863">
        <ele>1440</ele>
        <time>2011-08-21T11:32:23Z</time>
      </trkpt>
      <trkpt lat="43.80814" lon="7.02882">
        <ele>1439</ele>
        <time>2011-08-21T11:32:43Z</time>
      </trkpt>
      <trkpt lat="43.80812" lon="7.02885">
        <ele>1439</ele>
        <time>2011-08-21T11:32:47Z</time>
      </trkpt>
      <trkpt lat="43.80803" lon="7.02893">
        <ele>1439</ele>
        <time>2011-08-21T11:33:04Z</time>
      </trkpt>
      <trkpt lat="43.80795" lon="7.02906">
        <ele>1439</ele>
        <time>2011-08-21T11:33:18Z</time>
      </trkpt>
      <trkpt lat="43.80778" lon="7.02945">
        <ele>1433</ele>
        <time>2011-08-21T11:33:30Z</time>
      </trkpt>
      <trkpt lat="43.80771" lon="7.02959">
        <ele>1432</ele>
        <time>2011-08-21T11:33:40Z</time>
      </trkpt>
      <trkpt lat="43.80767" lon="7.02967">
        <ele>1431</ele>
        <time>2011-08-21T11:33:53Z</time>
      </trkpt>
      <trkpt lat="43.80741" lon="7.02994">
        <ele>1428</ele>
        <time>2011-08-21T11:34:05Z</time>
      </trkpt>
      <trkpt lat="43.80736" lon="7.02989">
        <ele>1427</ele>
        <time>2011-08-21T11:34:09Z</time>
      </trkpt>
      <trkpt lat="43.80729" lon="7.02983">
        <ele>1426</ele>
        <time>2011-08-21T11:34:21Z</time>
      </trkpt>
      <trkpt lat="43.80728" lon="7.02983">
        <ele>1426</ele>
        <time>2011-08-21T11:34:24Z</time>
      </trkpt>
      <trkpt lat="43.80703" lon="7.02995">
        <ele>1422</ele>
        <time>2011-08-21T11:34:36Z</time>
      </trkpt>
      <trkpt lat="43.80687" lon="7.02996">
        <ele>1419</ele>
        <time>2011-08-21T11:34:44Z</time>
      </trkpt>
      <trkpt lat="43.80682" lon="7.02993">
        <ele>1418</ele>
        <time>2011-08-21T11:34:47Z</time>
      </trkpt>
      <trkpt lat="43.80665" lon="7.03022">
        <ele>1402</ele>
        <time>2011-08-21T11:35:02Z</time>
      </trkpt>
      <trkpt lat="43.80655" lon="7.0303">
        <ele>1399</ele>
        <time>2011-08-21T11:35:08Z</time>
      </trkpt>
      <trkpt lat="43.80651" lon="7.03035">
        <ele>1398</ele>
        <time>2011-08-21T11:35:21Z</time>
      </trkpt>
      <trkpt lat="43.80631" lon="7.03066">
        <ele>1396</ele>
        <time>2011-08-21T11:35:36Z</time>
      </trkpt>
      <trkpt lat="43.80623" lon="7.03093">
        <ele>1397</ele>
        <time>2011-08-21T11:35:49Z</time>
      </trkpt>
      <trkpt lat="43.80617" lon="7.03105">
        <ele>1397</ele>
        <time>2011-08-21T11:36:04Z</time>
      </trkpt>
      <trkpt lat="43.80607" lon="7.03124">
        <ele>1397</ele>
        <time>2011-08-21T11:36:22Z</time>
      </trkpt>
      <trkpt lat="43.80601" lon="7.03133">
        <ele>1397</ele>
        <time>2011-08-21T11:36:37Z</time>
      </trkpt>
      <trkpt lat="43.80591" lon="7.03142">
        <ele>1397</ele>
        <time>2011-08-21T11:36:52Z</time>
      </trkpt>
      <trkpt lat="43.80588" lon="7.03148">
        <ele>1398</ele>
        <time>2011-08-21T11:37:08Z</time>
      </trkpt>
      <trkpt lat="43.80587" lon="7.03153">
        <ele>1398</ele>
        <time>2011-08-21T11:37:24Z</time>
      </trkpt>
      <trkpt lat="43.80587" lon="7.03153">
        <ele>1398</ele>
        <time>2011-08-21T11:37:26Z</time>
      </trkpt>
      <trkpt lat="43.80568" lon="7.03187">
        <ele>1391</ele>
        <time>2011-08-21T11:37:41Z</time>
      </trkpt>
      <trkpt lat="43.80568" lon="7.03188">
        <ele>1391</ele>
        <time>2011-08-21T11:38:04Z</time>
      </trkpt>
      <trkpt lat="43.80561" lon="7.03203">
        <ele>1390</ele>
        <time>2011-08-21T11:38:57Z</time>
      </trkpt>
      <trkpt lat="43.8053" lon="7.03244">
        <ele>1386</ele>
        <time>2011-08-21T11:39:12Z</time>
      </trkpt>
      <trkpt lat="43.80491" lon="7.03277">
        <ele>1373</ele>
        <time>2011-08-21T11:39:26Z</time>
      </trkpt>
      <trkpt lat="43.8048" lon="7.03285">
        <ele>1371</ele>
        <time>2011-08-21T11:39:31Z</time>
      </trkpt>
      <trkpt lat="43.80476" lon="7.03284">
        <ele>1370</ele>
        <time>2011-08-21T11:39:41Z</time>
      </trkpt>
      <trkpt lat="43.80476" lon="7.03283">
        <ele>1370</ele>
        <time>2011-08-21T11:39:43Z</time>
      </trkpt>
      <trkpt lat="43.80501" lon="7.03249">
        <ele>1380</ele>
        <time>2011-08-21T11:39:56Z</time>
      </trkpt>
      <trkpt lat="43.8052" lon="7.03205">
        <ele>1382</ele>
        <time>2011-08-21T11:40:08Z</time>
      </trkpt>
      <trkpt lat="43.80526" lon="7.03153">
        <ele>1368</ele>
        <time>2011-08-21T11:40:22Z</time>
      </trkpt>
      <trkpt lat="43.80526" lon="7.03132">
        <ele>1367</ele>
        <time>2011-08-21T11:40:34Z</time>
      </trkpt>
      <trkpt lat="43.80525" lon="7.03134">
        <ele>1367</ele>
        <time>2011-08-21T11:40:48Z</time>
      </trkpt>
      <trkpt lat="43.80524" lon="7.03136">
        <ele>1367</ele>
        <time>2011-08-21T11:45:29Z</time>
      </trkpt>
      <trkpt lat="43.80508" lon="7.03173">
        <ele>1368</ele>
        <time>2011-08-21T11:45:44Z</time>
      </trkpt>
      <trkpt lat="43.80485" lon="7.03202">
        <ele>1352</ele>
        <time>2011-08-21T11:45:56Z</time>
      </trkpt>
      <trkpt lat="43.8048" lon="7.03207">
        <ele>1351</ele>
        <time>2011-08-21T11:46:07Z</time>
      </trkpt>
      <trkpt lat="43.80477" lon="7.03207">
        <ele>1351</ele>
        <time>2011-08-21T11:46:33Z</time>
      </trkpt>
      <trkpt lat="43.80474" lon="7.03208">
        <ele>1350</ele>
        <time>2011-08-21T11:46:36Z</time>
      </trkpt>
      <trkpt lat="43.80469" lon="7.03209">
        <ele>1349</ele>
        <time>2011-08-21T11:46:47Z</time>
      </trkpt>
      <trkpt lat="43.80476" lon="7.03197">
        <ele>1349</ele>
        <time>2011-08-21T11:47:04Z</time>
      </trkpt>
      <trkpt lat="43.80478" lon="7.03182">
        <ele>1349</ele>
        <time>2011-08-21T11:47:21Z</time>
      </trkpt>
      <trkpt lat="43.8048" lon="7.03176">
        <ele>1350</ele>
        <time>2011-08-21T11:47:38Z</time>
      </trkpt>
      <trkpt lat="43.80482" lon="7.03164">
        <ele>1341</ele>
        <time>2011-08-21T11:47:49Z</time>
      </trkpt>
      <trkpt lat="43.80482" lon="7.03137">
        <ele>1333</ele>
        <time>2011-08-21T11:48:01Z</time>
      </trkpt>
      <trkpt lat="43.80484" lon="7.03128">
        <ele>1331</ele>
        <time>2011-08-21T11:48:05Z</time>
      </trkpt>
      <trkpt lat="43.80483" lon="7.03126">
        <ele>1331</ele>
        <time>2011-08-21T11:48:19Z</time>
      </trkpt>
      <trkpt lat="43.80479" lon="7.03133">
        <ele>1331</ele>
        <time>2011-08-21T11:48:47Z</time>
      </trkpt>
      <trkpt lat="43.80467" lon="7.03153">
        <ele>1331</ele>
        <time>2011-08-21T11:49:08Z</time>
      </trkpt>
      <trkpt lat="43.8046" lon="7.03158">
        <ele>1329</ele>
        <time>2011-08-21T11:49:21Z</time>
      </trkpt>
      <trkpt lat="43.80459" lon="7.03161">
        <ele>1328</ele>
        <time>2011-08-21T11:49:23Z</time>
      </trkpt>
      <trkpt lat="43.80455" lon="7.03165">
        <ele>1327</ele>
        <time>2011-08-21T11:49:27Z</time>
      </trkpt>
      <trkpt lat="43.8044" lon="7.03177">
        <ele>1335</ele>
        <time>2011-08-21T11:49:44Z</time>
      </trkpt>
      <trkpt lat="43.80439" lon="7.03178">
        <ele>1334</ele>
        <time>2011-08-21T11:49:45Z</time>
      </trkpt>
      <trkpt lat="43.80428" lon="7.03189">
        <ele>1333</ele>
        <time>2011-08-21T11:49:59Z</time>
      </trkpt>
      <trkpt lat="43.80418" lon="7.03192">
        <ele>1333</ele>
        <time>2011-08-21T11:50:12Z</time>
      </trkpt>
      <trkpt lat="43.8042" lon="7.0319">
        <ele>1332</ele>
        <time>2011-08-21T11:50:15Z</time>
      </trkpt>
      <trkpt lat="43.80427" lon="7.03174">
        <ele>1326</ele>
        <time>2011-08-21T11:50:27Z</time>
      </trkpt>
      <trkpt lat="43.80428" lon="7.0317">
        <ele>1326</ele>
        <time>2011-08-21T11:50:32Z</time>
      </trkpt>
      <trkpt lat="43.80435" lon="7.03155">
        <ele>1320</ele>
        <time>2011-08-21T11:50:44Z</time>
      </trkpt>
      <trkpt lat="43.80434" lon="7.03152">
        <ele>1320</ele>
        <time>2011-08-21T11:50:47Z</time>
      </trkpt>
      <trkpt lat="43.8043" lon="7.03154">
        <ele>1319</ele>
        <time>2011-08-21T11:51:02Z</time>
      </trkpt>
      <trkpt lat="43.80426" lon="7.03159">
        <ele>1317</ele>
        <time>2011-08-21T11:51:07Z</time>
      </trkpt>
      <trkpt lat="43.80407" lon="7.03173">
        <ele>1308</ele>
        <time>2011-08-21T11:51:27Z</time>
      </trkpt>
      <trkpt lat="43.80407" lon="7.03171">
        <ele>1308</ele>
        <time>2011-08-21T11:51:33Z</time>
      </trkpt>
      <trkpt lat="43.8041" lon="7.03166">
        <ele>1304</ele>
        <time>2011-08-21T11:51:37Z</time>
      </trkpt>
      <trkpt lat="43.80417" lon="7.03147">
        <ele>1317</ele>
        <time>2011-08-21T11:51:54Z</time>
      </trkpt>
      <trkpt lat="43.80424" lon="7.03134">
        <ele>1318</ele>
        <time>2011-08-21T11:52:04Z</time>
      </trkpt>
      <trkpt lat="43.8043" lon="7.0312">
        <ele>1316</ele>
        <time>2011-08-21T11:52:16Z</time>
      </trkpt>
      <trkpt lat="43.8043" lon="7.03114">
        <ele>1315</ele>
        <time>2011-08-21T11:52:31Z</time>
      </trkpt>
      <trkpt lat="43.80428" lon="7.03114">
        <ele>1314</ele>
        <time>2011-08-21T11:52:33Z</time>
      </trkpt>
      <trkpt lat="43.80407" lon="7.03123">
        <ele>1284</ele>
        <time>2011-08-21T11:52:54Z</time>
      </trkpt>
      <trkpt lat="43.804" lon="7.03129">
        <ele>1284</ele>
        <time>2011-08-21T11:53:06Z</time>
      </trkpt>
      <trkpt lat="43.804" lon="7.03123">
        <ele>1283</ele>
        <time>2011-08-21T11:53:14Z</time>
      </trkpt>
      <trkpt lat="43.80411" lon="7.03107">
        <ele>1284</ele>
        <time>2011-08-21T11:53:30Z</time>
      </trkpt>
      <trkpt lat="43.80418" lon="7.03092">
        <ele>1300</ele>
        <time>2011-08-21T11:53:45Z</time>
      </trkpt>
      <trkpt lat="43.80421" lon="7.03084">
        <ele>1296</ele>
        <time>2011-08-21T11:53:58Z</time>
      </trkpt>
      <trkpt lat="43.8043" lon="7.03061">
        <ele>1295</ele>
        <time>2011-08-21T11:54:14Z</time>
      </trkpt>
      <trkpt lat="43.80439" lon="7.03035">
        <ele>1292</ele>
        <time>2011-08-21T11:54:35Z</time>
      </trkpt>
      <trkpt lat="43.80446" lon="7.03018">
        <ele>1290</ele>
        <time>2011-08-21T11:54:49Z</time>
      </trkpt>
      <trkpt lat="43.80448" lon="7.03013">
        <ele>1290</ele>
        <time>2011-08-21T11:54:53Z</time>
      </trkpt>
      <trkpt lat="43.80453" lon="7.02988">
        <ele>1278</ele>
        <time>2011-08-21T11:55:12Z</time>
      </trkpt>
      <trkpt lat="43.80453" lon="7.02982">
        <ele>1277</ele>
        <time>2011-08-21T11:55:24Z</time>
      </trkpt>
      <trkpt lat="43.80451" lon="7.02983">
        <ele>1276</ele>
        <time>2011-08-21T11:55:31Z</time>
      </trkpt>
      <trkpt lat="43.80449" lon="7.02988">
        <ele>1276</ele>
        <time>2011-08-21T11:55:38Z</time>
      </trkpt>
      <trkpt lat="43.80447" lon="7.02989">
        <ele>1275</ele>
        <time>2011-08-21T11:55:40Z</time>
      </trkpt>
      <trkpt lat="43.80443" lon="7.02995">
        <ele>1273</ele>
        <time>2011-08-21T11:55:50Z</time>
      </trkpt>
      <trkpt lat="43.80434" lon="7.03005">
        <ele>1280</ele>
        <time>2011-08-21T11:56:05Z</time>
      </trkpt>
      <trkpt lat="43.80426" lon="7.03012">
        <ele>1277</ele>
        <time>2011-08-21T11:56:14Z</time>
      </trkpt>
      <trkpt lat="43.80408" lon="7.03026">
        <ele>1256</ele>
        <time>2011-08-21T11:56:33Z</time>
      </trkpt>
      <trkpt lat="43.80399" lon="7.03021">
        <ele>1254</ele>
        <time>2011-08-21T11:56:49Z</time>
      </trkpt>
      <trkpt lat="43.80413" lon="7.02994">
        <ele>1252</ele>
        <time>2011-08-21T11:57:11Z</time>
      </trkpt>
      <trkpt lat="43.80415" lon="7.02985">
        <ele>1246</ele>
        <time>2011-08-21T11:57:27Z</time>
      </trkpt>
      <trkpt lat="43.80418" lon="7.02961">
        <ele>1268</ele>
        <time>2011-08-21T11:57:45Z</time>
      </trkpt>
      <trkpt lat="43.80415" lon="7.0295">
        <ele>1236</ele>
        <time>2011-08-21T11:57:59Z</time>
      </trkpt>
      <trkpt lat="43.80409" lon="7.02955">
        <ele>1236</ele>
        <time>2011-08-21T11:58:16Z</time>
      </trkpt>
      <trkpt lat="43.8041" lon="7.02942">
        <ele>1236</ele>
        <time>2011-08-21T11:58:29Z</time>
      </trkpt>
      <trkpt lat="43.80411" lon="7.02917">
        <ele>1240</ele>
        <time>2011-08-21T11:58:48Z</time>
      </trkpt>
      <trkpt lat="43.80411" lon="7.02891">
        <ele>1227</ele>
        <time>2011-08-21T11:59:06Z</time>
      </trkpt>
      <trkpt lat="43.80409" lon="7.02892">
        <ele>1227</ele>
        <time>2011-08-21T11:59:20Z</time>
      </trkpt>
      <trkpt lat="43.80401" lon="7.02909">
        <ele>1229</ele>
        <time>2011-08-21T11:59:37Z</time>
      </trkpt>
      <trkpt lat="43.80391" lon="7.0292">
        <ele>1232</ele>
        <time>2011-08-21T11:59:53Z</time>
      </trkpt>
      <trkpt lat="43.80392" lon="7.02915">
        <ele>1225</ele>
        <time>2011-08-21T11:59:59Z</time>
      </trkpt>
      <trkpt lat="43.8039" lon="7.02888">
        <ele>1221</ele>
        <time>2011-08-21T12:00:19Z</time>
      </trkpt>
      <trkpt lat="43.8039" lon="7.02878">
        <ele>1220</ele>
        <time>2011-08-21T12:00:37Z</time>
      </trkpt>
      <trkpt lat="43.80387" lon="7.02882">
        <ele>1220</ele>
        <time>2011-08-21T12:00:42Z</time>
      </trkpt>
      <trkpt lat="43.8038" lon="7.02896">
        <ele>1219</ele>
        <time>2011-08-21T12:00:58Z</time>
      </trkpt>
      <trkpt lat="43.80376" lon="7.02906">
        <ele>1217</ele>
        <time>2011-08-21T12:01:12Z</time>
      </trkpt>
      <trkpt lat="43.8037" lon="7.02922">
        <ele>1224</ele>
        <time>2011-08-21T12:01:27Z</time>
      </trkpt>
      <trkpt lat="43.80356" lon="7.0294">
        <ele>1220</ele>
        <time>2011-08-21T12:01:46Z</time>
      </trkpt>
      <trkpt lat="43.80348" lon="7.0294">
        <ele>1218</ele>
        <time>2011-08-21T12:02:01Z</time>
      </trkpt>
      <trkpt lat="43.80349" lon="7.02937">
        <ele>1217</ele>
        <time>2011-08-21T12:02:28Z</time>
      </trkpt>
      <trkpt lat="43.8035" lon="7.02936">
        <ele>1217</ele>
        <time>2011-08-21T12:02:45Z</time>
      </trkpt>
      <trkpt lat="43.80354" lon="7.02919">
        <ele>1215</ele>
        <time>2011-08-21T12:03:03Z</time>
      </trkpt>
      <trkpt lat="43.80356" lon="7.02903">
        <ele>1210</ele>
        <time>2011-08-21T12:03:15Z</time>
      </trkpt>
      <trkpt lat="43.80355" lon="7.029">
        <ele>1210</ele>
        <time>2011-08-21T12:03:21Z</time>
      </trkpt>
      <trkpt lat="43.80347" lon="7.02905">
        <ele>1207</ele>
        <time>2011-08-21T12:03:33Z</time>
      </trkpt>
      <trkpt lat="43.80347" lon="7.02902">
        <ele>1207</ele>
        <time>2011-08-21T12:03:36Z</time>
      </trkpt>
      <trkpt lat="43.80347" lon="7.02885">
        <ele>1209</ele>
        <time>2011-08-21T12:03:52Z</time>
      </trkpt>
      <trkpt lat="43.8035" lon="7.02874">
        <ele>1209</ele>
        <time>2011-08-21T12:04:04Z</time>
      </trkpt>
      <trkpt lat="43.80353" lon="7.02856">
        <ele>1207</ele>
        <time>2011-08-21T12:04:20Z</time>
      </trkpt>
      <trkpt lat="43.80351" lon="7.02851">
        <ele>1205</ele>
        <time>2011-08-21T12:04:28Z</time>
      </trkpt>
      <trkpt lat="43.80334" lon="7.02865">
        <ele>1205</ele>
        <time>2011-08-21T12:04:47Z</time>
      </trkpt>
      <trkpt lat="43.80327" lon="7.02857">
        <ele>1181</ele>
        <time>2011-08-21T12:05:01Z</time>
      </trkpt>
      <trkpt lat="43.80326" lon="7.02853">
        <ele>1181</ele>
        <time>2011-08-21T12:05:09Z</time>
      </trkpt>
      <trkpt lat="43.80319" lon="7.02838">
        <ele>1181</ele>
        <time>2011-08-21T12:05:25Z</time>
      </trkpt>
      <trkpt lat="43.80319" lon="7.02836">
        <ele>1181</ele>
        <time>2011-08-21T12:05:29Z</time>
      </trkpt>
      <trkpt lat="43.80306" lon="7.02808">
        <ele>1174</ele>
        <time>2011-08-21T12:05:42Z</time>
      </trkpt>
      <trkpt lat="43.80292" lon="7.02782">
        <ele>1171</ele>
        <time>2011-08-21T12:05:54Z</time>
      </trkpt>
      <trkpt lat="43.80288" lon="7.02773">
        <ele>1170</ele>
        <time>2011-08-21T12:06:09Z</time>
      </trkpt>
      <trkpt lat="43.80283" lon="7.02777">
        <ele>1169</ele>
        <time>2011-08-21T12:06:16Z</time>
      </trkpt>
      <trkpt lat="43.80275" lon="7.02787">
        <ele>1168</ele>
        <time>2011-08-21T12:06:28Z</time>
      </trkpt>
      <trkpt lat="43.80269" lon="7.02789">
        <ele>1167</ele>
        <time>2011-08-21T12:06:41Z</time>
      </trkpt>
      <trkpt lat="43.80262" lon="7.02787">
        <ele>1166</ele>
        <time>2011-08-21T12:06:57Z</time>
      </trkpt>
      <trkpt lat="43.80259" lon="7.02789">
        <ele>1166</ele>
        <time>2011-08-21T12:07:10Z</time>
      </trkpt>
      <trkpt lat="43.80231" lon="7.02805">
        <ele>1148</ele>
        <time>2011-08-21T12:07:21Z</time>
      </trkpt>
      <trkpt lat="43.80229" lon="7.02808">
        <ele>1148</ele>
        <time>2011-08-21T12:07:37Z</time>
      </trkpt>
      <trkpt lat="43.80229" lon="7.02815">
        <ele>1148</ele>
        <time>2011-08-21T12:08:11Z</time>
      </trkpt>
      <trkpt lat="43.80228" lon="7.02811">
        <ele>1148</ele>
        <time>2011-08-21T12:08:18Z</time>
      </trkpt>
      <trkpt lat="43.80228" lon="7.02803">
        <ele>1147</ele>
        <time>2011-08-21T12:08:30Z</time>
      </trkpt>
      <trkpt lat="43.80227" lon="7.02804">
        <ele>1147</ele>
        <time>2011-08-21T12:08:35Z</time>
      </trkpt>
      <trkpt lat="43.80221" lon="7.02815">
        <ele>1147</ele>
        <time>2011-08-21T12:08:50Z</time>
      </trkpt>
      <trkpt lat="43.80215" lon="7.02826">
        <ele>1146</ele>
        <time>2011-08-21T12:09:01Z</time>
      </trkpt>
      <trkpt lat="43.80208" lon="7.02841">
        <ele>1146</ele>
        <time>2011-08-21T12:09:07Z</time>
      </trkpt>
      <trkpt lat="43.80192" lon="7.02883">
        <ele>1144</ele>
        <time>2011-08-21T12:09:23Z</time>
      </trkpt>
      <trkpt lat="43.80192" lon="7.02884">
        <ele>1144</ele>
        <time>2011-08-21T12:09:24Z</time>
      </trkpt>
      <trkpt lat="43.8019" lon="7.02895">
        <ele>1143</ele>
        <time>2011-08-21T12:09:30Z</time>
      </trkpt>
      <trkpt lat="43.80188" lon="7.029">
        <ele>1143</ele>
        <time>2011-08-21T12:09:32Z</time>
      </trkpt>
      <trkpt lat="43.80177" lon="7.0294">
        <ele>1142</ele>
        <time>2011-08-21T12:09:44Z</time>
      </trkpt>
      <trkpt lat="43.80183" lon="7.02978">
        <ele>1142</ele>
        <time>2011-08-21T12:09:54Z</time>
      </trkpt>
      <trkpt lat="43.80178" lon="7.03012">
        <ele>1142</ele>
        <time>2011-08-21T12:10:07Z</time>
      </trkpt>
      <trkpt lat="43.80164" lon="7.03044">
        <ele>1126</ele>
        <time>2011-08-21T12:10:19Z</time>
      </trkpt>
      <trkpt lat="43.80145" lon="7.03093">
        <ele>1132</ele>
        <time>2011-08-21T12:10:40Z</time>
      </trkpt>
      <trkpt lat="43.80144" lon="7.03097">
        <ele>1132</ele>
        <time>2011-08-21T12:10:54Z</time>
      </trkpt>
      <trkpt lat="43.8013" lon="7.03118">
        <ele>1131</ele>
        <time>2011-08-21T12:11:12Z</time>
      </trkpt>
      <trkpt lat="43.80129" lon="7.03123">
        <ele>1131</ele>
        <time>2011-08-21T12:11:18Z</time>
      </trkpt>
      <trkpt lat="43.80121" lon="7.03132">
        <ele>1130</ele>
        <time>2011-08-21T12:11:33Z</time>
      </trkpt>
      <trkpt lat="43.80113" lon="7.03147">
        <ele>1129</ele>
        <time>2011-08-21T12:11:50Z</time>
      </trkpt>
      <trkpt lat="43.80096" lon="7.03175">
        <ele>1131</ele>
        <time>2011-08-21T12:12:02Z</time>
      </trkpt>
      <trkpt lat="43.80071" lon="7.03224">
        <ele>1115</ele>
        <time>2011-08-21T12:12:15Z</time>
      </trkpt>
      <trkpt lat="43.8006" lon="7.03264">
        <ele>1120</ele>
        <time>2011-08-21T12:12:31Z</time>
      </trkpt>
      <trkpt lat="43.80057" lon="7.03271">
        <ele>1119</ele>
        <time>2011-08-21T12:12:41Z</time>
      </trkpt>
      <trkpt lat="43.80054" lon="7.03285">
        <ele>1119</ele>
        <time>2011-08-21T12:12:55Z</time>
      </trkpt>
      <trkpt lat="43.8005" lon="7.03294">
        <ele>1119</ele>
        <time>2011-08-21T12:13:06Z</time>
      </trkpt>
      <trkpt lat="43.80038" lon="7.03305">
        <ele>1117</ele>
        <time>2011-08-21T12:13:21Z</time>
      </trkpt>
      <trkpt lat="43.80035" lon="7.03307">
        <ele>1116</ele>
        <time>2011-08-21T12:13:30Z</time>
      </trkpt>
      <trkpt lat="43.80027" lon="7.03336">
        <ele>1121</ele>
        <time>2011-08-21T12:13:50Z</time>
      </trkpt>
      <trkpt lat="43.80027" lon="7.03349">
        <ele>1122</ele>
        <time>2011-08-21T12:14:05Z</time>
      </trkpt>
      <trkpt lat="43.80025" lon="7.03355">
        <ele>1122</ele>
        <time>2011-08-21T12:14:09Z</time>
      </trkpt>
      <trkpt lat="43.80017" lon="7.03375">
        <ele>1123</ele>
        <time>2011-08-21T12:14:25Z</time>
      </trkpt>
      <trkpt lat="43.80011" lon="7.03382">
        <ele>1123</ele>
        <time>2011-08-21T12:14:33Z</time>
      </trkpt>
      <trkpt lat="43.80007" lon="7.03395">
        <ele>1123</ele>
        <time>2011-08-21T12:14:50Z</time>
      </trkpt>
      <trkpt lat="43.79982" lon="7.03421">
        <ele>1111</ele>
        <time>2011-08-21T12:15:02Z</time>
      </trkpt>
      <trkpt lat="43.7996" lon="7.03457">
        <ele>1106</ele>
        <time>2011-08-21T12:15:17Z</time>
      </trkpt>
      <trkpt lat="43.79937" lon="7.03482">
        <ele>1101</ele>
        <time>2011-08-21T12:15:28Z</time>
      </trkpt>
      <trkpt lat="43.79931" lon="7.03491">
        <ele>1099</ele>
        <time>2011-08-21T12:15:32Z</time>
      </trkpt>
      <trkpt lat="43.79925" lon="7.03519">
        <ele>1103</ele>
        <time>2011-08-21T12:15:41Z</time>
      </trkpt>
      <trkpt lat="43.79922" lon="7.03526">
        <ele>1104</ele>
        <time>2011-08-21T12:15:52Z</time>
      </trkpt>
      <trkpt lat="43.79912" lon="7.03542">
        <ele>1084</ele>
        <time>2011-08-21T12:16:10Z</time>
      </trkpt>
      <trkpt lat="43.79904" lon="7.03554">
        <ele>1084</ele>
        <time>2011-08-21T12:16:20Z</time>
      </trkpt>
      <trkpt lat="43.79883" lon="7.03578">
        <ele>1081</ele>
        <time>2011-08-21T12:16:33Z</time>
      </trkpt>
      <trkpt lat="43.79878" lon="7.03583">
        <ele>1080</ele>
        <time>2011-08-21T12:16:42Z</time>
      </trkpt>
      <trkpt lat="43.79872" lon="7.03592">
        <ele>1083</ele>
        <time>2011-08-21T12:17:00Z</time>
      </trkpt>
      <trkpt lat="43.79862" lon="7.03604">
        <ele>1081</ele>
        <time>2011-08-21T12:17:16Z</time>
      </trkpt>
      <trkpt lat="43.7985" lon="7.03618">
        <ele>1080</ele>
        <time>2011-08-21T12:17:31Z</time>
      </trkpt>
      <trkpt lat="43.7984" lon="7.03631">
        <ele>1080</ele>
        <time>2011-08-21T12:17:42Z</time>
      </trkpt>
      <trkpt lat="43.79836" lon="7.03635">
        <ele>1080</ele>
        <time>2011-08-21T12:17:51Z</time>
      </trkpt>
      <trkpt lat="43.79821" lon="7.03646">
        <ele>1062</ele>
        <time>2011-08-21T12:18:08Z</time>
      </trkpt>
      <trkpt lat="43.79816" lon="7.0365">
        <ele>1061</ele>
        <time>2011-08-21T12:18:13Z</time>
      </trkpt>
      <trkpt lat="43.79805" lon="7.03667">
        <ele>1060</ele>
        <time>2011-08-21T12:18:29Z</time>
      </trkpt>
      <trkpt lat="43.79788" lon="7.03683">
        <ele>1065</ele>
        <time>2011-08-21T12:18:41Z</time>
      </trkpt>
      <trkpt lat="43.79774" lon="7.03687">
        <ele>1062</ele>
        <time>2011-08-21T12:18:46Z</time>
      </trkpt>
      <trkpt lat="43.79765" lon="7.0369">
        <ele>1060</ele>
        <time>2011-08-21T12:18:50Z</time>
      </trkpt>
      <trkpt lat="43.79751" lon="7.0369">
        <ele>1058</ele>
        <time>2011-08-21T12:18:56Z</time>
      </trkpt>
      <trkpt lat="43.79737" lon="7.03717">
        <ele>1044</ele>
        <time>2011-08-21T12:19:08Z</time>
      </trkpt>
      <trkpt lat="43.79737" lon="7.03718">
        <ele>1044</ele>
        <time>2011-08-21T12:19:12Z</time>
      </trkpt>
      <trkpt lat="43.79735" lon="7.03725">
        <ele>1045</ele>
        <time>2011-08-21T12:19:17Z</time>
      </trkpt>
      <trkpt lat="43.79732" lon="7.03728">
        <ele>1045</ele>
        <time>2011-08-21T12:19:19Z</time>
      </trkpt>
      <trkpt lat="43.79725" lon="7.03744">
        <ele>1045</ele>
        <time>2011-08-21T12:19:26Z</time>
      </trkpt>
      <trkpt lat="43.7972" lon="7.03744">
        <ele>1043</ele>
        <time>2011-08-21T12:19:40Z</time>
      </trkpt>
      <trkpt lat="43.79718" lon="7.03753">
        <ele>1047</ele>
        <time>2011-08-21T12:19:53Z</time>
      </trkpt>
      <trkpt lat="43.79718" lon="7.03754">
        <ele>1047</ele>
        <time>2011-08-21T12:19:58Z</time>
      </trkpt>
      <trkpt lat="43.79714" lon="7.03754">
        <ele>1046</ele>
        <time>2011-08-21T12:20:03Z</time>
      </trkpt>
      <trkpt lat="43.79698" lon="7.03759">
        <ele>1041</ele>
        <time>2011-08-21T12:20:18Z</time>
      </trkpt>
      <trkpt lat="43.79683" lon="7.03775">
        <ele>1039</ele>
        <time>2011-08-21T12:20:35Z</time>
      </trkpt>
      <trkpt lat="43.79682" lon="7.03779">
        <ele>1039</ele>
        <time>2011-08-21T12:20:39Z</time>
      </trkpt>
      <trkpt lat="43.79675" lon="7.03802">
        <ele>1039</ele>
        <time>2011-08-21T12:20:58Z</time>
      </trkpt>
      <trkpt lat="43.7967" lon="7.03814">
        <ele>1038</ele>
        <time>2011-08-21T12:21:07Z</time>
      </trkpt>
      <trkpt lat="43.7966" lon="7.03841">
        <ele>1025</ele>
        <time>2011-08-21T12:21:27Z</time>
      </trkpt>
      <trkpt lat="43.79655" lon="7.03862">
        <ele>1021</ele>
        <time>2011-08-21T12:21:44Z</time>
      </trkpt>
      <trkpt lat="43.79654" lon="7.0389">
        <ele>1021</ele>
        <time>2011-08-21T12:22:04Z</time>
      </trkpt>
      <trkpt lat="43.79652" lon="7.03915">
        <ele>1024</ele>
        <time>2011-08-21T12:22:22Z</time>
      </trkpt>
      <trkpt lat="43.79649" lon="7.03938">
        <ele>1022</ele>
        <time>2011-08-21T12:22:38Z</time>
      </trkpt>
      <trkpt lat="43.79645" lon="7.03963">
        <ele>1021</ele>
        <time>2011-08-21T12:22:56Z</time>
      </trkpt>
      <trkpt lat="43.79642" lon="7.03973">
        <ele>1021</ele>
        <time>2011-08-21T12:23:00Z</time>
      </trkpt>
      <trkpt lat="43.79645" lon="7.03993">
        <ele>1024</ele>
        <time>2011-08-21T12:23:05Z</time>
      </trkpt>
      <trkpt lat="43.79648" lon="7.04029">
        <ele>1025</ele>
        <time>2011-08-21T12:23:13Z</time>
      </trkpt>
      <trkpt lat="43.79645" lon="7.04043">
        <ele>1024</ele>
        <time>2011-08-21T12:23:18Z</time>
      </trkpt>
      <trkpt lat="43.79633" lon="7.04069">
        <ele>1024</ele>
        <time>2011-08-21T12:23:26Z</time>
      </trkpt>
      <trkpt lat="43.79627" lon="7.04114">
        <ele>1026</ele>
        <time>2011-08-21T12:23:36Z</time>
      </trkpt>
      <trkpt lat="43.79631" lon="7.0412">
        <ele>1027</ele>
        <time>2011-08-21T12:23:39Z</time>
      </trkpt>
      <trkpt lat="43.79635" lon="7.04129">
        <ele>1028</ele>
        <time>2011-08-21T12:23:43Z</time>
      </trkpt>
      <trkpt lat="43.79625" lon="7.04139">
        <ele>1027</ele>
        <time>2011-08-21T12:23:51Z</time>
      </trkpt>
      <trkpt lat="43.79621" lon="7.04139">
        <ele>1026</ele>
        <time>2011-08-21T12:23:59Z</time>
      </trkpt>
      <trkpt lat="43.79617" lon="7.04144">
        <ele>1026</ele>
        <time>2011-08-21T12:24:19Z</time>
      </trkpt>
      <trkpt lat="43.79622" lon="7.04138">
        <ele>1027</ele>
        <time>2011-08-21T12:24:32Z</time>
      </trkpt>
      <trkpt lat="43.79622" lon="7.04138">
        <ele>1026</ele>
        <time>2011-08-21T12:24:33Z</time>
      </trkpt>
      <trkpt lat="43.7962" lon="7.04135">
        <ele>1026</ele>
        <time>2011-08-21T12:24:35Z</time>
      </trkpt>
      <trkpt lat="43.79612" lon="7.0413">
        <ele>1025</ele>
        <time>2011-08-21T12:24:42Z</time>
      </trkpt>
      <trkpt lat="43.79603" lon="7.04137">
        <ele>1024</ele>
        <time>2011-08-21T12:24:55Z</time>
      </trkpt>
      <trkpt lat="43.79602" lon="7.04141">
        <ele>1024</ele>
        <time>2011-08-21T12:24:59Z</time>
      </trkpt>
      <trkpt lat="43.79598" lon="7.04149">
        <ele>1023</ele>
        <time>2011-08-21T12:25:15Z</time>
      </trkpt>
      <trkpt lat="43.79592" lon="7.04166">
        <ele>1021</ele>
        <time>2011-08-21T12:25:31Z</time>
      </trkpt>
      <trkpt lat="43.79586" lon="7.04191">
        <ele>1028</ele>
        <time>2011-08-21T12:25:48Z</time>
      </trkpt>
      <trkpt lat="43.79582" lon="7.04219">
        <ele>1031</ele>
        <time>2011-08-21T12:26:07Z</time>
      </trkpt>
      <trkpt lat="43.79574" lon="7.04215">
        <ele>1031</ele>
        <time>2011-08-21T12:26:20Z</time>
      </trkpt>
      <trkpt lat="43.79573" lon="7.04214">
        <ele>1031</ele>
        <time>2011-08-21T12:26:21Z</time>
      </trkpt>
      <trkpt lat="43.79559" lon="7.04201">
        <ele>1031</ele>
        <time>2011-08-21T12:26:45Z</time>
      </trkpt>
      <trkpt lat="43.7956" lon="7.04198">
        <ele>1030</ele>
        <time>2011-08-21T12:26:51Z</time>
      </trkpt>
      <trkpt lat="43.7955" lon="7.04175">
        <ele>1030</ele>
        <time>2011-08-21T12:27:09Z</time>
      </trkpt>
      <trkpt lat="43.79547" lon="7.04168">
        <ele>1030</ele>
        <time>2011-08-21T12:27:15Z</time>
      </trkpt>
      <trkpt lat="43.79542" lon="7.04155">
        <ele>1024</ele>
        <time>2011-08-21T12:27:32Z</time>
      </trkpt>
      <trkpt lat="43.79537" lon="7.04136">
        <ele>1024</ele>
        <time>2011-08-21T12:27:49Z</time>
      </trkpt>
      <trkpt lat="43.79528" lon="7.04113">
        <ele>1024</ele>
        <time>2011-08-21T12:28:10Z</time>
      </trkpt>
      <trkpt lat="43.79523" lon="7.04105">
        <ele>1024</ele>
        <time>2011-08-21T12:28:27Z</time>
      </trkpt>
      <trkpt lat="43.79518" lon="7.04089">
        <ele>1025</ele>
        <time>2011-08-21T12:28:44Z</time>
      </trkpt>
      <trkpt lat="43.79512" lon="7.04077">
        <ele>1023</ele>
        <time>2011-08-21T12:28:58Z</time>
      </trkpt>
      <trkpt lat="43.79505" lon="7.04065">
        <ele>1022</ele>
        <time>2011-08-21T12:29:16Z</time>
      </trkpt>
      <trkpt lat="43.79501" lon="7.04063">
        <ele>1022</ele>
        <time>2011-08-21T12:29:25Z</time>
      </trkpt>
      <trkpt lat="43.7948" lon="7.04062">
        <ele>1024</ele>
        <time>2011-08-21T12:29:44Z</time>
      </trkpt>
      <trkpt lat="43.79468" lon="7.04063">
        <ele>1022</ele>
        <time>2011-08-21T12:29:49Z</time>
      </trkpt>
      <trkpt lat="43.79463" lon="7.04059">
        <ele>1022</ele>
        <time>2011-08-21T12:29:54Z</time>
      </trkpt>
      <trkpt lat="43.79463" lon="7.04052">
        <ele>1022</ele>
        <time>2011-08-21T12:29:57Z</time>
      </trkpt>
      <trkpt lat="43.7946" lon="7.0404">
        <ele>1021</ele>
        <time>2011-08-21T12:30:03Z</time>
      </trkpt>
      <trkpt lat="43.79457" lon="7.04029">
        <ele>1021</ele>
        <time>2011-08-21T12:30:08Z</time>
      </trkpt>
      <trkpt lat="43.79453" lon="7.0399">
        <ele>1016</ele>
        <time>2011-08-21T12:30:22Z</time>
      </trkpt>
      <trkpt lat="43.79455" lon="7.03977">
        <ele>1015</ele>
        <time>2011-08-21T12:30:26Z</time>
      </trkpt>
      <trkpt lat="43.79462" lon="7.03981">
        <ele>1016</ele>
        <time>2011-08-21T12:30:34Z</time>
      </trkpt>
      <trkpt lat="43.79462" lon="7.03983">
        <ele>1016</ele>
        <time>2011-08-21T12:30:35Z</time>
      </trkpt>
      <trkpt lat="43.79459" lon="7.04032">
        <ele>1021</ele>
        <time>2011-08-21T12:30:53Z</time>
      </trkpt>
      <trkpt lat="43.79465" lon="7.04064">
        <ele>1022</ele>
        <time>2011-08-21T12:31:05Z</time>
      </trkpt>
      <trkpt lat="43.79466" lon="7.04081">
        <ele>1023</ele>
        <time>2011-08-21T12:31:12Z</time>
      </trkpt>
      <trkpt lat="43.79469" lon="7.04084">
        <ele>1026</ele>
        <time>2011-08-21T12:31:28Z</time>
      </trkpt>
    </trkseg>
  </trk>
  <trk>
    <name><![CDATA[ACTIVE LOG150453]]></name>
    <trkseg>
      <trkpt lat="43.79459" lon="7.0411">
        <ele>1025</ele>
        <time>2011-08-21T13:04:53Z</time>
      </trkpt>
      <trkpt lat="43.79461" lon="7.0411">
        <ele>1025</ele>
        <time>2011-08-21T13:05:21Z</time>
      </trkpt>
      <trkpt lat="43.79458" lon="7.04114">
        <ele>1025</ele>
        <time>2011-08-21T13:05:23Z</time>
      </trkpt>
      <trkpt lat="43.79458" lon="7.04133">
        <ele>1025</ele>
        <time>2011-08-21T13:05:32Z</time>
      </trkpt>
      <trkpt lat="43.79455" lon="7.04179">
        <ele>1031</ele>
        <time>2011-08-21T13:05:48Z</time>
      </trkpt>
      <trkpt lat="43.79439" lon="7.042">
        <ele>1031</ele>
        <time>2011-08-21T13:05:58Z</time>
      </trkpt>
      <trkpt lat="43.79411" lon="7.0423">
        <ele>1021</ele>
        <time>2011-08-21T13:06:08Z</time>
      </trkpt>
      <trkpt lat="43.79373" lon="7.04275">
        <ele>1022</ele>
        <time>2011-08-21T13:06:22Z</time>
      </trkpt>
      <trkpt lat="43.79357" lon="7.04295">
        <ele>1020</ele>
        <time>2011-08-21T13:06:27Z</time>
      </trkpt>
      <trkpt lat="43.79346" lon="7.04322">
        <ele>1018</ele>
        <time>2011-08-21T13:06:32Z</time>
      </trkpt>
      <trkpt lat="43.79314" lon="7.04403">
        <ele>1008</ele>
        <time>2011-08-21T13:06:49Z</time>
      </trkpt>
      <trkpt lat="43.79303" lon="7.04424">
        <ele>1010</ele>
        <time>2011-08-21T13:06:53Z</time>
      </trkpt>
      <trkpt lat="43.7927" lon="7.04495">
        <ele>1004</ele>
        <time>2011-08-21T13:07:09Z</time>
      </trkpt>
      <trkpt lat="43.79258" lon="7.04521">
        <ele>1008</ele>
        <time>2011-08-21T13:07:19Z</time>
      </trkpt>
      <trkpt lat="43.79257" lon="7.04534">
        <ele>1010</ele>
        <time>2011-08-21T13:07:24Z</time>
      </trkpt>
      <trkpt lat="43.79253" lon="7.0454">
        <ele>1010</ele>
        <time>2011-08-21T13:07:40Z</time>
      </trkpt>
      <trkpt lat="43.79249" lon="7.04544">
        <ele>991</ele>
        <time>2011-08-21T13:07:56Z</time>
      </trkpt>
      <trkpt lat="43.79246" lon="7.04556">
        <ele>992</ele>
        <time>2011-08-21T13:08:12Z</time>
      </trkpt>
      <trkpt lat="43.79245" lon="7.04568">
        <ele>995</ele>
        <time>2011-08-21T13:08:25Z</time>
      </trkpt>
      <trkpt lat="43.79245" lon="7.0457">
        <ele>995</ele>
        <time>2011-08-21T13:08:42Z</time>
      </trkpt>
    </trkseg>
  </trk>
  <trk>
    <name><![CDATA[ACTIVE LOG155518]]></name>
    <trkseg>
      <trkpt lat="43.79246" lon="7.04557">
        <ele>992</ele>
        <time>2011-08-21T13:55:17Z</time>
      </trkpt>
      <trkpt lat="43.79246" lon="7.0455">
        <ele>991</ele>
        <time>2011-08-21T13:55:30Z</time>
      </trkpt>
      <trkpt lat="43.79251" lon="7.04541">
        <ele>1010</ele>
        <time>2011-08-21T13:55:49Z</time>
      </trkpt>
      <trkpt lat="43.79252" lon="7.04539">
        <ele>1010</ele>
        <time>2011-08-21T13:55:52Z</time>
      </trkpt>
      <trkpt lat="43.79259" lon="7.04528">
        <ele>1009</ele>
        <time>2011-08-21T13:56:10Z</time>
      </trkpt>
      <trkpt lat="43.79278" lon="7.04514">
        <ele>1011</ele>
        <time>2011-08-21T13:56:32Z</time>
      </trkpt>
      <trkpt lat="43.79275" lon="7.04517">
        <ele>1011</ele>
        <time>2011-08-21T13:56:40Z</time>
      </trkpt>
      <trkpt lat="43.7926" lon="7.04541">
        <ele>1011</ele>
        <time>2011-08-21T13:56:51Z</time>
      </trkpt>
      <trkpt lat="43.79264" lon="7.04594">
        <ele>1011</ele>
        <time>2011-08-21T13:57:06Z</time>
      </trkpt>
      <trkpt lat="43.79271" lon="7.04663">
        <ele>1013</ele>
        <time>2011-08-21T13:57:24Z</time>
      </trkpt>
      <trkpt lat="43.79265" lon="7.04759">
        <ele>1019</ele>
        <time>2011-08-21T13:57:45Z</time>
      </trkpt>
      <trkpt lat="43.79232" lon="7.04837">
        <ele>1008</ele>
        <time>2011-08-21T13:58:02Z</time>
      </trkpt>
      <trkpt lat="43.79207" lon="7.04928">
        <ele>1006</ele>
        <time>2011-08-21T13:58:20Z</time>
      </trkpt>
      <trkpt lat="43.79216" lon="7.05053">
        <ele>1007</ele>
        <time>2011-08-21T13:58:40Z</time>
      </trkpt>
      <trkpt lat="43.79219" lon="7.05201">
        <ele>1006</ele>
        <time>2011-08-21T13:59:02Z</time>
      </trkpt>
      <trkpt lat="43.79232" lon="7.05361">
        <ele>1006</ele>
        <time>2011-08-21T13:59:25Z</time>
      </trkpt>
      <trkpt lat="43.79242" lon="7.0546">
        <ele>1004</ele>
        <time>2011-08-21T13:59:40Z</time>
      </trkpt>
      <trkpt lat="43.79247" lon="7.05558">
        <ele>1006</ele>
        <time>2011-08-21T13:59:57Z</time>
      </trkpt>
      <trkpt lat="43.7925" lon="7.05592">
        <ele>1012</ele>
        <time>2011-08-21T14:00:03Z</time>
      </trkpt>
      <trkpt lat="43.79255" lon="7.0568">
        <ele>1023</ele>
        <time>2011-08-21T14:00:19Z</time>
      </trkpt>
      <trkpt lat="43.79255" lon="7.0573">
        <ele>1026</ele>
        <time>2011-08-21T14:00:28Z</time>
      </trkpt>
      <trkpt lat="43.79246" lon="7.05823">
        <ele>1016</ele>
        <time>2011-08-21T14:00:44Z</time>
      </trkpt>
      <trkpt lat="43.79238" lon="7.05967">
        <ele>1023</ele>
        <time>2011-08-21T14:01:09Z</time>
      </trkpt>
      <trkpt lat="43.79234" lon="7.05989">
        <ele>1024</ele>
        <time>2011-08-21T14:01:13Z</time>
      </trkpt>
      <trkpt lat="43.79217" lon="7.06052">
        <ele>1026</ele>
        <time>2011-08-21T14:01:25Z</time>
      </trkpt>
      <trkpt lat="43.79224" lon="7.06092">
        <ele>1023</ele>
        <time>2011-08-21T14:01:32Z</time>
      </trkpt>
      <trkpt lat="43.79234" lon="7.06122">
        <ele>1022</ele>
        <time>2011-08-21T14:01:37Z</time>
      </trkpt>
      <trkpt lat="43.79274" lon="7.06225">
        <ele>1026</ele>
        <time>2011-08-21T14:01:52Z</time>
      </trkpt>
      <trkpt lat="43.79298" lon="7.06252">
        <ele>1024</ele>
        <time>2011-08-21T14:01:57Z</time>
      </trkpt>
      <trkpt lat="43.79326" lon="7.06334">
        <ele>1022</ele>
        <time>2011-08-21T14:02:07Z</time>
      </trkpt>
      <trkpt lat="43.79324" lon="7.064">
        <ele>1015</ele>
        <time>2011-08-21T14:02:14Z</time>
      </trkpt>
      <trkpt lat="43.79324" lon="7.06458">
        <ele>1009</ele>
        <time>2011-08-21T14:02:20Z</time>
      </trkpt>
      <trkpt lat="43.79324" lon="7.06524">
        <ele>1005</ele>
        <time>2011-08-21T14:02:27Z</time>
      </trkpt>
      <trkpt lat="43.79337" lon="7.06565">
        <ele>1020</ele>
        <time>2011-08-21T14:02:32Z</time>
      </trkpt>
      <trkpt lat="43.79349" lon="7.06587">
        <ele>1016</ele>
        <time>2011-08-21T14:02:35Z</time>
      </trkpt>
      <trkpt lat="43.79372" lon="7.06688">
        <ele>1013</ele>
        <time>2011-08-21T14:02:46Z</time>
      </trkpt>
      <trkpt lat="43.79399" lon="7.06774">
        <ele>1009</ele>
        <time>2011-08-21T14:02:56Z</time>
      </trkpt>
      <trkpt lat="43.79421" lon="7.06879">
        <ele>1022</ele>
        <time>2011-08-21T14:03:07Z</time>
      </trkpt>
      <trkpt lat="43.79422" lon="7.06977">
        <ele>1004</ele>
        <time>2011-08-21T14:03:16Z</time>
      </trkpt>
      <trkpt lat="43.79457" lon="7.07072">
        <ele>1000</ele>
        <time>2011-08-21T14:03:26Z</time>
      </trkpt>
      <trkpt lat="43.79548" lon="7.07228">
        <ele>1001</ele>
        <time>2011-08-21T14:03:45Z</time>
      </trkpt>
      <trkpt lat="43.79616" lon="7.07355">
        <ele>994</ele>
        <time>2011-08-21T14:04:00Z</time>
      </trkpt>
      <trkpt lat="43.79626" lon="7.07372">
        <ele>994</ele>
        <time>2011-08-21T14:04:02Z</time>
      </trkpt>
      <trkpt lat="43.79673" lon="7.07511">
        <ele>987</ele>
        <time>2011-08-21T14:04:17Z</time>
      </trkpt>
      <trkpt lat="43.797" lon="7.07582">
        <ele>986</ele>
        <time>2011-08-21T14:04:25Z</time>
      </trkpt>
      <trkpt lat="43.79729" lon="7.0763">
        <ele>979</ele>
        <time>2011-08-21T14:04:31Z</time>
      </trkpt>
      <trkpt lat="43.79748" lon="7.07728">
        <ele>968</ele>
        <time>2011-08-21T14:04:42Z</time>
      </trkpt>
      <trkpt lat="43.79748" lon="7.07735">
        <ele>969</ele>
        <time>2011-08-21T14:04:43Z</time>
      </trkpt>
      <trkpt lat="43.79753" lon="7.07754">
        <ele>976</ele>
        <time>2011-08-21T14:04:46Z</time>
      </trkpt>
      <trkpt lat="43.79761" lon="7.07821">
        <ele>976</ele>
        <time>2011-08-21T14:04:55Z</time>
      </trkpt>
      <trkpt lat="43.79796" lon="7.07967">
        <ele>966</ele>
        <time>2011-08-21T14:05:11Z</time>
      </trkpt>
      <trkpt lat="43.79853" lon="7.08199">
        <ele>964</ele>
        <time>2011-08-21T14:05:33Z</time>
      </trkpt>
      <trkpt lat="43.79856" lon="7.08219">
        <ele>964</ele>
        <time>2011-08-21T14:05:35Z</time>
      </trkpt>
      <trkpt lat="43.79831" lon="7.08263">
        <ele>955</ele>
        <time>2011-08-21T14:05:42Z</time>
      </trkpt>
      <trkpt lat="43.79821" lon="7.08267">
        <ele>954</ele>
        <time>2011-08-21T14:05:44Z</time>
      </trkpt>
      <trkpt lat="43.79794" lon="7.08282">
        <ele>953</ele>
        <time>2011-08-21T14:05:50Z</time>
      </trkpt>
      <trkpt lat="43.79759" lon="7.08357">
        <ele>954</ele>
        <time>2011-08-21T14:06:03Z</time>
      </trkpt>
      <trkpt lat="43.79756" lon="7.08386">
        <ele>955</ele>
        <time>2011-08-21T14:06:08Z</time>
      </trkpt>
      <trkpt lat="43.7977" lon="7.08427">
        <ele>955</ele>
        <time>2011-08-21T14:06:15Z</time>
      </trkpt>
      <trkpt lat="43.79782" lon="7.08446">
        <ele>955</ele>
        <time>2011-08-21T14:06:19Z</time>
      </trkpt>
      <trkpt lat="43.79834" lon="7.08485">
        <ele>952</ele>
        <time>2011-08-21T14:06:33Z</time>
      </trkpt>
      <trkpt lat="43.79881" lon="7.08518">
        <ele>948</ele>
        <time>2011-08-21T14:06:47Z</time>
      </trkpt>
      <trkpt lat="43.79908" lon="7.08527">
        <ele>948</ele>
        <time>2011-08-21T14:06:58Z</time>
      </trkpt>
      <trkpt lat="43.7993" lon="7.08527">
        <ele>949</ele>
        <time>2011-08-21T14:10:18Z</time>
      </trkpt>
      <trkpt lat="43.79934" lon="7.08528">
        <ele>949</ele>
        <time>2011-08-21T14:10:19Z</time>
      </trkpt>
      <trkpt lat="43.7996" lon="7.08561">
        <ele>947</ele>
        <time>2011-08-21T14:10:26Z</time>
      </trkpt>
      <trkpt lat="43.79964" lon="7.08576">
        <ele>946</ele>
        <time>2011-08-21T14:10:28Z</time>
      </trkpt>
      <trkpt lat="43.79983" lon="7.08608">
        <ele>939</ele>
        <time>2011-08-21T14:10:33Z</time>
      </trkpt>
      <trkpt lat="43.80001" lon="7.08624">
        <ele>944</ele>
        <time>2011-08-21T14:10:36Z</time>
      </trkpt>
      <trkpt lat="43.80017" lon="7.08672">
        <ele>937</ele>
        <time>2011-08-21T14:10:41Z</time>
      </trkpt>
      <trkpt lat="43.80022" lon="7.08713">
        <ele>936</ele>
        <time>2011-08-21T14:10:45Z</time>
      </trkpt>
      <trkpt lat="43.80042" lon="7.08744">
        <ele>936</ele>
        <time>2011-08-21T14:10:50Z</time>
      </trkpt>
      <trkpt lat="43.80053" lon="7.08756">
        <ele>934</ele>
        <time>2011-08-21T14:10:52Z</time>
      </trkpt>
      <trkpt lat="43.80066" lon="7.08809">
        <ele>933</ele>
        <time>2011-08-21T14:10:58Z</time>
      </trkpt>
      <trkpt lat="43.80076" lon="7.08922">
        <ele>923</ele>
        <time>2011-08-21T14:11:10Z</time>
      </trkpt>
      <trkpt lat="43.80109" lon="7.09021">
        <ele>916</ele>
        <time>2011-08-21T14:11:23Z</time>
      </trkpt>
      <trkpt lat="43.80169" lon="7.09078">
        <ele>914</ele>
        <time>2011-08-21T14:11:33Z</time>
      </trkpt>
      <trkpt lat="43.80223" lon="7.09065">
        <ele>914</ele>
        <time>2011-08-21T14:11:40Z</time>
      </trkpt>
      <trkpt lat="43.80242" lon="7.09049">
        <ele>916</ele>
        <time>2011-08-21T14:11:43Z</time>
      </trkpt>
      <trkpt lat="43.80262" lon="7.09017">
        <ele>914</ele>
        <time>2011-08-21T14:11:48Z</time>
      </trkpt>
      <trkpt lat="43.80288" lon="7.08993">
        <ele>924</ele>
        <time>2011-08-21T14:11:54Z</time>
      </trkpt>
      <trkpt lat="43.80321" lon="7.08977">
        <ele>921</ele>
        <time>2011-08-21T14:12:01Z</time>
      </trkpt>
      <trkpt lat="43.80354" lon="7.08946">
        <ele>916</ele>
        <time>2011-08-21T14:12:09Z</time>
      </trkpt>
      <trkpt lat="43.80375" lon="7.08895">
        <ele>930</ele>
        <time>2011-08-21T14:12:18Z</time>
      </trkpt>
      <trkpt lat="43.80402" lon="7.08883">
        <ele>929</ele>
        <time>2011-08-21T14:12:25Z</time>
      </trkpt>
      <trkpt lat="43.80433" lon="7.08905">
        <ele>923</ele>
        <time>2011-08-21T14:12:32Z</time>
      </trkpt>
      <trkpt lat="43.80529" lon="7.08927">
        <ele>914</ele>
        <time>2011-08-21T14:12:51Z</time>
      </trkpt>
      <trkpt lat="43.80538" lon="7.08927">
        <ele>914</ele>
        <time>2011-08-21T14:12:53Z</time>
      </trkpt>
      <trkpt lat="43.80572" lon="7.08919">
        <ele>915</ele>
        <time>2011-08-21T14:13:00Z</time>
      </trkpt>
      <trkpt lat="43.80604" lon="7.089">
        <ele>923</ele>
        <time>2011-08-21T14:13:07Z</time>
      </trkpt>
      <trkpt lat="43.8067" lon="7.0888">
        <ele>915</ele>
        <time>2011-08-21T14:13:21Z</time>
      </trkpt>
      <trkpt lat="43.80685" lon="7.08878">
        <ele>915</ele>
        <time>2011-08-21T14:13:24Z</time>
      </trkpt>
      <trkpt lat="43.80705" lon="7.08878">
        <ele>914</ele>
        <time>2011-08-21T14:13:28Z</time>
      </trkpt>
      <trkpt lat="43.80724" lon="7.08874">
        <ele>912</ele>
        <time>2011-08-21T14:13:32Z</time>
      </trkpt>
      <trkpt lat="43.80732" lon="7.0887">
        <ele>912</ele>
        <time>2011-08-21T14:13:34Z</time>
      </trkpt>
      <trkpt lat="43.8077" lon="7.08884">
        <ele>896</ele>
        <time>2011-08-21T14:13:43Z</time>
      </trkpt>
      <trkpt lat="43.80833" lon="7.08983">
        <ele>905</ele>
        <time>2011-08-21T14:14:02Z</time>
      </trkpt>
      <trkpt lat="43.80837" lon="7.08993">
        <ele>902</ele>
        <time>2011-08-21T14:14:04Z</time>
      </trkpt>
      <trkpt lat="43.80844" lon="7.09017">
        <ele>903</ele>
        <time>2011-08-21T14:14:08Z</time>
      </trkpt>
      <trkpt lat="43.80844" lon="7.09075">
        <ele>906</ele>
        <time>2011-08-21T14:14:16Z</time>
      </trkpt>
      <trkpt lat="43.80848" lon="7.09191">
        <ele>899</ele>
        <time>2011-08-21T14:14:29Z</time>
      </trkpt>
      <trkpt lat="43.80855" lon="7.09282">
        <ele>896</ele>
        <time>2011-08-21T14:14:40Z</time>
      </trkpt>
      <trkpt lat="43.80837" lon="7.0937">
        <ele>889</ele>
        <time>2011-08-21T14:14:54Z</time>
      </trkpt>
      <trkpt lat="43.80828" lon="7.09392">
        <ele>904</ele>
        <time>2011-08-21T14:14:58Z</time>
      </trkpt>
      <trkpt lat="43.8082" lon="7.09402">
        <ele>902</ele>
        <time>2011-08-21T14:15:00Z</time>
      </trkpt>
      <trkpt lat="43.80812" lon="7.09441">
        <ele>899</ele>
        <time>2011-08-21T14:15:06Z</time>
      </trkpt>
      <trkpt lat="43.80813" lon="7.09454">
        <ele>898</ele>
        <time>2011-08-21T14:15:08Z</time>
      </trkpt>
      <trkpt lat="43.80811" lon="7.0948">
        <ele>896</ele>
        <time>2011-08-21T14:15:12Z</time>
      </trkpt>
      <trkpt lat="43.80812" lon="7.09551">
        <ele>891</ele>
        <time>2011-08-21T14:15:25Z</time>
      </trkpt>
      <trkpt lat="43.80808" lon="7.09568">
        <ele>890</ele>
        <time>2011-08-21T14:15:35Z</time>
      </trkpt>
      <trkpt lat="43.8081" lon="7.09568">
        <ele>890</ele>
        <time>2011-08-21T14:16:13Z</time>
      </trkpt>
      <trkpt lat="43.80816" lon="7.09569">
        <ele>890</ele>
        <time>2011-08-21T14:16:16Z</time>
      </trkpt>
      <trkpt lat="43.8084" lon="7.09592">
        <ele>880</ele>
        <time>2011-08-21T14:16:25Z</time>
      </trkpt>
      <trkpt lat="43.80836" lon="7.09589">
        <ele>882</ele>
        <time>2011-08-21T14:16:32Z</time>
      </trkpt>
      <trkpt lat="43.80828" lon="7.09587">
        <ele>885</ele>
        <time>2011-08-21T14:16:37Z</time>
      </trkpt>
      <trkpt lat="43.80829" lon="7.09593">
        <ele>884</ele>
        <time>2011-08-21T14:16:40Z</time>
      </trkpt>
      <trkpt lat="43.80827" lon="7.0961">
        <ele>882</ele>
        <time>2011-08-21T14:16:50Z</time>
      </trkpt>
      <trkpt lat="43.80827" lon="7.09609">
        <ele>882</ele>
        <time>2011-08-21T14:16:54Z</time>
      </trkpt>
      <trkpt lat="43.80829" lon="7.09601">
        <ele>883</ele>
        <time>2011-08-21T14:17:16Z</time>
      </trkpt>
      <trkpt lat="43.80828" lon="7.09595">
        <ele>884</ele>
        <time>2011-08-21T14:17:23Z</time>
      </trkpt>
      <trkpt lat="43.80826" lon="7.0959">
        <ele>884</ele>
        <time>2011-08-21T14:17:25Z</time>
      </trkpt>
      <trkpt lat="43.80832" lon="7.09592">
        <ele>884</ele>
        <time>2011-08-21T14:17:30Z</time>
      </trkpt>
      <trkpt lat="43.80857" lon="7.09621">
        <ele>872</ele>
        <time>2011-08-21T14:17:42Z</time>
      </trkpt>
      <trkpt lat="43.80858" lon="7.09637">
        <ele>871</ele>
        <time>2011-08-21T14:17:52Z</time>
      </trkpt>
      <trkpt lat="43.80851" lon="7.09646">
        <ele>872</ele>
        <time>2011-08-21T14:18:10Z</time>
      </trkpt>
      <trkpt lat="43.80848" lon="7.09653">
        <ele>873</ele>
        <time>2011-08-21T14:18:29Z</time>
      </trkpt>
      <trkpt lat="43.80849" lon="7.09654">
        <ele>873</ele>
        <time>2011-08-21T14:18:34Z</time>
      </trkpt>
      <trkpt lat="43.80853" lon="7.09655">
        <ele>872</ele>
        <time>2011-08-21T14:18:51Z</time>
      </trkpt>
      <trkpt lat="43.80869" lon="7.09666">
        <ele>870</ele>
        <time>2011-08-21T14:19:06Z</time>
      </trkpt>
      <trkpt lat="43.80882" lon="7.0967">
        <ele>862</ele>
        <time>2011-08-21T14:19:17Z</time>
      </trkpt>
      <trkpt lat="43.80883" lon="7.09669">
        <ele>862</ele>
        <time>2011-08-21T14:19:30Z</time>
      </trkpt>
      <trkpt lat="43.80883" lon="7.09669">
        <ele>862</ele>
        <time>2011-08-21T14:21:38Z</time>
      </trkpt>
      <trkpt lat="43.80883" lon="7.09669">
        <ele>862</ele>
        <time>2011-08-21T14:21:39Z</time>
      </trkpt>
      <trkpt lat="43.80883" lon="7.09649">
        <ele>868</ele>
        <time>2011-08-21T14:21:46Z</time>
      </trkpt>
      <trkpt lat="43.80869" lon="7.09613">
        <ele>870</ele>
        <time>2011-08-21T14:21:59Z</time>
      </trkpt>
      <trkpt lat="43.80843" lon="7.09582">
        <ele>879</ele>
        <time>2011-08-21T14:22:15Z</time>
      </trkpt>
      <trkpt lat="43.80833" lon="7.09572">
        <ele>888</ele>
        <time>2011-08-21T14:22:21Z</time>
      </trkpt>
      <trkpt lat="43.80825" lon="7.09562">
        <ele>889</ele>
        <time>2011-08-21T14:22:26Z</time>
      </trkpt>
      <trkpt lat="43.80823" lon="7.0957">
        <ele>889</ele>
        <time>2011-08-21T14:22:31Z</time>
      </trkpt>
      <trkpt lat="43.80833" lon="7.09581">
        <ele>887</ele>
        <time>2011-08-21T14:22:37Z</time>
      </trkpt>
      <trkpt lat="43.80827" lon="7.09582">
        <ele>887</ele>
        <time>2011-08-21T14:22:44Z</time>
      </trkpt>
      <trkpt lat="43.80813" lon="7.09568">
        <ele>890</ele>
        <time>2011-08-21T14:22:53Z</time>
      </trkpt>
      <trkpt lat="43.80807" lon="7.09571">
        <ele>890</ele>
        <time>2011-08-21T14:22:57Z</time>
      </trkpt>
      <trkpt lat="43.80802" lon="7.09573">
        <ele>891</ele>
        <time>2011-08-21T14:23:00Z</time>
      </trkpt>
      <trkpt lat="43.80791" lon="7.09576">
        <ele>892</ele>
        <time>2011-08-21T14:23:18Z</time>
      </trkpt>
      <trkpt lat="43.80751" lon="7.09587">
        <ele>890</ele>
        <time>2011-08-21T14:23:30Z</time>
      </trkpt>
      <trkpt lat="43.80728" lon="7.09597">
        <ele>882</ele>
        <time>2011-08-21T14:23:43Z</time>
      </trkpt>
      <trkpt lat="43.80729" lon="7.09596">
        <ele>882</ele>
        <time>2011-08-21T14:24:02Z</time>
      </trkpt>
      <trkpt lat="43.80729" lon="7.09596">
        <ele>882</ele>
        <time>2011-08-21T14:24:06Z</time>
      </trkpt>
      <trkpt lat="43.80693" lon="7.09582">
        <ele>894</ele>
        <time>2011-08-21T14:24:22Z</time>
      </trkpt>
      <trkpt lat="43.80648" lon="7.09573">
        <ele>893</ele>
        <time>2011-08-21T14:24:32Z</time>
      </trkpt>
      <trkpt lat="43.80652" lon="7.09587">
        <ele>880</ele>
        <time>2011-08-21T14:24:38Z</time>
      </trkpt>
      <trkpt lat="43.80661" lon="7.0959">
        <ele>882</ele>
        <time>2011-08-21T14:24:40Z</time>
      </trkpt>
      <trkpt lat="43.80704" lon="7.09621">
        <ele>876</ele>
        <time>2011-08-21T14:24:51Z</time>
      </trkpt>
      <trkpt lat="43.80724" lon="7.09623">
        <ele>877</ele>
        <time>2011-08-21T14:25:06Z</time>
      </trkpt>
      <trkpt lat="43.80724" lon="7.09623">
        <ele>877</ele>
        <time>2011-08-21T14:25:29Z</time>
      </trkpt>
      <trkpt lat="43.80694" lon="7.09618">
        <ele>877</ele>
        <time>2011-08-21T14:25:42Z</time>
      </trkpt>
      <trkpt lat="43.8063" lon="7.09606">
        <ele>875</ele>
        <time>2011-08-21T14:25:54Z</time>
      </trkpt>
      <trkpt lat="43.80611" lon="7.09608">
        <ele>875</ele>
        <time>2011-08-21T14:25:57Z</time>
      </trkpt>
      <trkpt lat="43.80543" lon="7.09643">
        <ele>877</ele>
        <time>2011-08-21T14:26:09Z</time>
      </trkpt>
      <trkpt lat="43.80493" lon="7.09688">
        <ele>879</ele>
        <time>2011-08-21T14:26:23Z</time>
      </trkpt>
      <trkpt lat="43.80486" lon="7.09699">
        <ele>879</ele>
        <time>2011-08-21T14:26:25Z</time>
      </trkpt>
      <trkpt lat="43.80482" lon="7.09745">
        <ele>870</ele>
        <time>2011-08-21T14:26:31Z</time>
      </trkpt>
      <trkpt lat="43.80484" lon="7.09797">
        <ele>868</ele>
        <time>2011-08-21T14:26:36Z</time>
      </trkpt>
      <trkpt lat="43.80481" lon="7.09894">
        <ele>856</ele>
        <time>2011-08-21T14:26:45Z</time>
      </trkpt>
      <trkpt lat="43.80463" lon="7.0994">
        <ele>847</ele>
        <time>2011-08-21T14:26:51Z</time>
      </trkpt>
      <trkpt lat="43.80433" lon="7.09984">
        <ele>847</ele>
        <time>2011-08-21T14:26:58Z</time>
      </trkpt>
      <trkpt lat="43.8036" lon="7.10062">
        <ele>843</ele>
        <time>2011-08-21T14:27:14Z</time>
      </trkpt>
      <trkpt lat="43.80354" lon="7.10067">
        <ele>843</ele>
        <time>2011-08-21T14:27:15Z</time>
      </trkpt>
      <trkpt lat="43.80338" lon="7.10081">
        <ele>842</ele>
        <time>2011-08-21T14:27:18Z</time>
      </trkpt>
      <trkpt lat="43.80318" lon="7.10108">
        <ele>835</ele>
        <time>2011-08-21T14:27:23Z</time>
      </trkpt>
      <trkpt lat="43.80298" lon="7.10119">
        <ele>834</ele>
        <time>2011-08-21T14:27:27Z</time>
      </trkpt>
      <trkpt lat="43.80266" lon="7.10141">
        <ele>832</ele>
        <time>2011-08-21T14:27:38Z</time>
      </trkpt>
      <trkpt lat="43.80264" lon="7.10141">
        <ele>832</ele>
        <time>2011-08-21T14:27:54Z</time>
      </trkpt>
      <trkpt lat="43.80264" lon="7.10142">
        <ele>832</ele>
        <time>2011-08-21T14:28:06Z</time>
      </trkpt>
      <trkpt lat="43.80239" lon="7.10148">
        <ele>836</ele>
        <time>2011-08-21T14:28:19Z</time>
      </trkpt>
      <trkpt lat="43.80235" lon="7.10149">
        <ele>836</ele>
        <time>2011-08-21T14:28:29Z</time>
      </trkpt>
      <trkpt lat="43.80234" lon="7.10148">
        <ele>837</ele>
        <time>2011-08-21T14:28:38Z</time>
      </trkpt>
      <trkpt lat="43.80227" lon="7.1016">
        <ele>836</ele>
        <time>2011-08-21T14:28:44Z</time>
      </trkpt>
      <trkpt lat="43.80219" lon="7.10164">
        <ele>837</ele>
        <time>2011-08-21T14:28:48Z</time>
      </trkpt>
      <trkpt lat="43.80191" lon="7.10195">
        <ele>831</ele>
        <time>2011-08-21T14:29:00Z</time>
      </trkpt>
      <trkpt lat="43.80164" lon="7.10205">
        <ele>836</ele>
        <time>2011-08-21T14:29:09Z</time>
      </trkpt>
      <trkpt lat="43.80151" lon="7.10233">
        <ele>833</ele>
        <time>2011-08-21T14:29:18Z</time>
      </trkpt>
      <trkpt lat="43.80152" lon="7.10246">
        <ele>832</ele>
        <time>2011-08-21T14:29:22Z</time>
      </trkpt>
      <trkpt lat="43.8016" lon="7.10253">
        <ele>830</ele>
        <time>2011-08-21T14:29:35Z</time>
      </trkpt>
      <trkpt lat="43.80172" lon="7.1025">
        <ele>827</ele>
        <time>2011-08-21T14:29:48Z</time>
      </trkpt>
      <trkpt lat="43.80193" lon="7.10235">
        <ele>829</ele>
        <time>2011-08-21T14:30:03Z</time>
      </trkpt>
      <trkpt lat="43.802" lon="7.10239">
        <ele>829</ele>
        <time>2011-08-21T14:30:15Z</time>
      </trkpt>
      <trkpt lat="43.8019" lon="7.10252">
        <ele>832</ele>
        <time>2011-08-21T14:30:53Z</time>
      </trkpt>
      <trkpt lat="43.80189" lon="7.10253">
        <ele>832</ele>
        <time>2011-08-21T14:30:55Z</time>
      </trkpt>
      <trkpt lat="43.80181" lon="7.10261">
        <ele>832</ele>
        <time>2011-08-21T14:31:12Z</time>
      </trkpt>
      <trkpt lat="43.80165" lon="7.10277">
        <ele>835</ele>
        <time>2011-08-21T14:31:29Z</time>
      </trkpt>
      <trkpt lat="43.80163" lon="7.10277">
        <ele>835</ele>
        <time>2011-08-21T14:31:31Z</time>
      </trkpt>
      <trkpt lat="43.80158" lon="7.10281">
        <ele>836</ele>
        <time>2011-08-21T14:31:35Z</time>
      </trkpt>
      <trkpt lat="43.80151" lon="7.10301">
        <ele>839</ele>
        <time>2011-08-21T14:31:46Z</time>
      </trkpt>
      <trkpt lat="43.80143" lon="7.10337">
        <ele>845</ele>
        <time>2011-08-21T14:32:05Z</time>
      </trkpt>
      <trkpt lat="43.80143" lon="7.10358">
        <ele>846</ele>
        <time>2011-08-21T14:32:20Z</time>
      </trkpt>
      <trkpt lat="43.80141" lon="7.10375">
        <ele>847</ele>
        <time>2011-08-21T14:32:34Z</time>
      </trkpt>
      <trkpt lat="43.80137" lon="7.10393">
        <ele>848</ele>
        <time>2011-08-21T14:32:51Z</time>
      </trkpt>
      <trkpt lat="43.80133" lon="7.10412">
        <ele>848</ele>
        <time>2011-08-21T14:33:05Z</time>
      </trkpt>
      <trkpt lat="43.80135" lon="7.10422">
        <ele>851</ele>
        <time>2011-08-21T14:33:16Z</time>
      </trkpt>
      <trkpt lat="43.80133" lon="7.10439">
        <ele>852</ele>
        <time>2011-08-21T14:33:31Z</time>
      </trkpt>
      <trkpt lat="43.80135" lon="7.10462">
        <ele>853</ele>
        <time>2011-08-21T14:33:51Z</time>
      </trkpt>
      <trkpt lat="43.80134" lon="7.10486">
        <ele>854</ele>
        <time>2011-08-21T14:34:10Z</time>
      </trkpt>
      <trkpt lat="43.80131" lon="7.10515">
        <ele>860</ele>
        <time>2011-08-21T14:34:33Z</time>
      </trkpt>
      <trkpt lat="43.80128" lon="7.1054">
        <ele>861</ele>
        <time>2011-08-21T14:34:52Z</time>
      </trkpt>
      <trkpt lat="43.80126" lon="7.10551">
        <ele>862</ele>
        <time>2011-08-21T14:35:05Z</time>
      </trkpt>
      <trkpt lat="43.80125" lon="7.10553">
        <ele>862</ele>
        <time>2011-08-21T14:35:06Z</time>
      </trkpt>
      <trkpt lat="43.80118" lon="7.10576">
        <ele>863</ele>
        <time>2011-08-21T14:35:30Z</time>
      </trkpt>
      <trkpt lat="43.80118" lon="7.10577">
        <ele>863</ele>
        <time>2011-08-21T14:35:38Z</time>
      </trkpt>
      <trkpt lat="43.80106" lon="7.10609">
        <ele>869</ele>
        <time>2011-08-21T14:35:56Z</time>
      </trkpt>
      <trkpt lat="43.80088" lon="7.10653">
        <ele>870</ele>
        <time>2011-08-21T14:36:14Z</time>
      </trkpt>
      <trkpt lat="43.80079" lon="7.10706">
        <ele>877</ele>
        <time>2011-08-21T14:36:31Z</time>
      </trkpt>
      <trkpt lat="43.80082" lon="7.1074">
        <ele>877</ele>
        <time>2011-08-21T14:36:43Z</time>
      </trkpt>
      <trkpt lat="43.80092" lon="7.10807">
        <ele>884</ele>
        <time>2011-08-21T14:37:04Z</time>
      </trkpt>
      <trkpt lat="43.80089" lon="7.10877">
        <ele>887</ele>
        <time>2011-08-21T14:37:25Z</time>
      </trkpt>
      <trkpt lat="43.80084" lon="7.10948">
        <ele>889</ele>
        <time>2011-08-21T14:37:45Z</time>
      </trkpt>
      <trkpt lat="43.80084" lon="7.11018">
        <ele>891</ele>
        <time>2011-08-21T14:38:06Z</time>
      </trkpt>
      <trkpt lat="43.80085" lon="7.11072">
        <ele>892</ele>
        <time>2011-08-21T14:38:23Z</time>
      </trkpt>
      <trkpt lat="43.80092" lon="7.11134">
        <ele>896</ele>
        <time>2011-08-21T14:38:43Z</time>
      </trkpt>
      <trkpt lat="43.80106" lon="7.11197">
        <ele>898</ele>
        <time>2011-08-21T14:39:04Z</time>
      </trkpt>
      <trkpt lat="43.80102" lon="7.11259">
        <ele>897</ele>
        <time>2011-08-21T14:39:24Z</time>
      </trkpt>
      <trkpt lat="43.80081" lon="7.11298">
        <ele>899</ele>
        <time>2011-08-21T14:39:39Z</time>
      </trkpt>
      <trkpt lat="43.80059" lon="7.11325">
        <ele>900</ele>
        <time>2011-08-21T14:39:51Z</time>
      </trkpt>
      <trkpt lat="43.8004" lon="7.11366">
        <ele>901</ele>
        <time>2011-08-21T14:40:09Z</time>
      </trkpt>
      <trkpt lat="43.8002" lon="7.11393">
        <ele>902</ele>
        <time>2011-08-21T14:40:27Z</time>
      </trkpt>
      <trkpt lat="43.80003" lon="7.1141">
        <ele>904</ele>
        <time>2011-08-21T14:40:46Z</time>
      </trkpt>
      <trkpt lat="43.79992" lon="7.11415">
        <ele>910</ele>
        <time>2011-08-21T14:41:18Z</time>
      </trkpt>
      <trkpt lat="43.79977" lon="7.11426">
        <ele>909</ele>
        <time>2011-08-21T14:41:37Z</time>
      </trkpt>
      <trkpt lat="43.79961" lon="7.11436">
        <ele>911</ele>
        <time>2011-08-21T14:41:59Z</time>
      </trkpt>
      <trkpt lat="43.79945" lon="7.11445">
        <ele>913</ele>
        <time>2011-08-21T14:42:12Z</time>
      </trkpt>
      <trkpt lat="43.79917" lon="7.11459">
        <ele>913</ele>
        <time>2011-08-21T14:42:31Z</time>
      </trkpt>
      <trkpt lat="43.79899" lon="7.11465">
        <ele>926</ele>
        <time>2011-08-21T14:42:45Z</time>
      </trkpt>
      <trkpt lat="43.79888" lon="7.11466">
        <ele>926</ele>
        <time>2011-08-21T14:42:59Z</time>
      </trkpt>
      <trkpt lat="43.79879" lon="7.11473">
        <ele>927</ele>
        <time>2011-08-21T14:43:06Z</time>
      </trkpt>
      <trkpt lat="43.79845" lon="7.11477">
        <ele>929</ele>
        <time>2011-08-21T14:43:27Z</time>
      </trkpt>
      <trkpt lat="43.79812" lon="7.11485">
        <ele>936</ele>
        <time>2011-08-21T14:43:46Z</time>
      </trkpt>
      <trkpt lat="43.79793" lon="7.11496">
        <ele>937</ele>
        <time>2011-08-21T14:44:01Z</time>
      </trkpt>
      <trkpt lat="43.79782" lon="7.115">
        <ele>938</ele>
        <time>2011-08-21T14:44:13Z</time>
      </trkpt>
      <trkpt lat="43.7978" lon="7.11506">
        <ele>938</ele>
        <time>2011-08-21T14:44:26Z</time>
      </trkpt>
      <trkpt lat="43.79785" lon="7.11512">
        <ele>938</ele>
        <time>2011-08-21T14:44:37Z</time>
      </trkpt>
      <trkpt lat="43.7979" lon="7.1152">
        <ele>938</ele>
        <time>2011-08-21T14:44:50Z</time>
      </trkpt>
      <trkpt lat="43.79781" lon="7.11522">
        <ele>938</ele>
        <time>2011-08-21T14:45:01Z</time>
      </trkpt>
      <trkpt lat="43.79763" lon="7.11514">
        <ele>938</ele>
        <time>2011-08-21T14:45:22Z</time>
      </trkpt>
      <trkpt lat="43.79745" lon="7.1151">
        <ele>942</ele>
        <time>2011-08-21T14:45:41Z</time>
      </trkpt>
      <trkpt lat="43.79725" lon="7.11506">
        <ele>945</ele>
        <time>2011-08-21T14:46:04Z</time>
      </trkpt>
      <trkpt lat="43.79701" lon="7.11499">
        <ele>944</ele>
        <time>2011-08-21T14:46:29Z</time>
      </trkpt>
      <trkpt lat="43.79688" lon="7.11494">
        <ele>945</ele>
        <time>2011-08-21T14:46:45Z</time>
      </trkpt>
      <trkpt lat="43.7967" lon="7.11487">
        <ele>946</ele>
        <time>2011-08-21T14:47:06Z</time>
      </trkpt>
      <trkpt lat="43.79653" lon="7.1148">
        <ele>950</ele>
        <time>2011-08-21T14:47:27Z</time>
      </trkpt>
      <trkpt lat="43.79634" lon="7.11475">
        <ele>951</ele>
        <time>2011-08-21T14:47:47Z</time>
      </trkpt>
      <trkpt lat="43.79622" lon="7.11474">
        <ele>952</ele>
        <time>2011-08-21T14:48:05Z</time>
      </trkpt>
      <trkpt lat="43.79631" lon="7.11487">
        <ele>951</ele>
        <time>2011-08-21T14:48:21Z</time>
      </trkpt>
      <trkpt lat="43.79636" lon="7.11504">
        <ele>957</ele>
        <time>2011-08-21T14:48:37Z</time>
      </trkpt>
      <trkpt lat="43.79642" lon="7.11523">
        <ele>958</ele>
        <time>2011-08-21T14:48:55Z</time>
      </trkpt>
      <trkpt lat="43.79644" lon="7.11543">
        <ele>960</ele>
        <time>2011-08-21T14:49:13Z</time>
      </trkpt>
      <trkpt lat="43.79651" lon="7.11564">
        <ele>961</ele>
        <time>2011-08-21T14:49:32Z</time>
      </trkpt>
      <trkpt lat="43.7966" lon="7.11575">
        <ele>962</ele>
        <time>2011-08-21T14:49:47Z</time>
      </trkpt>
      <trkpt lat="43.79665" lon="7.11587">
        <ele>964</ele>
        <time>2011-08-21T14:50:02Z</time>
      </trkpt>
      <trkpt lat="43.79668" lon="7.11599">
        <ele>964</ele>
        <time>2011-08-21T14:50:19Z</time>
      </trkpt>
      <trkpt lat="43.79672" lon="7.11605">
        <ele>964</ele>
        <time>2011-08-21T14:50:47Z</time>
      </trkpt>
      <trkpt lat="43.79683" lon="7.11619">
        <ele>965</ele>
        <time>2011-08-21T14:51:01Z</time>
      </trkpt>
      <trkpt lat="43.79693" lon="7.11643">
        <ele>966</ele>
        <time>2011-08-21T14:51:23Z</time>
      </trkpt>
      <trkpt lat="43.79704" lon="7.1166">
        <ele>967</ele>
        <time>2011-08-21T14:51:43Z</time>
      </trkpt>
      <trkpt lat="43.79704" lon="7.11661">
        <ele>967</ele>
        <time>2011-08-21T14:51:48Z</time>
      </trkpt>
      <trkpt lat="43.79707" lon="7.11666">
        <ele>967</ele>
        <time>2011-08-21T14:51:52Z</time>
      </trkpt>
      <trkpt lat="43.79717" lon="7.11704">
        <ele>974</ele>
        <time>2011-08-21T14:52:11Z</time>
      </trkpt>
      <trkpt lat="43.79716" lon="7.11751">
        <ele>978</ele>
        <time>2011-08-21T14:52:27Z</time>
      </trkpt>
      <trkpt lat="43.79711" lon="7.11776">
        <ele>979</ele>
        <time>2011-08-21T14:52:35Z</time>
      </trkpt>
      <trkpt lat="43.79695" lon="7.11801">
        <ele>980</ele>
        <time>2011-08-21T14:52:45Z</time>
      </trkpt>
      <trkpt lat="43.79691" lon="7.11808">
        <ele>980</ele>
        <time>2011-08-21T14:52:49Z</time>
      </trkpt>
      <trkpt lat="43.7969" lon="7.11848">
        <ele>984</ele>
        <time>2011-08-21T14:53:06Z</time>
      </trkpt>
      <trkpt lat="43.7969" lon="7.11857">
        <ele>984</ele>
        <time>2011-08-21T14:53:10Z</time>
      </trkpt>
      <trkpt lat="43.79685" lon="7.11906">
        <ele>985</ele>
        <time>2011-08-21T14:53:28Z</time>
      </trkpt>
      <trkpt lat="43.7968" lon="7.11946">
        <ele>986</ele>
        <time>2011-08-21T14:53:41Z</time>
      </trkpt>
      <trkpt lat="43.79662" lon="7.1199">
        <ele>987</ele>
        <time>2011-08-21T14:53:57Z</time>
      </trkpt>
      <trkpt lat="43.79642" lon="7.12024">
        <ele>990</ele>
        <time>2011-08-21T14:54:11Z</time>
      </trkpt>
      <trkpt lat="43.79614" lon="7.12046">
        <ele>992</ele>
        <time>2011-08-21T14:54:25Z</time>
      </trkpt>
      <trkpt lat="43.79608" lon="7.12088">
        <ele>995</ele>
        <time>2011-08-21T14:54:40Z</time>
      </trkpt>
      <trkpt lat="43.79599" lon="7.12122">
        <ele>996</ele>
        <time>2011-08-21T14:54:53Z</time>
      </trkpt>
      <trkpt lat="43.79574" lon="7.12172">
        <ele>1001</ele>
        <time>2011-08-21T14:55:13Z</time>
      </trkpt>
      <trkpt lat="43.79565" lon="7.12205">
        <ele>1003</ele>
        <time>2011-08-21T14:55:27Z</time>
      </trkpt>
      <trkpt lat="43.79576" lon="7.12246">
        <ele>1005</ele>
        <time>2011-08-21T14:55:44Z</time>
      </trkpt>
      <trkpt lat="43.7959" lon="7.1228">
        <ele>1004</ele>
        <time>2011-08-21T14:55:58Z</time>
      </trkpt>
      <trkpt lat="43.79591" lon="7.12283">
        <ele>1004</ele>
        <time>2011-08-21T14:55:59Z</time>
      </trkpt>
      <trkpt lat="43.79583" lon="7.12326">
        <ele>1008</ele>
        <time>2011-08-21T14:56:14Z</time>
      </trkpt>
      <trkpt lat="43.79572" lon="7.12363">
        <ele>1008</ele>
        <time>2011-08-21T14:56:30Z</time>
      </trkpt>
      <trkpt lat="43.79572" lon="7.12407">
        <ele>1007</ele>
        <time>2011-08-21T14:56:44Z</time>
      </trkpt>
      <trkpt lat="43.79549" lon="7.12439">
        <ele>1005</ele>
        <time>2011-08-21T14:56:55Z</time>
      </trkpt>
      <trkpt lat="43.79545" lon="7.12441">
        <ele>1005</ele>
        <time>2011-08-21T14:56:56Z</time>
      </trkpt>
      <trkpt lat="43.79534" lon="7.12459">
        <ele>1005</ele>
        <time>2011-08-21T14:57:00Z</time>
      </trkpt>
      <trkpt lat="43.79531" lon="7.12468">
        <ele>1005</ele>
        <time>2011-08-21T14:57:02Z</time>
      </trkpt>
      <trkpt lat="43.79517" lon="7.12508">
        <ele>1004</ele>
        <time>2011-08-21T14:57:15Z</time>
      </trkpt>
      <trkpt lat="43.79508" lon="7.12527">
        <ele>1004</ele>
        <time>2011-08-21T14:57:28Z</time>
      </trkpt>
      <trkpt lat="43.79503" lon="7.12522">
        <ele>1004</ele>
        <time>2011-08-21T14:57:55Z</time>
      </trkpt>
      <trkpt lat="43.79501" lon="7.12517">
        <ele>1004</ele>
        <time>2011-08-21T14:57:59Z</time>
      </trkpt>
      <trkpt lat="43.79494" lon="7.12514">
        <ele>1006</ele>
        <time>2011-08-21T14:58:18Z</time>
      </trkpt>
      <trkpt lat="43.79493" lon="7.12514">
        <ele>1006</ele>
        <time>2011-08-21T14:59:12Z</time>
      </trkpt>
    </trkseg>
  </trk>
</gpx>